[[{"header":{"parameterUnit":"m.s-1","parameterCategory":1,"la1":31.0,"la2":29.5877,"lo1":-88.7671,"lo2":-86.6584,"dy":0.0162,"dx":0.0185,"nx":115,"ny":88,"refTime":"2024-10-07T18:00:00:Z","depth":0,"parameterNumber":2,"parameterNumberName":"U-component_of_WINDS"},"data":[0.0,0.0,0.0,0.0,0.0,0.0,0.0,0.0,0.0,0.0,0.0,0.0,0.0,0.0,0.0,0.0,0.0,0.0,0.0,0.0,0.0,0.0,0.0,0.0,0.0,0.0,0.0,0.0,0.0,0.0,0.0,0.0,0.0,0.0,0.0,0.0,0.0,0.0,0.0,0.0,0.0,0.0,0.0,0.0,0.0,0.0,0.0,0.0,0.0,0.0,0.0,0.0,0.0,0.0,0.0,0.0,0.0,0.0,0.0,0.0,0.0,0.0,0.0,0.0,0.0,0.0,0.0,0.0,0.0,0.0,0.0,0.0,0.0,0.0,0.0,0.0,0.0,0.0,0.0,0.0,0.0,0.0,0.0,0.0,0.0,0.0,0.0,0.0,0.0,0.0,0.0,0.0,0.0,0.0,0.0,0.0,0.0,0.0,0.0,0.0,0.0,0.0,0.0,0.0,0.0,0.0,0.0,0.0,0.0,0.0,0.0,0.0,0.0,0.0,0.0,0.0,0.0,0.0,0.0,0.0,0.0,0.0,0.0,0.0,0.0,0.0,0.0,0.0,0.0,0.0,0.0,0.0,0.0,0.0,0.0,0.0,0.0,0.0,0.0,0.0,0.0,0.0,0.0,0.0,0.0,0.0,0.0,0.0,0.0,0.0,0.0,0.0,0.0,0.0,0.0,0.0,0.0,0.0,0.0,0.0,0.0,0.0,0.0,0.0,0.0,0.0,0.0,0.0,0.0,0.0,0.0,0.0,0.0,0.0,0.0,0.0,0.0,0.0,0.0,0.0,0.0,0.0,0.0,0.0,0.0,0.0,0.0,0.0,0.0,0.0,0.0,0.0,0.0,0.0,0.0,0.0,0.0,0.0,0.0,0.0,0.0,0.0,0.0,0.0,0.0,0.0,0.0,0.0,0.0,0.0,0.0,0.0,0.0,0.0,0.0,0.0,0.0,0.0,0.0,0.0,0.0,0.0,0.0,0.0,0.0,0.0,0.0,0.0,0.0,0.0,0.0,0.0,0.0,0.0,0.0,0.0,0.0,0.0,0.0,0.0,0.0,0.0,0.0,0.0,0.0,0.0,0.0,0.0,0.0,0.0,0.0,0.0,0.0,0.0,0.0,0.0,0.0,0.0,0.0,0.0,0.0,0.0,0.0,0.0,0.0,0.0,0.0,0.0,0.0,0.0,0.0,0.0,0.0,0.0,0.0,0.0,0.0,0.0,0.0,0.0,0.0,0.0,0.0,0.0,0.0,0.0,0.0,0.0,0.0,0.0,0.0,0.0,0.0,0.0,0.0,0.0,0.0,0.0,0.0,0.0,0.0,0.0,0.0,0.0,0.0,0.0,0.0,0.0,0.0,0.0,0.0,0.0,0.0,0.0,0.0,0.0,0.0,0.0,0.0,0.0,0.0,0.0,0.0,0.0,0.0,0.0,0.0,0.0,0.0,0.0,0.0,0.0,0.0,0.0,0.0,0.0,0.0,0.0,0.0,0.0,0.0,0.0,0.0,0.0,0.0,0.0,0.0,0.0,0.0,0.0,0.0,0.0,0.0,0.0,0.0,0.0,0.0,0.0,0.0,0.0,0.0,0.0,0.0,0.0,0.0,0.0,0.0,0.0,0.0,0.0,0.0,0.0,0.0,0.0,0.0,0.0,0.0,0.0,0.0,0.0,0.0,0.0,0.0,0.0,0.0,0.0,0.0,0.0,0.0,0.0,0.0,0.0,0.0,0.0,0.0,0.0,0.0,0.0,0.0,0.0,0.0,0.0,0.0,0.0,0.0,0.0,0.0,0.0,0.0,0.0,0.0,0.0,0.0,0.0,0.0,0.0,0.0,0.0,0.0,0.0,0.0,0.0,0.0,0.0,0.0,0.0,0.0,0.0,0.0,0.0,0.0,0.0,0.0,0.0,0.0,0.0,0.0,0.0,0.0,0.0,0.0,0.0,0.0,0.0,0.0,0.0,0.0,0.0,0.0,0.0,0.0,0.0,0.0,0.0,0.0,0.0,0.0,0.0,0.0,0.0,0.0,0.0,0.0,0.0,0.0,0.0,0.0,0.0,0.0,0.0,0.0,0.0,0.0,0.0,0.0,0.0,0.0,0.0,0.0,0.0,0.0,0.0,0.0,0.0,0.0,0.0,0.0,0.0,0.0,0.0,0.0,0.0,0.0,0.0,0.0,0.0,0.0,0.0,0.0,0.0,0.0,0.0,0.0,0.0,0.0,0.0,0.0,0.0,0.0,0.0,0.0,0.0,0.0,0.0,0.0,0.0,0.0,0.0,0.0,0.0,0.0,0.0,0.0,0.0,0.0,0.0,0.0,0.0,0.0,0.0,0.0,0.0,0.0,0.0,0.0,0.0,0.0,0.0,0.0,0.0,0.0,0.0,0.0,0.0,0.0,0.0,0.0,0.0,0.0,0.0,0.0,0.0,0.0,0.0,0.0,0.0,0.0,0.0,0.0,0.0,0.0,0.0,0.0,0.0,0.0,0.0,0.0,0.0,0.0,0.0,0.0,0.0,0.0,0.0,0.0,0.0,0.0,0.0,0.0,0.0,0.0,0.0,0.0,0.0,0.0,0.0,0.0,0.0,0.0,0.0,0.0,0.0,0.0,0.0,0.0,0.0,0.0,0.0,0.0,0.0,0.0,0.0,0.0,0.0,0.0,0.0,0.0,0.0,0.0,0.0,0.0,0.0,0.0,0.0,0.0,0.0,0.0,0.0,0.0,0.0,0.0,0.0,0.0,0.0,0.0,0.0,0.0,0.0,0.0,0.0,0.0,0.0,0.0,0.0,0.0,0.0,0.0,0.0,0.0,0.0,0.0,0.0,0.0,0.0,0.0,0.0,0.0,0.0,0.0,0.0,0.0,0.0,0.0,0.0,0.0,0.0,0.0,0.0,0.0,0.0,0.0,0.0,0.0,0.0,0.0,0.0,0.0,0.0,0.0,0.0,0.0,0.0,0.0,0.0,0.0,0.0,0.0,0.0,0.0,0.0,0.0,0.0,0.0,0.0,0.0,0.0,0.0,0.0,0.0,0.0,0.0,0.0,0.0,0.0,0.0,0.0,0.0,0.0,0.0,0.0,0.0,0.0,0.0,0.0,0.0,0.0,0.0,0.0,0.0,0.0,0.0,0.0,0.0,0.0,0.0,0.0,0.0,0.0,0.0,0.0,0.0,0.0,0.0,0.0,0.0,0.0,0.0,0.0,0.0,0.0,0.0,0.0,0.0,0.0,0.0,0.0,0.0,0.0,0.0,0.0,0.0,0.0,0.0,0.0,0.0,0.0,0.0,0.0,0.0,0.0,0.0,0.0,0.0,0.0,0.0,0.0,0.0,0.0,0.0,0.0,0.0,0.0,0.0,0.0,0.0,0.0,0.0,0.0,0.0,0.0,0.0,0.0,0.0,0.0,0.0,0.0,0.0,0.0,0.0,0.0,0.0,0.0,0.0,0.0,0.0,0.0,0.0,0.0,0.0,0.0,0.0,0.0,0.0,0.0,0.0,0.0,0.0,0.0,0.0,0.0,0.0,0.0,0.0,0.0,0.0,0.0,0.0,0.0,0.0,0.0,0.0,0.0,0.0,0.0,0.0,0.0,0.0,0.0,0.0,0.0,0.0,0.0,0.0,0.0,0.0,0.0,0.0,0.0,0.0,0.0,0.0,0.0,0.0,0.0,0.0,0.0,0.0,0.0,0.0,0.0,0.0,0.0,0.0,0.0,0.0,0.0,0.0,0.0,0.0,0.0,0.0,0.0,0.0,0.0,0.0,0.0,0.0,0.0,0.0,0.0,0.0,0.0,0.0,0.0,0.0,0.0,0.0,0.0,0.0,0.0,0.0,0.0,0.0,0.0,0.0,0.0,0.0,0.0,0.0,0.0,0.0,0.0,0.0,0.0,0.0,0.0,0.0,0.0,0.0,0.0,0.0,0.0,0.0,0.0,0.0,0.0,0.0,0.0,0.0,0.0,0.0,0.0,0.0,0.0,0.0,0.0,0.0,0.0,0.0,0.0,0.0,0.0,0.0,0.0,0.0,0.0,0.0,0.0,0.0,0.0,0.0,0.0,0.0,0.0,0.0,0.0,0.0,0.0,0.0,0.0,0.0,0.0,0.0,0.0,0.0,0.0,0.0,0.0,0.0,0.0,0.0,0.0,0.0,0.0,0.0,0.0,0.0,0.0,0.0,0.0,0.0,0.0,0.0,0.0,0.0,0.0,0.0,0.0,0.0,0.0,0.0,0.0,0.0,0.0,0.0,0.0,1.3062,0.0,0.0,0.0,0.0,0.0,0.0,0.0,0.0,0.0,0.0,0.0,0.0,0.0,0.0,0.0,0.0,0.0,0.0,0.0,0.0,0.0,0.0,0.0,0.0,0.0,0.0,0.0,0.0,0.0,0.0,0.0,0.0,0.0,0.0,0.0,0.0,0.0,0.0,0.0,0.0,0.0,0.0,0.0,0.0,0.0,0.0,0.0,0.0,0.0,0.0,0.0,0.0,0.0,0.0,0.0,0.0,0.0,0.0,0.0,0.0,0.0,0.0,0.0,0.0,0.0,0.0,0.0,0.0,0.0,0.0,0.0,0.0,0.0,0.0,0.0,0.0,0.0,0.0,0.0,0.0,0.0,0.0,0.0,0.0,0.0,0.0,0.0,0.0,0.0,0.0,0.0,0.0,0.0,0.0,0.0,0.0,0.0,0.0,0.0,0.0,0.0,0.0,0.0,0.0,0.0,0.0,0.0,0.0,0.0,0.0,1.2449,1.2322,1.2098,1.2024,1.2177,0.0,0.0,0.0,0.0,0.0,0.0,0.0,0.0,0.0,0.0,0.0,0.0,0.0,0.0,0.0,0.0,0.0,0.0,0.0,0.0,0.0,0.0,0.0,0.0,0.0,0.0,0.0,0.0,0.0,0.0,0.0,0.0,0.0,0.0,0.0,0.0,0.0,0.0,0.0,0.0,0.0,0.0,0.0,0.0,0.0,0.0,0.0,0.0,0.0,0.0,0.0,0.0,0.0,0.0,0.0,0.0,0.0,0.0,0.0,0.0,0.0,0.0,0.0,0.0,0.0,0.0,0.0,0.0,0.0,0.0,0.0,0.0,0.0,0.0,0.0,0.0,0.0,0.0,0.0,0.0,0.0,0.0,0.0,0.0,0.0,0.0,0.0,0.0,0.0,0.0,0.0,0.0,0.0,0.0,0.0,0.0,0.0,0.0,0.0,0.0,0.0,0.0,0.0,0.0,0.0,0.0,0.0,0.0,0.0,0.0,0.0,0.0,1.0451,1.0547,1.1073,0.0,0.0,0.0,0.0,0.0,0.0,0.0,0.0,0.0,0.0,0.0,0.0,0.0,0.0,0.0,0.0,0.0,0.0,0.0,0.0,0.0,0.0,0.0,0.0,0.0,0.0,0.0,0.0,0.0,0.0,0.0,0.0,0.0,0.0,0.0,0.0,0.0,0.0,0.0,0.0,0.0,0.0,0.0,0.0,0.0,0.0,0.0,0.0,0.0,0.0,0.0,0.0,0.0,0.0,0.0,0.0,0.0,0.0,0.0,0.0,0.0,0.0,0.0,0.0,0.0,0.0,0.0,0.0,0.0,0.0,0.0,0.0,0.0,0.0,0.0,0.0,0.0,0.0,0.0,0.0,0.0,0.0,0.0,0.0,0.0,0.0,0.0,0.0,0.0,0.0,0.0,0.0,0.0,0.0,0.0,0.0,0.0,0.0,0.0,0.0,0.0,0.0,0.0,0.0,0.0,0.0,0.0,0.0,0.0,0.0,0.9037,0.8757,0.8738,0.0,0.954,0.0,0.0,0.0,0.0,0.0,0.0,0.0,0.0,0.0,0.0,0.0,0.0,0.0,0.0,0.0,0.0,0.0,0.0,0.0,0.0,0.0,0.0,0.0,0.0,0.0,0.0,0.0,0.0,0.0,0.0,0.0,0.0,0.0,0.0,0.0,0.0,0.0,0.0,0.0,0.0,0.0,0.0,0.0,0.0,0.0,0.0,0.0,0.0,0.0,0.0,0.0,0.0,0.0,0.0,0.0,0.0,0.0,0.0,0.0,0.0,0.0,0.0,0.0,0.0,0.0,0.0,0.0,0.0,0.0,0.0,0.0,0.0,0.0,0.0,0.0,0.0,0.0,0.0,0.0,0.0,0.0,0.0,0.0,0.0,0.0,0.0,0.0,0.0,0.0,0.0,0.0,0.0,0.0,0.0,0.0,0.0,0.0,0.0,0.0,0.0,0.0,0.0,0.0,0.0,0.0,0.0,0.0,0.0,0.0,0.0,0.0,0.6613,0.7027,0.7428,0.0,0.0,0.0,0.0,0.0,0.0,0.0,0.0,0.0,0.0,0.0,0.0,0.0,0.0,0.0,0.0,0.0,0.0,0.0,0.0,0.0,0.0,0.0,0.0,0.0,0.0,0.0,0.0,0.0,0.0,0.0,0.0,0.0,0.0,0.0,0.0,0.0,0.0,0.0,0.0,0.0,0.0,0.0,0.0,0.0,0.0,0.0,0.0,0.0,0.0,0.0,0.0,0.0,0.0,0.0,0.0,0.0,0.0,0.0,0.0,0.0,0.0,0.0,0.0,0.0,0.0,0.0,0.0,0.0,0.0,0.0,0.0,0.0,0.0,0.0,0.0,0.0,0.0,0.0,0.0,0.0,0.0,0.0,0.0,0.0,0.0,0.0,0.0,0.0,0.0,0.0,0.0,0.0,0.0,0.0,0.0,0.0,0.0,0.0,0.0,0.0,0.0,0.0,0.0,0.0,0.0,0.0,0.0,0.0,0.0,0.5624,0.0,0.4462,0.5057,0.5689,0.6216,0.0,0.0,0.0,0.0,0.0,0.0,0.0,0.0,0.0,0.0,0.0,0.0,0.0,0.0,0.0,0.0,0.0,0.0,0.0,0.0,0.0,0.0,0.0,0.0,0.0,0.0,0.0,0.0,0.0,0.0,0.0,0.0,0.0,0.0,0.0,0.0,0.0,0.0,0.0,0.0,0.0,0.0,0.0,0.0,0.0,0.0,0.0,0.0,0.0,0.0,0.0,0.0,0.0,0.0,0.0,0.0,0.0,0.0,0.0,0.0,0.0,0.0,0.0,0.0,0.0,0.0,0.0,0.0,0.0,0.0,0.0,0.0,0.0,0.0,0.0,0.0,0.0,0.0,0.0,0.0,0.0,0.0,0.0,0.0,0.0,0.0,0.0,0.0,0.0,0.0,0.0,0.0,0.0,0.0,0.0,0.0,0.0,0.0,0.0,0.0,0.0,0.0,0.0,0.0,0.0,0.0,0.0,0.0,0.0,0.3395,0.2726,0.2147,0.2738,0.3586,0.0,0.0,0.0,0.0,0.0,0.0,0.0,0.0,0.0,0.0,0.0,0.0,0.0,0.0,0.0,0.0,0.0,0.0,0.0,0.0,0.0,0.0,0.0,0.0,0.0,0.0,0.0,0.0,0.0,0.0,0.0,0.0,0.0,0.0,0.0,0.0,0.0,0.0,0.0,0.0,0.0,0.0,0.0,0.0,0.0,0.0,0.0,0.0,0.0,0.0,0.0,0.0,0.0,0.0,0.0,0.0,0.0,0.0,0.0,0.0,0.0,0.0,0.0,0.0,0.0,0.0,0.0,0.0,0.0,0.0,0.0,0.0,0.0,0.0,0.0,0.0,0.0,0.0,0.0,0.0,0.0,0.0,0.0,0.0,0.0,0.0,0.0,0.0,0.0,0.0,0.0,0.0,0.0,0.0,0.0,0.0,0.0,0.0,0.0,0.0,0.0,0.0,0.0,0.0,0.0,0.0,0.0,0.0,0.0,0.188,0.0395,-0.0456,-0.0657,0.0346,0.1519,0.0,0.0,0.0,0.0,0.0,0.0,0.0,0.0,0.0,0.0,0.0,0.0,0.0,0.0,0.0,0.0,0.0,0.0,0.0,0.0,0.0,0.0,0.0,0.0,0.0,0.0,0.0,0.0,0.0,0.0,0.0,0.0,0.0,0.0,0.0,0.0,0.0,0.0,0.0,0.0,0.0,0.0,0.0,0.0,0.0,0.0,0.0,0.0,0.0,0.0,0.0,0.0,0.0,0.0,0.0,0.0,0.0,0.0,0.0,0.0,0.0,0.0,0.0,0.0,0.0,0.0,0.0,0.0,0.0,0.0,0.0,0.0,0.0,0.0,0.0,0.0,0.0,0.0,0.0,0.0,0.0,0.0,0.0,0.0,0.0,0.0,0.0,0.0,0.0,0.0,0.0,0.0,0.0,0.0,0.0,0.0,0.0,0.0,0.0,0.0,0.0,0.0,0.0,0.0,0.0,0.0,0.0,0.0,0.0,-0.0759,0.0,-0.3402,0.0,-0.2101,-0.0689,0.0,0.0,0.0,0.0,0.0,0.0,0.0,0.0,0.0,0.0,0.0,0.0,0.0,0.0,0.0,0.0,0.0,0.0,0.0,0.0,0.0,0.0,0.0,0.0,0.0,0.0,0.0,0.0,0.0,0.0,0.0,0.0,0.0,0.0,0.0,0.0,0.0,0.0,0.0,0.0,0.0,0.0,0.0,0.0,0.0,0.0,0.0,0.0,0.0,0.0,0.0,0.0,0.0,0.0,0.0,0.0,0.0,0.0,0.0,0.0,0.0,0.0,0.0,0.0,0.0,0.0,0.0,0.0,0.0,0.0,0.0,0.0,0.0,0.0,0.0,0.0,0.0,0.0,0.0,0.0,0.0,0.0,0.0,0.0,0.0,0.0,0.0,0.0,0.0,0.0,0.0,0.0,0.0,0.0,0.0,0.0,0.0,0.0,0.0,0.0,0.0,0.0,0.0,0.0,0.0,0.0,0.0,0.0,-0.1093,-0.3819,-0.5329,-0.5901,-0.5508,-0.4587,-0.3073,0.0,0.0,0.0,0.0,0.0,0.0,0.0,0.0,0.0,0.0,0.0,0.0,0.0,0.0,0.0,0.0,0.0,0.0,0.0,0.0,0.0,0.0,0.0,0.0,0.0,0.0,0.0,0.0,0.0,0.0,0.0,0.0,0.0,0.0,0.0,0.0,0.0,0.0,0.0,0.0,0.0,0.0,0.0,0.0,0.0,0.0,0.0,0.0,0.0,0.0,0.0,0.0,0.0,0.0,0.0,0.0,0.0,0.0,0.0,0.0,0.0,0.0,0.0,0.0,0.0,0.0,0.0,0.0,0.0,0.0,0.0,0.0,0.0,0.0,0.0,0.0,0.0,0.0,0.0,0.0,0.0,0.0,0.0,0.0,0.0,0.0,0.0,0.0,0.0,0.0,0.0,0.0,0.0,0.0,0.0,0.0,0.0,0.0,0.0,0.0,0.0,0.0,0.0,0.0,0.0,0.0,0.0,0.0,0.0,-0.6157,-0.7503,-0.807,-0.7805,-0.6805,-0.5181,0.0,0.0,0.0,0.0,0.0,0.0,0.0,0.0,0.0,0.0,0.0,0.0,0.0,0.0,0.0,0.0,0.0,0.0,0.0,0.0,0.0,0.0,0.0,0.0,0.0,0.0,0.0,0.0,0.0,0.0,0.0,0.0,0.0,0.0,0.0,0.0,0.0,0.0,0.0,0.0,0.0,0.0,0.0,0.0,0.0,0.0,0.0,0.0,0.0,0.0,0.0,0.0,0.0,0.0,0.0,0.0,0.0,0.0,0.0,0.0,0.0,0.0,0.0,0.0,0.0,0.0,0.0,0.0,0.0,0.0,0.0,0.0,0.0,0.0,0.0,0.0,0.0,0.0,0.0,0.0,0.0,0.0,0.0,0.0,0.0,0.0,0.0,0.0,0.0,0.0,0.0,0.0,0.0,0.0,0.0,0.0,0.0,0.0,0.0,0.0,0.0,0.0,0.0,0.0,0.0,0.0,0.0,0.0,0.0,-0.8973,-0.9517,-0.9926,-1.0158,-0.8866,-0.7098,-0.4867,0.0,0.0,0.0,0.0,0.0,0.0,0.0,0.0,0.0,0.0,0.0,0.0,0.0,0.0,0.0,0.0,0.0,0.0,0.0,0.0,0.0,0.0,0.0,0.0,0.0,0.0,0.0,0.0,0.0,0.0,0.0,0.0,0.0,0.0,0.0,0.0,0.0,0.0,0.0,0.0,0.0,0.0,0.0,0.0,0.0,0.0,0.0,0.0,0.0,0.0,0.0,0.0,0.0,0.0,0.0,0.0,0.0,0.0,0.0,0.0,0.0,0.0,0.0,0.0,0.0,0.0,0.0,0.0,0.0,0.0,0.0,0.0,0.0,0.0,0.0,0.0,0.0,0.0,0.0,0.0,0.0,0.0,0.0,0.0,0.0,0.0,0.0,0.0,0.0,0.0,0.0,0.0,0.0,0.0,0.0,0.0,0.0,0.0,0.0,0.0,0.0,0.0,0.0,0.0,0.0,0.0,0.0,0.0,-1.2079,-1.154,-1.163,-1.2314,-1.0839,-0.8973,0.0,0.0,0.0,0.0,0.0,0.0,0.0,0.0,0.0,0.0,0.0,0.0,0.0,0.0,0.0,0.0,0.0,0.0,0.0,0.0,0.0,0.0,0.0,0.0,0.0,0.0,0.0,0.0,0.0,0.0,0.0,0.0,0.0,0.0,0.0,0.0,0.0,0.0,0.0,0.0,0.0,0.0,0.0,0.0,0.0,0.0,0.0,0.0,0.0,0.0,0.0,0.0,0.0,0.0,0.0,0.0,0.0,0.0,0.0,0.0,0.0,0.0,0.0,0.0,0.0,0.0,0.0,0.0,0.0,0.0,0.0,0.0,0.0,0.0,0.0,0.0,0.0,0.0,0.0,0.0,0.0,0.0,0.0,0.0,0.0,0.0,0.0,0.0,0.0,0.0,0.0,0.0,0.0,0.0,0.0,0.0,0.0,0.0,0.0,0.0,0.0,0.0,0.0,0.0,0.0,0.0,0.0,0.0,0.0,-1.4328,-1.436,-1.4105,-1.3648,-1.3003,-1.1521,0.0,0.0,0.0,0.0,0.0,0.0,0.0,0.0,0.0,0.0,0.0,0.0,0.0,0.0,0.0,0.0,0.0,0.0,0.0,0.0,0.0,0.0,0.0,0.0,0.0,0.0,0.0,0.0,0.0,0.0,0.0,0.0,0.0,0.0,0.0,0.0,0.0,0.0,0.0,0.0,0.0,0.0,0.0,0.0,0.0,0.0,0.0,0.0,0.0,0.0,0.0,0.0,0.0,0.0,0.0,0.0,0.0,0.0,0.0,0.0,0.0,0.0,0.0,0.0,0.0,0.0,0.0,0.0,0.0,0.0,0.0,0.0,0.0,0.0,0.0,0.0,0.0,0.0,0.0,0.0,0.0,0.0,0.0,0.0,0.0,0.0,0.0,0.0,0.0,0.0,0.0,0.0,0.0,0.0,0.0,0.0,0.0,0.0,0.0,0.0,0.0,0.0,0.0,0.0,0.0,0.0,0.0,0.0,-1.3608,-1.5535,-1.6003,-1.608,-1.5799,-1.4878,-1.334,0.0,0.0,0.0,0.0,0.0,0.0,0.0,0.0,0.0,0.0,0.0,0.0,0.0,0.0,0.0,0.0,0.0,0.0,0.0,0.0,0.0,0.0,0.0,0.0,0.0,0.0,0.0,0.0,0.0,0.0,0.0,0.0,0.0,0.0,0.0,0.0,0.0,0.0,0.0,0.0,0.0,0.0,0.0,0.0,0.0,0.0,0.0,0.0,0.0,0.0,0.0,0.0,0.0,0.0,0.0,0.0,0.0,0.0,0.0,0.0,0.0,0.0,0.0,0.0,0.0,0.0,0.0,0.0,0.0,0.0,0.0,0.0,0.0,0.0,0.0,0.0,0.0,0.0,0.0,0.0,0.0,0.0,0.0,0.0,0.0,0.0,0.0,0.0,0.0,0.0,0.0,0.0,0.0,0.0,0.0,0.0,0.0,0.0,0.0,0.0,0.0,0.0,0.0,0.0,0.0,0.0,0.0,0.0,-1.4463,-1.6145,-1.6946,-1.7639,-1.8112,-1.6494,-1.4761,0.0,0.0,0.0,0.0,0.0,0.0,0.0,0.0,0.0,0.0,0.0,0.0,0.0,0.0,0.0,0.0,0.0,0.0,0.0,0.0,0.0,0.0,0.0,0.0,0.0,0.0,0.0,0.0,0.0,0.0,0.0,0.0,0.0,0.0,0.0,0.0,0.0,0.0,0.0,0.0,0.0,0.0,0.0,0.0,0.0,0.0,0.0,0.0,0.0,0.0,0.0,0.0,0.0,0.0,0.0,0.0,0.0,0.0,0.0,0.0,0.0,0.0,0.0,0.0,0.0,0.0,0.0,0.0,0.0,0.0,0.0,0.0,0.0,0.0,0.0,0.0,0.0,0.0,0.0,0.0,0.0,0.0,0.0,0.0,0.0,0.0,0.0,0.0,0.0,0.0,0.0,0.0,0.0,0.0,0.0,0.0,0.0,0.0,0.0,0.0,0.0,0.0,0.0,0.0,0.0,0.0,0.0,0.0,-1.5977,-1.724,-1.8104,-1.8598,-1.8708,-1.7946,-1.6881,0.0,0.0,0.0,0.0,0.0,0.0,0.0,0.0,0.0,0.0,0.0,0.0,0.0,0.0,0.0,0.0,0.0,0.0,0.0,0.0,0.0,0.0,0.0,0.0,0.0,0.0,0.0,0.0,0.0,0.0,0.0,0.0,0.0,0.0,0.0,0.0,0.0,0.0,0.0,0.0,0.0,0.0,0.0,0.0,0.0,0.0,0.0,0.0,1.125,0.0,0.0,0.0,0.0,0.0,0.0,0.0,0.0,0.0,0.0,0.0,0.0,0.0,0.0,0.0,0.0,0.0,0.0,0.0,0.0,0.0,0.0,0.0,0.0,0.0,0.0,0.0,0.0,0.0,0.0,0.0,0.0,0.0,0.0,0.0,0.0,0.0,0.0,0.0,0.0,0.0,0.0,0.0,0.0,0.0,0.0,0.0,0.0,0.0,0.0,0.0,0.0,0.0,0.0,0.0,0.0,0.0,0.0,0.0,-1.6651,-1.7706,-1.8516,-1.9024,-1.9244,-1.8907,-1.8057,0.0,0.0,0.0,0.0,0.0,0.0,0.0,0.0,0.0,0.0,0.0,0.0,0.0,0.0,0.0,0.0,0.0,0.0,0.0,0.0,0.0,0.0,0.0,0.0,0.0,0.0,0.0,0.0,0.0,0.0,0.0,0.0,0.0,0.0,0.0,0.0,0.0,0.0,0.0,0.0,0.0,0.0,0.0,0.0,0.0,0.0,0.0,0.0,0.0,0.0,0.0,0.0,0.0,0.0,0.0,0.0,0.0,0.0,0.0,0.0,0.0,0.0,0.0,0.0,0.0,0.0,0.0,0.0,0.0,0.0,0.0,0.0,0.0,0.0,0.0,0.0,0.0,0.0,0.0,0.0,0.0,0.0,0.0,0.0,0.0,0.0,0.0,0.0,0.0,0.0,0.0,0.0,0.0,0.0,0.0,0.0,0.0,0.0,0.0,0.0,0.0,0.0,0.0,0.0,0.0,0.0,0.0,-1.5682,-1.704,-1.7913,-1.8693,-1.9339,-1.9782,-1.9693,-1.8932,-1.7426,0.0,0.0,0.0,0.0,0.0,0.0,0.0,0.0,0.0,0.0,0.0,0.0,0.0,0.0,0.0,0.0,0.0,0.0,0.0,0.0,0.0,0.0,0.0,0.0,0.0,0.0,0.0,0.0,0.0,0.0,0.0,0.0,0.0,0.0,0.0,0.0,0.0,0.0,1.0059,0.9819,0.0,0.0,0.0,0.0,0.0,0.0,0.0,0.0,0.978,0.0,0.0,0.0,0.0,0.0,0.0,0.0,0.0,0.0,0.0,0.0,0.0,0.0,0.0,0.0,0.0,0.0,0.0,0.0,0.0,0.0,0.0,0.0,0.0,0.0,0.0,0.0,0.0,0.0,0.0,0.0,0.0,0.0,0.0,0.0,0.0,0.0,0.0,0.0,0.0,0.0,0.0,0.0,0.0,0.0,0.0,0.0,0.0,0.0,0.0,0.0,0.0,0.0,0.0,0.0,0.0,-1.438,-1.6539,-1.7786,-1.8072,-1.9372,-2.011,-2.0195,-2.0533,-2.021,-1.905,0.0,0.0,0.0,0.0,0.0,0.0,0.0,0.0,0.0,0.0,0.0,0.0,0.0,0.0,0.0,0.0,0.0,0.0,0.0,0.0,0.0,0.0,0.0,0.0,0.0,0.0,0.0,0.0,0.0,0.0,0.0,0.0,0.0,0.0,0.0,0.0,0.0,0.0,0.0,0.8738,0.8633,0.0,0.0,0.0,0.0,0.0,0.0,0.0,0.0,0.9197,0.0,0.0,0.0,0.0,0.0,0.0,0.0,0.0,0.0,0.0,0.0,0.0,0.0,0.0,0.0,0.0,0.0,0.0,0.0,0.0,0.0,0.0,0.0,0.0,0.0,0.0,0.0,0.0,0.0,0.0,0.0,0.0,0.0,0.0,0.0,0.0,0.0,0.0,0.0,0.0,0.0,0.0,0.0,0.0,0.0,0.0,0.0,0.0,0.0,0.0,0.0,0.0,0.0,0.0,0.0,-1.4693,-1.6771,-1.7959,-1.8112,-1.9343,-2.0089,-2.0297,-2.0616,-2.0424,0.0,0.0,0.0,0.0,0.0,0.0,0.0,0.0,0.0,0.0,0.0,0.0,0.0,0.0,0.0,0.0,0.0,0.0,0.0,0.0,0.0,0.0,0.0,0.0,0.0,0.0,0.0,0.0,0.0,0.0,0.0,0.0,0.0,0.0,0.0,0.0,0.0,0.0,0.0,0.0,0.766,0.7466,0.7158,0.0,0.0,0.0,0.0,0.0,0.0,0.7412,0.7945,0.0,0.0,0.0,0.0,0.0,0.0,0.0,0.0,0.0,0.0,0.0,0.0,0.0,0.0,0.0,0.0,0.0,0.0,0.0,0.0,0.0,0.0,0.0,0.0,0.0,0.0,0.0,0.0,0.0,0.0,0.0,0.0,0.0,0.0,0.0,0.0,0.0,0.0,0.0,0.0,0.0,0.0,0.0,0.0,0.0,0.0,0.0,0.0,0.0,0.0,0.0,0.0,0.0,0.0,0.0,-1.4761,-1.6731,-1.7894,-1.8131,-1.9229,-1.9965,-2.0297,-2.0617,-2.0558,0.0,0.0,0.0,0.0,0.0,0.0,0.0,0.0,0.0,0.0,0.0,0.0,0.0,0.0,0.0,0.0,0.0,0.0,0.0,0.0,0.0,0.0,0.0,0.0,0.0,0.0,0.0,0.0,0.0,0.0,0.0,0.0,0.0,0.0,0.0,0.0,0.0,0.0,0.0,0.0,0.0,0.6318,0.6091,0.5856,0.0,0.0,0.0,0.0,0.5559,0.6096,0.0,0.0,0.0,0.0,0.0,0.0,0.0,0.0,0.0,0.0,0.0,0.0,0.0,0.0,0.0,0.0,0.0,0.0,0.0,0.0,0.0,0.0,0.0,0.0,0.0,0.0,0.0,0.0,0.0,0.0,0.0,0.0,0.0,0.0,0.0,0.0,0.0,0.0,0.0,0.0,0.0,0.0,0.0,0.0,0.0,0.0,0.0,0.0,0.0,0.0,0.0,0.0,0.0,0.0,0.0,0.0,-1.4741,-1.6526,-1.7659,-1.8151,-1.948,-2.0246,-2.0299,-2.1133,-2.1122,0.0,0.0,0.0,0.0,0.0,0.0,0.0,0.0,0.0,0.0,0.0,0.0,0.0,0.0,0.0,0.0,0.0,0.0,0.0,0.0,0.0,0.0,0.0,0.0,0.0,0.0,0.0,0.0,0.0,0.0,0.0,0.0,0.0,0.0,0.0,0.0,0.0,0.0,0.0,0.0,0.0,0.5539,0.5054,0.5136,0.5221,0.0,0.0,0.423,0.3563,0.4589,0.0,0.0,0.0,0.0,0.0,0.0,0.0,0.0,0.0,0.0,0.0,0.0,0.0,0.0,0.0,0.0,0.0,0.0,0.0,0.0,0.0,0.0,0.0,0.0,0.0,0.0,0.0,0.0,0.0,0.0,0.0,0.0,0.0,0.0,0.0,0.0,0.0,0.0,0.0,0.0,0.0,0.0,0.0,0.0,0.0,0.0,0.0,0.0,0.0,0.0,0.0,0.0,0.0,0.0,0.0,-1.4086,-1.4668,-1.6074,-1.7246,-1.8092,-1.9014,-1.976,-2.0297,-2.0991,-2.0995,0.0,0.0,0.0,0.0,0.0,0.0,0.0,0.0,0.0,0.0,0.0,0.0,0.0,0.0,0.0,0.0,0.0,0.0,0.0,0.0,0.0,0.0,0.0,0.0,0.0,0.0,0.0,0.0,0.0,0.0,0.0,0.0,0.0,0.0,0.0,0.0,0.0,0.0,0.0,0.0,0.0,0.0,0.365,0.3645,0.0,0.0,0.0,0.3004,0.2543,0.0,0.0,0.0,0.0,0.0,0.0,0.0,0.0,0.0,0.0,0.0,0.0,0.0,0.0,0.0,0.0,0.0,0.0,0.0,0.0,0.0,0.0,0.0,0.0,0.0,0.0,0.0,0.0,0.0,0.0,0.0,0.0,0.0,0.0,0.0,0.0,0.0,0.0,0.0,0.0,0.0,0.0,0.0,0.0,0.0,0.0,0.0,0.0,0.0,0.0,0.0,0.0,0.0,0.0,0.0,0.0,0.0,-1.4582,-1.5636,-1.6798,-1.8052,-1.8631,-1.9292,-2.0124,-2.0682,0.0,0.0,0.0,0.0,0.0,0.0,0.0,0.0,0.0,0.0,0.0,0.0,0.0,0.0,0.0,0.0,0.0,0.0,0.0,0.0,0.0,0.0,0.0,0.0,0.0,0.0,0.0,0.221,0.0,0.0,0.0,0.0,0.0,0.0,0.0,0.0,0.0,0.0,0.0,0.0,0.0,0.0,0.269,0.2563,0.2456,0.2329,0.0,0.0,0.1778,0.1615,0.1933,0.2292,0.0,0.0,0.0,0.0,0.0,0.0,0.0,0.0,0.0,0.0,0.0,0.0,0.0,0.0,0.0,0.0,0.0,0.0,0.0,0.0,0.0,0.0,0.0,0.0,0.0,0.0,0.0,0.0,0.0,0.0,0.0,0.0,0.0,0.0,0.0,0.0,0.0,0.0,0.0,0.0,0.0,0.0,0.0,0.0,0.0,0.0,0.0,0.0,0.0,0.0,0.0,0.0,0.0,0.0,0.0,-1.4488,-1.5199,-1.6371,-1.8033,-1.8626,-1.9169,-1.9744,-2.0243,-2.0177,0.0,0.0,0.0,0.0,0.0,0.0,0.0,0.0,0.0,0.0,0.0,0.0,0.0,0.0,0.0,0.0,0.0,0.0,0.0,0.0,0.0,0.0,0.0,0.0,0.0,0.0,0.0,0.0,0.0,0.0,0.0,0.0,0.0,0.0,0.0,0.0,0.0,0.0,0.0,0.0,0.0,0.2226,0.2157,0.2135,0.2041,0.0,0.0,0.0585,0.0539,0.1021,0.1307,0.1085,0.0,0.0,0.0,0.0,0.0,0.0,0.0,0.0,0.0,0.0,0.0,0.0,0.0,0.0,0.0,0.0,0.0,0.0,0.0,0.0,0.0,0.0,0.0,0.0,0.0,0.0,0.0,0.0,0.0,0.0,0.0,0.0,0.0,0.0,0.0,0.0,0.0,0.0,0.0,0.0,0.0,0.0,0.0,0.0,0.0,0.0,0.0,0.0,0.0,0.0,0.0,0.0,0.0,-1.3281,-1.3816,-1.4599,-1.5672,-1.7024,-1.794,-1.865,-1.9188,-1.9914,-2.0096,0.0,0.0,0.0,0.0,0.0,0.0,0.0,0.0,0.0,0.0,0.0,0.0,0.0,0.0,0.0,0.0,0.0,0.0,0.0,0.0,0.0,0.0,0.0,0.0,0.0,0.0,0.0,0.0,-0.0632,-0.0295,0.0082,0.0,0.0,0.0,0.0,0.0,0.0,0.0,0.0,0.0,0.0,0.098,0.1015,0.1002,0.0,0.0,0.0501,0.0266,0.0,0.0222,0.0403,0.045,0.1076,0.0,0.0,0.0,0.0,0.0,0.0,0.0,0.0,0.0,0.0,0.0,0.0,0.0,0.0,0.0,0.0,0.0,0.0,0.0,0.0,0.0,0.0,0.0,0.0,0.0,0.0,0.0,0.0,0.0,0.0,0.0,0.0,0.0,0.0,0.0,0.0,0.0,0.0,0.0,0.0,0.0,0.0,0.0,0.0,0.0,0.0,0.0,0.0,0.0,0.0,0.0,0.0,-1.337,-1.3623,-1.4339,-1.5253,-1.6391,-1.7354,-1.8171,-1.8878,-1.9503,-1.9686,0.0,0.0,0.0,0.0,0.0,0.0,0.0,0.0,0.0,0.0,0.0,0.0,0.0,0.0,0.0,0.0,0.0,0.0,0.0,0.0,0.0,0.0,0.0,0.0,0.0,0.0,0.0,0.0,-0.1672,-0.1226,-0.081,0.0,0.0,0.0,0.0,0.0,0.0,0.0,0.0,0.0,0.0,0.0143,0.0071,0.0,-0.0107,-0.034,-0.0269,-0.0269,-0.0566,-0.0482,-0.0281,-0.0062,0.0,0.0,0.0,0.0,0.0,0.0,0.0,0.0,0.0,0.0,0.0,0.0,0.0,0.0,0.0,0.0,0.0,0.0,0.0,0.0,0.0,0.0,0.0,0.0,0.0,0.0,0.0,0.0,0.0,0.0,0.0,0.0,0.0,0.0,0.0,0.0,0.0,0.0,0.0,0.0,0.0,0.0,0.0,0.0,0.0,0.0,0.0,0.0,0.0,0.0,0.0,0.0,0.0,0.0,-1.4177,-1.4485,-1.5219,-1.6327,-1.6995,-1.7827,-1.8817,-1.8912,-1.8801,-1.8536,0.0,0.0,0.0,0.0,0.0,0.0,0.0,0.0,0.0,0.0,0.0,0.0,0.0,0.0,0.0,0.0,0.0,0.0,0.0,0.0,0.0,0.0,0.0,0.0,0.0,0.0,-0.2926,-0.2233,-0.176,0.0,0.0,0.0,0.0,0.0,0.0,0.0,0.0,0.0,0.0,0.0,-0.0112,-0.0438,-0.0656,-0.0894,-0.1221,-0.1278,-0.1266,-0.1298,-0.1,-0.0735,0.0,0.0,0.0,0.0,0.0,0.0,0.0,0.0,0.0,0.0,0.0,0.0,0.0,0.0,0.0,0.0,0.0,0.0,0.0,0.0,0.0,0.0,0.0,0.0,0.0,0.0,0.0,0.0,-2.2959,0.0,0.0,0.0,0.0,0.0,0.0,0.0,0.0,0.0,0.0,0.0,-1.5573,-1.5547,0.0,0.0,0.0,0.0,0.0,0.0,0.0,0.0,0.0,0.0,0.0,0.0,-1.3542,-1.3497,-1.3871,-1.4272,-1.4676,-1.6,-1.6865,-1.7225,-1.7966,-1.821,-1.792,0.0,0.0,0.0,0.0,0.0,0.0,0.0,0.0,0.0,0.0,0.0,0.0,0.0,0.0,0.0,0.0,0.0,0.0,0.0,0.0,0.0,0.0,0.0,0.0,0.0,-0.4453,0.0,0.0,0.0,0.0,0.0,0.0,0.0,0.0,0.0,0.0,0.0,-0.0246,-0.0367,-0.0525,-0.0713,-0.1061,-0.1274,-0.1546,0.0,0.0,0.0,0.0,0.0,0.0,0.0,0.0,0.0,0.0,0.0,0.0,0.0,0.0,0.5087,0.5892,0.64,0.6749,0.678,0.0,0.0,0.0,0.0,0.0,0.0,0.0,0.0,0.0,0.0,0.0,0.0,0.0,0.0,0.0,0.0,-2.2375,0.0,0.0,0.0,0.0,0.0,0.0,0.0,0.0,-1.6029,-1.5647,-1.5506,-1.5506,-1.549,0.0,-1.5684,-1.5581,0.0,0.0,0.0,0.0,0.0,0.0,0.0,0.0,-1.3485,-1.3232,-1.3598,-1.3792,-1.3839,-1.5106,-1.6003,-1.64,-1.7334,-1.7722,-1.7457,-1.7434,-1.7153,0.0,0.0,0.0,0.0,0.0,0.0,0.0,0.0,0.0,0.0,0.0,0.0,0.0,0.0,0.0,0.0,0.0,0.0,0.0,0.0,0.0,0.0,0.0,-0.4791,0.0,0.0,0.0,0.0,0.0,0.0,0.0,0.0,0.0,-0.0707,-0.056,-0.0583,-0.0678,-0.1068,-0.1477,-0.1794,0.0,0.0,0.0,0.0,0.0,0.0,0.0,-0.1738,-0.1395,-0.0847,-0.0339,0.0,0.0554,0.1391,0.2581,0.0,0.0,0.561,0.6153,0.6437,0.6433,0.6765,0.7086,0.7155,0.7561,0.816,0.0,0.0,0.0,0.0,0.0,0.0,0.0,0.0,-2.4298,-2.3764,0.0,-2.2505,0.0,0.0,0.0,0.0,0.0,0.0,0.0,0.0,-1.5717,-1.5584,-1.5853,-1.5882,-1.5892,-1.5902,-1.6122,-1.5982,-1.5492,-1.446,0.0,0.0,0.0,0.0,0.0,0.0,-1.3644,-1.3351,-1.3613,-1.3755,-1.3768,-1.4376,-1.5219,-1.6293,-1.6904,-1.7169,-1.7117,-1.6788,-1.6257,-1.5452,-1.5734,0.0,0.0,0.0,0.0,0.0,0.0,0.0,0.0,0.0,0.0,0.0,0.0,0.0,0.0,0.0,0.0,0.0,0.0,0.0,0.0,-0.538,0.0,0.0,0.0,0.0,0.0,0.0,0.0,0.0,0.0,0.0,-0.0815,-0.0868,-0.0947,-0.0986,0.0,0.0,0.0,0.0,-0.3672,-0.3571,-0.3699,-0.3694,-0.3332,-0.2512,-0.1821,-0.1403,0.0,0.0,0.0219,0.0548,0.0877,0.1279,0.275,0.4343,0.5768,0.6169,0.6316,0.6316,0.6474,0.665,0.6861,0.7136,0.747,-2.7017,0.0,0.0,0.0,0.0,-2.5871,-2.6317,-2.6747,-2.5726,-2.5136,-2.481,-2.3435,0.0,0.0,0.0,0.0,0.0,0.0,-1.6375,-1.6301,-1.5918,-1.57,-1.5555,-1.5555,-1.5526,-1.5555,-1.5623,-1.5284,-1.4579,-1.351,-1.3465,-1.4318,0.0,0.0,0.0,0.0,-1.3016,-1.2594,-1.2939,-1.3152,-1.3152,-1.3742,-1.4411,-1.5163,-1.5353,-1.5443,-1.5419,-1.533,-1.5226,-1.5116,-1.4763,0.0,0.0,0.0,0.0,0.0,0.0,0.0,0.0,0.0,0.0,0.0,0.0,0.0,0.0,0.0,0.0,0.0,0.0,0.0,-0.6669,-0.5612,-0.4898,0.0,0.0,0.0,0.0,0.0,0.0,0.0,0.0,0.0,-0.066,-0.1062,-0.1632,0.0,0.0,-0.3291,-0.394,-0.4191,-0.4442,-0.4735,0.0,0.0,0.0,-0.3474,-0.2568,-0.2225,-0.1121,-0.0192,0.0038,0.0154,0.05,0.1343,0.2504,0.3699,0.4871,0.5781,0.6239,0.628,0.6359,0.6397,0.6473,0.6545,0.6855,-2.7682,-2.6826,-2.6928,-2.6759,-2.647,-2.6758,-2.7042,-2.7267,-2.6233,-2.5553,-2.5062,-2.3794,-2.2432,-2.1004,-1.9926,0.0,0.0,0.0,-1.6116,-1.594,-1.5787,-1.5524,-1.5137,-1.4869,-1.4659,-1.4469,-1.4212,-1.3859,-1.3368,-1.2587,-1.2417,-1.2887,0.0,0.0,-1.1798,-1.2061,-1.2036,-1.1665,-1.1916,-1.2197,-1.2452,-1.3328,-1.398,-1.4329,-1.4583,-1.4583,-1.4352,-1.4329,-1.4272,-1.4156,-1.3909,-1.3515,0.0,0.0,0.0,0.0,0.0,0.0,0.0,0.0,0.0,0.0,0.0,-1.0161,0.0,0.0,0.0,0.0,-0.7154,-0.6921,-0.6252,-0.5749,0.0,0.0,0.0,0.0,0.0,0.0,0.0,-0.2669,-0.1658,-0.0961,-0.0691,-0.1129,-0.1766,-0.2584,-0.3522,-0.4291,-0.4673,0.0,-0.5081,-0.5122,-0.5002,-0.4888,-0.4829,-0.3673,-0.2476,-0.1653,-0.0803,-0.0196,0.0,0.0,0.0,0.0941,0.2151,0.3279,0.3945,0.5237,0.63,0.63,0.63,0.63,0.63,0.63,0.649,-2.8199,-2.762,-2.6887,-2.6796,-2.7144,-2.7072,-2.7227,-2.7388,-2.6017,-2.5187,-2.4767,-2.3684,-2.2352,-2.0787,-1.9028,0.0,0.0,-1.6218,-1.5816,-1.542,-1.542,-1.5186,-1.4757,-1.4129,-1.3569,-1.3086,-1.2427,-1.2067,-1.1991,-1.1704,-1.1344,-1.0947,-1.0454,-1.0386,-1.0685,-1.0864,-1.0889,-1.0737,-1.0788,-1.1091,-1.174,-1.2938,-1.3555,-1.3545,-1.4109,-1.4099,-1.3592,-1.3555,-1.3304,-1.2764,-1.3035,-1.2661,-1.1527,0.0,0.0,0.0,0.0,0.0,0.0,0.0,0.0,0.0,0.0,0.0,0.0,0.0,0.0,0.0,-0.6276,0.0,-0.5567,-0.5903,0.0,0.0,0.0,-0.5639,-0.5246,-0.3992,-0.3056,-0.2771,0.0,0.0,0.0,0.0,-0.1609,-0.2348,-0.4025,-0.5158,-0.4991,-0.546,-0.5592,-0.4971,-0.5036,-0.499,-0.4573,-0.3271,-0.1822,0.0,0.0,0.0,0.0,0.0,0.0,0.0,0.1721,0.3124,0.3124,0.4844,0.63,0.63,0.63,0.63,0.63,0.63,0.6377,-2.8049,-2.8252,-2.703,-2.6895,-2.7435,-2.6876,-2.6695,-2.6613,-2.5218,-2.4523,-2.434,-2.2874,-2.1439,-1.9981,-1.8246,-1.7296,-1.6994,-1.6024,-1.5497,-1.542,-1.542,-1.5195,-1.4767,-1.4091,-1.356,-1.3068,-1.2436,-1.1788,-1.1182,-1.1097,-1.06,-0.9653,-0.9046,-0.9065,-0.9725,-1.0261,-1.0365,-1.0036,-1.0543,-1.0889,-1.1032,-1.1366,-1.1507,-1.1499,-1.1672,-1.1664,-1.1523,-1.1499,-1.1441,-1.13,-1.1366,-1.124,-1.0839,-1.0725,0.0,0.0,0.0,0.0,0.0,0.0,0.0,0.0,0.0,-0.944,-0.9109,0.0,-0.7127,0.0,-0.6176,-0.5986,-0.6482,-0.6153,0.0,0.0,-0.5987,-0.5532,-0.4485,-0.3517,-0.2491,-0.1489,-0.0707,-0.0196,-0.0196,-0.0981,-0.1608,-0.1841,-0.3285,-0.4681,-0.5554,-0.5765,-0.5706,-0.5424,-0.5259,-0.506,-0.4164,-0.2687,-0.1238,0.0,0.0,0.0,0.0,0.0,0.0,0.0,0.1682,0.2929,0.3124,0.4844,0.6177,0.63,0.63,0.63,0.63,0.63,0.6528,-2.7888,-2.7604,-2.6828,-2.6549,-2.6602,-2.6188,-2.6014,-2.5919,-2.4794,-2.4076,-2.3614,-2.1631,-2.0184,-1.9184,-1.7657,-1.688,-1.6627,-1.5448,-1.4874,-1.4855,-1.4394,-1.3908,-1.3487,-1.2696,-1.209,-1.1592,-1.0956,-1.0394,-0.9983,-0.9963,-0.946,-0.8549,-0.816,-0.8021,-0.817,-0.8541,-0.8921,-0.9351,-0.9999,-1.035,-1.0364,-1.0636,-1.0771,-1.072,-1.0712,-1.0661,-1.0518,-1.0585,-1.0585,-1.0551,-1.0585,-1.0432,-1.0092,-0.9998,-0.9874,0.0,0.0,0.0,0.0,0.0,0.0,0.0,0.0,0.0,0.0,0.0,-0.7092,0.0,-0.6285,0.0,-0.6785,-0.6632,-0.6273,-0.5761,-0.5676,-0.5162,-0.3926,-0.2901,-0.203,-0.1394,-0.0518,0.0,0.0,-0.051,-0.1058,-0.1528,-0.2404,-0.3394,-0.4355,-0.4572,-0.4474,-0.4343,-0.426,-0.3882,-0.2945,-0.1964,-0.1023,0.0,0.0,0.0,0.0,0.0,0.0,0.0,0.163,0.3009,0.3191,0.4711,0.6095,0.6259,0.6203,0.6186,0.6286,0.6641,0.7173,-2.7577,-2.6377,-2.6256,-2.5851,-2.5273,-2.5147,-2.5175,-2.5217,-2.4352,-2.3399,-2.2317,-2.0136,-1.8887,-1.8268,-1.7048,-1.627,-1.5883,-1.4634,-1.4034,-1.3978,-1.3029,-1.2352,-1.1858,-1.0942,-1.0188,-0.9658,-0.9061,-0.8752,-0.8646,-0.8646,-0.8315,-0.7723,-0.753,-0.7122,-0.6615,-0.6421,-0.7042,-0.848,-0.9156,-0.9492,-0.9477,-1.01,-1.0381,-1.0228,-1.0228,-1.0118,-0.9872,-0.9964,-0.9997,-0.9897,-0.999,-0.9773,-0.9176,-0.9387,-0.9371,0.0,-0.9266,0.0,0.0,0.0,0.0,0.0,0.0,0.0,0.0,-0.7552,-0.7381,-0.6808,-0.6518,-0.6493,-0.6721,-0.7017,-0.6594,-0.5185,-0.5054,-0.4633,-0.3357,-0.2264,-0.1576,-0.1573,-0.0647,0.0,0.0,0.0,-0.0392,-0.1168,-0.1379,-0.1721,-0.2401,-0.2817,-0.3011,-0.273,-0.2577,-0.2344,-0.1615,-0.126,-0.0831,0.0,0.0,0.0,0.0,0.0,0.0,0.0,0.1567,0.2887,0.3049,0.4551,0.5868,0.6132,0.6078,0.6061,0.629,0.6868,0.7668,-2.6397,-2.5577,-2.4964,-2.4624,-2.4452,-2.3826,-2.3914,-2.4408,-2.2967,-2.1253,-1.9431,-1.8945,-1.8109,-1.7007,-1.5807,-1.5201,-1.5069,-1.3809,-1.3221,-1.3205,-1.2785,-1.236,-1.185,-1.0942,-0.9926,-0.8934,-0.8837,-0.848,-0.7916,-0.7916,-0.783,-0.767,-0.6519,-0.614,0.0,0.0,0.0,0.0,-0.7513,-0.7774,-0.7791,-0.8231,-0.8396,-0.8237,-0.8237,0.0,-0.801,-0.8037,-0.809,-0.8157,-0.819,0.0,0.0,0.0,0.0,0.0,0.0,0.0,0.0,0.0,0.0,0.0,-0.7413,-0.7424,-0.7534,-0.7332,-0.7023,-0.6607,-0.6645,-0.6665,-0.6572,-0.6506,-0.6058,-0.5055,-0.4841,-0.4077,-0.234,-0.1795,-0.1303,-0.0434,0.0,0.0,0.0,0.0,0.0,0.0,0.0,-0.0371,0.0,-0.1904,-0.278,-0.2695,-0.2009,-0.1541,-0.134,-0.0726,0.0,0.0,0.0,0.0,0.0,0.0,0.0,0.0074,0.1568,0.2921,0.2995,0.4486,0.5806,0.5878,0.5867,0.5928,0.6235,0.6447,0.7061,-2.5522,0.0,-2.4465,-2.3872,0.0,-2.2424,-2.2151,-2.2114,-2.1962,-2.0668,-1.8564,-1.7943,-1.6967,-1.5786,-1.5188,-1.4546,-1.3921,-1.2876,-1.2325,-1.2114,-1.1498,-1.0782,-1.0051,-0.9398,-0.861,-0.7694,-0.7685,-0.7536,-0.7182,-0.716,-0.6961,-0.66,-0.5864,-0.5519,-0.5555,-0.4846,-0.5034,-0.6036,-0.6657,-0.696,-0.6966,-0.7149,-0.7176,-0.7069,0.0,0.0,0.0,0.0,0.0,0.0,0.0,0.0,0.0,0.0,0.0,-0.6958,-0.7069,-0.7098,-0.6976,-0.6995,-0.6879,-0.6611,-0.6602,-0.6696,-0.6937,-0.6798,-0.6667,-0.6538,-0.6595,-0.6626,-0.6563,-0.6065,-0.5299,-0.429,-0.3603,-0.2627,-0.1234,-0.0829,-0.0628,0.0,0.0,0.0,0.0,0.0,0.0,0.0,0.0,0.0,0.0,-0.0806,-0.142,-0.1349,-0.1041,-0.0672,-0.064,0.0,0.0,0.0,0.0,0.0,0.0,0.0368,0.0628,0.0766,0.2182,0.3443,0.3627,0.4694,0.5661,0.5752,0.5745,0.598,0.6578,0.7206,0.7939,-2.4794,-2.4076,-2.3842,-2.2967,-2.173,-2.1146,-2.0356,-1.9616,0.0,0.0,0.0,-1.6833,-1.5726,-1.4586,-1.4413,-1.3776,-1.2765,-1.1897,-1.1259,-1.087,-0.9892,-0.8925,-0.8015,-0.7651,-0.7128,-0.6448,-0.6534,-0.6534,-0.6394,-0.6421,-0.6091,-0.5542,-0.5265,-0.4772,-0.4153,-0.4091,-0.4364,-0.4937,-0.5853,-0.6334,-0.6344,-0.6399,-0.6399,-0.6253,-0.6253,-0.615,-0.5891,-0.6028,-0.605,-0.5977,-0.6185,-0.6289,-0.6269,-0.6271,-0.6349,-0.6473,-0.6537,-0.6464,-0.626,-0.6385,-0.627,-0.5792,-0.5755,-0.5893,-0.6221,-0.6325,-0.6385,-0.6504,-0.6515,-0.6485,-0.6356,-0.5591,-0.4515,-0.3226,-0.2294,-0.1319,0.0,0.0,0.0,0.0,0.0,0.0,0.0,0.0,0.0,0.0,0.0,0.0108,0.0176,0.0035,0.0,0.0,0.0,0.0,0.0,0.0205,0.0209,0.0,0.0,0.0466,0.0574,0.108,0.1477,0.1571,0.2921,0.3837,0.4157,0.4806,0.5454,0.5677,0.5672,0.5859,0.6849,0.8047,0.8949,-2.3989,-2.3177,-2.2082,-2.1488,-2.1212,-2.0067,-1.9085,-1.8306,-1.8462,-1.7379,-1.5408,-1.5228,-1.4457,-1.3236,-1.2553,-1.2158,-1.1881,-1.0826,-0.9988,0.0,-0.8677,-0.8005,-0.7244,-0.6913,-0.6362,-0.5733,-0.6285,-0.6258,-0.5706,-0.5647,-0.5597,-0.5347,-0.4305,-0.3314,-0.2591,-0.2524,-0.2579,-0.27,-0.4411,-0.5309,-0.5317,-0.5691,-0.5855,-0.5727,-0.57,-0.5614,-0.5418,-0.5571,-0.5718,-0.5817,-0.5982,-0.5955,-0.5727,-0.5825,-0.5711,-0.5389,-0.5502,-0.5628,-0.5717,-0.5824,-0.5585,-0.4909,-0.4053,-0.4327,-0.6115,-0.6399,-0.6491,-0.6471,-0.6384,-0.6114,-0.5281,-0.488,-0.3913,-0.2207,-0.1733,-0.118,0.0,0.0,0.0,0.0,0.0,0.0,0.0,0.0,0.0,0.0,0.0,0.0322,0.0857,0.0474,0.0,0.0,0.0,0.0,0.0,0.0674,0.1049,0.1113,0.1728,0.2115,0.2082,0.2322,0.2507,0.252,0.3408,0.4008,0.4165,0.4788,0.5419,0.5622,0.5658,0.5918,0.6814,0.7894,0.8859,-2.2359,-2.1322,-2.0752,-2.0091,-1.9323,-1.7643,-1.6557,-1.5906,-1.5463,-1.5164,-1.4852,-1.4175,-1.3311,-1.2366,-1.1989,-1.1305,-1.0413,-0.9797,-0.898,-0.8089,-0.773,-0.713,-0.6258,-0.6078,-0.5655,-0.4999,-0.5304,-0.5081,-0.4415,-0.4333,-0.411,-0.3693,-0.3063,-0.2565,-0.2232,-0.2199,-0.2199,-0.223,-0.3067,-0.3541,-0.3536,-0.3724,-0.3807,-0.3754,-0.3754,-0.392,-0.4199,-0.4396,-0.4742,-0.5183,-0.5393,-0.5461,-0.5344,-0.5492,-0.5484,-0.5293,-0.5403,-0.5307,-0.4847,-0.4529,-0.4173,-0.3852,-0.3396,-0.3513,-0.4453,-0.4611,-0.4641,-0.4641,-0.4641,-0.4483,-0.393,-0.3383,-0.2623,-0.1723,-0.1097,-0.0549,0.0,0.0,0.0,0.0,0.0,0.0,0.0824,0.0863,0.1078,0.143,0.1495,0.1619,0.2017,0.1743,0.1443,0.0,0.0,0.0,0.1476,0.1776,0.2043,0.2075,0.241,0.2644,0.2744,0.3018,0.3387,0.3458,0.4134,0.4876,0.5276,0.5767,0.6235,0.6761,0.6793,0.7149,0.7949,0.8902,0.9793,-2.0723,-1.9744,-1.9438,-1.8509,-1.7002,-1.5232,-1.428,-1.3863,-1.31,-1.318,-1.3712,-1.3055,-1.2174,-1.1267,-1.1236,-1.0387,-0.9044,-0.8719,-0.8034,-0.7057,-0.682,-0.6239,-0.5367,-0.5273,-0.4917,-0.4319,-0.4236,-0.3846,-0.3206,-0.3065,-0.2676,-0.2037,-0.1953,-0.1868,-0.1703,-0.1703,-0.1703,-0.1703,-0.1701,-0.187,-0.2176,-0.2204,-0.2204,-0.2204,-0.2204,-0.2454,-0.3014,-0.3247,-0.3613,-0.416,-0.4425,-0.4531,-0.4566,-0.4695,-0.4788,-0.4797,-0.4888,-0.4663,-0.3946,-0.3145,-0.2729,-0.2728,-0.2539,-0.2383,-0.2423,-0.2423,-0.2617,-0.3007,-0.3205,-0.3086,-0.2738,-0.2152,-0.1489,-0.1255,-0.051,0.0,0.0,0.0,0.0118,0.0275,0.0392,0.0784,0.1644,0.1918,0.2149,0.2633,0.2773,0.2751,0.2945,0.3009,0.3045,0.3178,0.2978,0.2611,0.2711,0.2878,0.2978,0.2978,0.3245,0.3447,0.3549,0.3949,0.4251,0.4386,0.4858,0.5594,0.6433,0.6687,0.6981,0.76,0.78,0.8188,0.8973,0.9856,1.0617,-1.9444,-1.9182,-1.8054,-1.6416,-1.4558,-1.3592,-1.3141,-1.2978,-1.2258,-1.1485,-1.1031,-1.1578,-1.0993,-0.9646,-0.955,-0.8943,-0.7871,-0.7577,-0.6998,-0.6158,-0.5791,-0.5258,-0.4625,-0.457,-0.4208,-0.3566,-0.3453,-0.3037,-0.2341,-0.2258,-0.1924,-0.1285,-0.1202,-0.0838,-0.028,-0.0196,-0.0196,-0.0224,-0.0196,-0.0867,-0.212,-0.2204,-0.2204,-0.2204,-0.2176,-0.223,-0.2294,-0.2489,-0.2631,-0.2705,-0.2878,-0.2932,-0.2932,-0.2974,-0.2945,-0.3013,-0.2987,-0.2985,-0.2949,-0.2037,-0.1565,-0.1635,-0.0902,0.0,0.0,0.0,-0.1135,-0.25,-0.3046,-0.2579,-0.188,-0.1606,-0.1137,-0.0392,-0.0039,0.0,0.0,0.0,0.0353,0.1372,0.1449,0.184,0.2735,0.3036,0.3017,0.3178,0.3153,0.3245,0.378,0.3913,0.4212,0.4586,0.3882,0.2945,0.2945,0.3411,0.3813,0.3949,0.4586,0.4888,0.4987,0.5087,0.5292,0.5514,0.5455,0.598,0.6564,0.6752,0.7144,0.8118,0.835,0.835,0.9172,1.0072,1.0692,-1.7359,-1.6607,-1.5567,-1.4547,-1.345,-1.2634,-1.2004,-1.1463,-1.0672,-0.985,-0.9137,-0.9386,-0.9175,-0.8517,-0.8517,-0.7936,-0.6965,-0.6731,-0.6146,-0.5251,-0.4999,-0.4505,-0.3846,-0.379,-0.34,-0.273,-0.2649,-0.2258,-0.1591,-0.1118,-0.0531,0.014,0.0196,0.0559,0.1257,0.1286,0.1287,0.1284,0.1312,0.1004,0.0362,-0.0447,-0.0895,-0.0895,-0.0894,-0.113,-0.1497,-0.1712,-0.2016,-0.2463,-0.2621,-0.2678,-0.2678,-0.2678,-0.2678,-0.2678,-0.2175,-0.1922,-0.1955,-0.1054,-0.0558,-0.0665,-0.0275,0.0,0.0,0.0,-0.0392,-0.1058,-0.1252,-0.1058,-0.0706,-0.0667,-0.0471,0.0,0.0549,0.0941,0.0941,0.1488,0.2033,0.2423,0.2501,0.2891,0.3848,0.4414,0.4643,0.459,0.4436,0.4425,0.4788,0.4821,0.5216,0.584,0.5463,0.4902,0.4478,0.4553,0.4818,0.4888,0.5123,0.5458,0.6075,0.617,0.6301,0.6793,0.6793,0.7153,0.8161,0.8253,0.8484,0.9128,0.9518,0.9652,1.0015,1.073,1.1195,-1.5244,-1.4285,-1.3215,-1.257,-1.222,-1.119,-1.04,-0.9793,-0.9186,-0.8452,-0.7665,-0.7632,-0.7507,-0.734,-0.7482,-0.6994,-0.6055,-0.5846,-0.5262,-0.4394,-0.4225,-0.379,-0.3065,-0.2982,-0.2619,-0.2009,-0.1898,-0.1424,-0.0531,0.0252,0.0866,0.134,0.1425,0.1673,0.2148,0.2207,0.2207,0.2176,0.2204,0.2204,0.2037,0.1146,0.0587,0.0616,0.065,0.043,-0.0088,-0.0152,-0.0471,-0.1024,-0.1152,-0.1337,-0.1605,-0.1606,-0.1706,-0.1877,-0.1342,-0.0959,-0.0933,-0.0363,0.0,0.0,0.0,0.0,0.0,0.0275,0.0432,0.0431,0.0666,0.0705,0.0039,0.0275,0.0432,0.051,0.1372,0.1996,0.2074,0.2696,0.3163,0.3474,0.3552,0.3943,0.4928,0.5482,0.5666,0.5633,0.5483,0.5557,0.5686,0.5782,0.6075,0.6883,0.7046,0.6785,0.6243,0.6141,0.6112,0.6112,0.6239,0.647,0.6953,0.7046,0.7111,0.7474,0.7864,0.8253,0.8748,0.9139,0.9498,1.0238,1.0555,1.0491,1.046,1.1257,1.1679,-1.3133,-1.282,-1.1329,-1.0634,-1.0481,-0.8977,-0.8215,-0.8178,-0.8091,-0.7567,-0.6748,-0.6719,-0.6268,-0.5543,-0.6073,-0.5903,-0.5043,-0.4808,-0.425,-0.3451,-0.3436,-0.301,-0.2259,-0.2232,-0.184,-0.1117,-0.1117,-0.0447,0.0866,0.1673,0.212,0.2147,0.2147,0.2176,0.2315,0.2371,0.223,0.2371,0.2371,0.2287,0.2259,0.2176,0.212,0.213,0.2242,0.2224,0.2248,0.2391,0.2401,0.2404,0.2208,0.194,0.1172,0.1038,0.0671,0.0,-0.0034,0.0,0.0,0.0144,0.0,0.0,0.0,0.0,0.0,0.1058,0.1488,0.1528,0.2229,0.2033,0.0628,0.1058,0.1488,0.1606,0.2423,0.2969,0.3047,0.3242,0.363,0.4373,0.4647,0.4999,0.6012,0.5952,0.5902,0.5855,0.5617,0.5785,0.6461,0.6654,0.7013,0.767,0.7962,0.7929,0.7864,0.7474,0.7577,0.754,0.7312,0.7767,0.7864,0.7962,0.8027,0.8124,0.835,0.8672,0.9102,0.9498,0.9817,1.0269,1.0523,1.0586,1.0863,1.1351,1.1927,-1.0763,-0.9762,-0.9157,-0.8907,-0.8816,-0.8248,-0.7697,-0.7205,-0.7177,-0.6322,-0.5137,-0.4968,-0.4508,-0.3675,-0.3828,-0.4008,-0.4141,-0.3569,-0.3051,-0.2627,-0.2621,-0.2232,-0.1563,-0.148,-0.0837,0.0112,-0.0168,0.0112,0.1061,0.1842,0.2482,0.2896,0.2924,0.3148,0.3569,0.368,0.368,0.3677,0.368,0.3677,0.363,0.368,0.3716,0.3769,0.294,0.2539,0.2607,0.2665,0.2682,0.2701,0.2697,0.2544,0.2242,0.221,0.2076,0.1776,0.171,0.1731,0.1745,0.1827,0.1838,0.1847,0.1929,0.1917,0.2034,0.2345,0.2542,0.2657,0.2852,0.2617,0.2305,0.2345,0.2579,0.2698,0.3476,0.4139,0.4258,0.4688,0.5315,0.5628,0.5709,0.5906,0.6315,0.6508,0.6627,0.6659,0.6865,0.7157,0.7405,0.754,0.7832,0.8581,0.8844,0.9037,0.9678,0.8576,0.7994,0.7962,0.7994,0.8355,0.8549,0.8775,0.8877,0.9326,0.9384,0.9512,1.0072,1.0193,1.0421,1.0579,1.0807,1.1139,1.1288,1.202,1.2687,-0.9041,-0.8059,-0.7697,-0.7572,-0.7502,-0.6939,-0.6384,-0.5796,-0.5526,-0.4701,-0.3711,-0.358,-0.3245,-0.2699,-0.2311,-0.2388,-0.2923,-0.2541,-0.2217,-0.1873,-0.184,-0.1453,-0.0783,-0.0503,0.0112,0.1006,0.1145,0.1368,0.1842,0.2593,0.3206,0.3707,0.3744,0.4023,0.4485,0.461,0.4641,0.4641,0.4609,0.4613,0.4638,0.4638,0.468,0.4687,0.3833,0.3381,0.3491,0.3524,0.3573,0.3571,0.358,0.3447,0.3145,0.2904,0.2783,0.2781,0.2747,0.2782,0.2819,0.2877,0.29,0.2975,0.3044,0.3124,0.3124,0.3396,0.3593,0.3671,0.3982,0.4139,0.4139,0.4139,0.3982,0.3826,0.4569,0.5198,0.5237,0.5867,0.637,0.6679,0.6791,0.6907,0.7206,0.7477,0.7579,0.7606,0.7875,0.8047,0.8355,0.8452,0.871,0.9524,0.9722,0.9913,1.0199,0.955,0.916,0.9096,0.8962,0.9198,0.93,0.9556,0.9817,1.0364,1.0649,1.0744,1.0863,1.0951,1.1076,1.1233,1.16,1.1996,1.2336,1.2848,1.3394,-0.7962,-0.773,-0.7046,-0.6584,-0.6355,-0.4902,-0.4079,-0.3979,-0.3278,-0.2943,-0.2711,-0.2676,-0.2577,-0.2365,-0.1504,-0.1225,-0.1333,-0.1572,-0.1447,-0.1013,-0.1007,-0.0587,0.0112,0.0699,0.1005,0.1313,0.2649,0.3239,0.3193,0.3869,0.4348,0.4483,0.4544,0.4603,0.4723,0.4809,0.4891,0.488,0.487,0.4857,0.4914,0.4884,0.4911,0.5052,0.494,0.4886,0.4982,0.5143,0.518,0.5223,0.5226,0.4924,0.4077,0.3464,0.3033,0.314,0.3035,0.3041,0.3177,0.3195,0.3318,0.3426,0.3275,0.3476,0.3671,0.4217,0.4688,0.4844,0.5473,0.6099,0.6022,0.5983,0.5631,0.5002,0.555,0.6064,0.618,0.6296,0.6679,0.748,0.7706,0.8241,0.8835,0.8798,0.8609,0.8553,0.8485,0.8581,0.9166,0.93,0.969,1.0238,1.0364,1.0396,1.0523,1.0555,1.0523,1.046,1.0263,1.0231,1.0136,1.0238,1.0206,1.0586,1.0586,1.0713,1.1351,1.1469,1.1903,1.212,1.252,1.2765,1.3152,1.3545,1.3944,-0.6207,-0.6075,-0.5239,-0.4839,-0.4707,-0.3575,-0.3111,-0.308,-0.2809,-0.2344,-0.1809,-0.1742,-0.1409,-0.0738,0.01,0.0491,0.0514,0.0801,0.0803,0.0492,0.0395,0.0782,0.1396,0.173,0.187,0.212,0.3425,0.3924,0.374,0.4298,0.4667,0.4772,0.4849,0.4847,0.491,0.4894,0.4918,0.4918,0.4918,0.4918,0.4918,0.4921,0.4989,0.5079,0.51,0.5176,0.5317,0.5371,0.5392,0.5395,0.5395,0.5306,0.5089,0.4898,0.4786,0.4894,0.4906,0.4917,0.4967,0.4978,0.4964,0.5104,0.5166,0.5303,0.5315,0.555,0.5747,0.5786,0.6141,0.63,0.63,0.63,0.618,0.5864,0.6099,0.6377,0.6528,0.6988,0.7399,0.7783,0.8389,0.8955,0.9253,0.9336,0.9509,0.9529,0.9585,0.9881,1.0072,1.0104,1.0199,1.0555,1.0586,1.0586,1.0586,1.0618,1.0681,1.0713,1.0713,1.0586,1.0586,1.0769,1.0744,1.0863,1.08,1.1108,1.1686,1.2143,1.2573,1.2818,1.3039,1.3364,1.3726,1.4085,1.4481,-0.4384,-0.4317,-0.3747,-0.3513,-0.3413,-0.2544,-0.2177,-0.2143,-0.181,-0.1173,-0.0435,-0.0301,0.0168,0.0973,0.1575,0.1826,0.1891,0.2373,0.241,0.2045,0.1626,0.1788,0.2237,0.2572,0.295,0.3321,0.4196,0.4645,0.4634,0.503,0.5466,0.58,0.5902,0.5969,0.5951,0.6007,0.6044,0.604,0.6079,0.6071,0.6075,0.604,0.6092,0.6181,0.6197,0.6226,0.6367,0.6375,0.6046,0.5572,0.5446,0.5498,0.5586,0.5652,0.5793,0.5861,0.5855,0.5872,0.5962,0.5898,0.6061,0.6118,0.6207,0.6257,0.6257,0.63,0.63,0.63,0.63,0.6451,0.6756,0.6872,0.6988,0.7399,0.7096,0.7061,0.7365,0.7936,0.8575,0.8988,0.9518,0.997,1.0361,1.0324,1.0494,1.0511,1.0528,1.0586,1.0586,1.0555,1.0618,1.0618,1.0586,1.0586,1.0586,1.0649,1.0737,1.0807,1.0839,1.0681,1.0586,1.1045,1.1257,1.1748,1.1872,1.2297,1.284,1.2962,1.3243,1.3394,1.3734,1.4213,1.4658,1.4658,1.4932,-0.2711,-0.2678,-0.2644,-0.2609,-0.2509,-0.1609,-0.1173,-0.0972,-0.0336,0.047,0.1173,0.1272,0.1741,0.2477,0.2644,0.2772,0.2795,0.2976,0.3348,0.3425,0.3039,0.2746,0.2758,0.3514,0.4216,0.4793,0.5088,0.5532,0.6113,0.6233,0.6692,0.728,0.7413,0.7633,0.7476,0.7819,0.7745,0.7666,0.7792,0.7782,0.7787,0.7829,0.7834,0.7839,0.7775,0.7747,0.773,0.7731,0.7152,0.5889,0.5913,0.5996,0.5839,0.5957,0.6189,0.6254,0.6152,0.6407,0.6412,0.6613,0.6482,0.6528,0.6514,0.6377,0.6532,0.6606,0.6679,0.6791,0.6756,0.6988,0.7706,0.7897,0.8313,0.9031,0.8423,0.8313,0.9074,0.9258,0.9664,1.0372,1.082,1.1168,1.1903,1.1591,1.1363,1.1193,1.0929,1.0695,1.0649,1.0681,1.0713,1.08,1.0989,1.1264,1.1483,1.1476,1.16,1.1663,1.1608,1.1452,1.1202,1.1624,1.1896,1.2389,1.2848,1.3364,1.3666,1.3666,1.4055,1.454,1.4932,1.5323,1.5323,1.5206,1.5177,-0.2678,-0.2611,-0.1975,-0.1675,-0.1541,-0.0739,0.0034,0.0603,0.0838,0.1475,0.221,0.2342,0.2477,0.2778,0.3413,0.3647,0.3819,0.4223,0.4518,0.4775,0.5106,0.4756,0.4489,0.508,0.561,0.591,0.6423,0.6989,0.7277,0.7312,0.7551,0.7848,0.8038,0.7989,0.795,0.8055,0.7989,0.7994,0.8027,0.8059,0.8091,0.8091,0.7994,0.7994,0.8064,0.8069,0.8047,0.8184,0.8166,0.7702,0.7644,0.7424,0.7057,0.7082,0.7194,0.7257,0.7323,0.7681,0.8282,0.8373,0.8069,0.7502,0.7403,0.7407,0.7403,0.7403,0.7744,0.8275,0.8504,0.8542,0.8841,0.896,0.9448,1.0078,0.9556,0.9107,0.9442,0.997,1.0522,1.082,1.1428,1.1959,1.2108,1.1991,1.1663,1.1443,1.1136,1.0822,1.0825,1.1157,1.136,1.167,1.1934,1.2243,1.2458,1.2428,1.2489,1.2612,1.2612,1.2612,1.2489,1.2573,1.2726,1.2909,1.3274,1.3726,1.3936,1.4055,1.4746,1.5352,1.5381,1.542,1.542,1.5323,1.5323,-0.1003,-0.0936,0.0,0.0368,0.0435,0.0939,0.1443,0.1809,0.1909,0.2409,0.3111,0.3245,0.348,0.3882,0.4384,0.4812,0.5157,0.5575,0.5961,0.6389,0.6728,0.6573,0.6332,0.6672,0.6866,0.6985,0.748,0.7933,0.8284,0.8363,0.8615,0.9082,0.9096,0.909,0.9175,0.9096,0.9096,0.9128,0.9096,0.9096,0.9096,0.9102,0.9096,0.9125,0.9188,0.9286,0.9446,0.9585,0.9344,0.869,0.8531,0.8518,0.823,0.824,0.8299,0.8423,0.8428,0.8727,0.9145,0.9296,0.9031,0.8575,0.8428,0.8428,0.8428,0.8428,0.877,0.9107,0.9296,0.9518,0.9933,1.0271,1.0801,1.1242,1.0875,1.0533,1.0533,1.113,1.1391,1.1583,1.1922,1.2305,1.2298,1.2087,1.1866,1.1617,1.1383,1.1156,1.1061,1.1621,1.2124,1.2437,1.2708,1.2969,1.3052,1.3044,1.3299,1.345,1.3704,1.3704,1.3515,1.3515,1.3696,1.3786,1.3906,1.4055,1.4362,1.4628,1.4962,1.5352,1.5381,1.542,1.542,1.542,1.542,0.1441,0.154,0.2344,0.2678,0.2577,0.2678,0.2644,0.2811,0.2845,0.3313,0.4048,0.4248,0.4779,0.5524,0.5679,0.6108,0.6785,0.6763,0.7353,0.7797,0.8084,0.7979,0.8074,0.784,0.796,0.8095,0.8173,0.8741,0.9253,0.9436,0.9805,1.0168,1.0396,1.0523,1.0295,1.0396,1.0555,1.0396,1.0295,1.0308,1.0379,1.0399,1.0361,1.049,1.0633,1.0822,1.1065,1.1176,1.0598,0.8887,0.9177,0.9399,0.9374,0.9387,0.9427,0.9437,0.9448,0.9523,0.9669,0.9895,0.9636,0.9518,0.9442,0.9448,0.9448,0.9448,0.9593,0.997,0.9636,1.0233,1.0864,1.1731,1.2003,1.2114,1.2157,1.2261,1.2409,1.2378,1.2305,1.2305,1.2305,1.2298,1.2341,1.2236,1.214,1.2835,1.2514,1.2388,1.2447,1.2888,1.3124,1.3132,1.339,1.3599,1.3612,1.3578,1.3934,1.4249,1.4667,1.4717,1.4392,1.4421,1.4717,1.4864,1.4688,1.4756,1.5021,1.5264,1.5352,1.5352,1.541,1.542,1.542,1.542,1.542,0.2376,0.241,0.2611,0.2678,0.2678,0.2711,0.3111,0.378,0.378,0.4381,0.5117,0.5804,0.6195,0.6461,0.699,0.7572,0.773,0.78,0.8188,0.8941,0.9043,0.9442,0.9617,0.9251,0.898,0.9134,0.9748,1.0104,1.0269,1.0238,1.0396,1.0523,1.0586,1.0593,1.0606,1.0626,1.0593,1.0593,1.0613,1.0747,1.0908,1.0935,1.1002,1.1189,1.1289,1.1315,1.1456,1.165,1.1554,1.1294,1.1116,1.0882,1.0512,1.045,1.049,1.0496,1.049,1.0789,1.1397,1.144,1.1285,1.0565,1.049,1.0484,1.049,1.0507,1.0875,1.1397,1.1663,1.1614,1.1848,1.2114,1.2268,1.2305,1.2305,1.2592,1.3062,1.2732,1.2452,1.2445,1.2482,1.2592,1.328,1.3339,1.347,1.3932,1.3947,1.3872,1.3989,1.4131,1.4179,1.4178,1.4681,1.4956,1.4914,1.4783,1.4756,1.4887,1.5176,1.5381,1.505,1.4962,1.5138,1.5264,1.5294,1.542,1.542,1.542,1.5381,1.541,1.542,1.542,1.542,1.542,1.542,0.3311,0.3347,0.378,0.4209,0.4532,0.4596,0.5061,0.5756,0.5888,0.6158,0.6629,0.7144,0.7307,0.734,0.78,0.8161,0.8678,0.9069,0.9454,0.9849,0.9919,1.0142,1.0403,1.0206,0.9913,0.9983,1.0333,1.0561,1.0586,1.0606,1.0555,1.0586,1.06,1.0687,1.078,1.0826,1.0894,1.0969,1.0969,1.1049,1.1169,1.1202,1.1336,1.157,1.1643,1.1683,1.1857,1.1984,1.2058,1.2071,1.2078,1.1942,1.1619,1.1508,1.1502,1.1502,1.1508,1.1694,1.2187,1.2268,1.2033,1.1545,1.1502,1.159,1.1696,1.1734,1.1929,1.2393,1.2461,1.2472,1.2331,1.2305,1.2305,1.2305,1.2305,1.2739,1.339,1.3244,1.32,1.3484,1.3766,1.3983,1.4243,1.4378,1.4498,1.4768,1.4768,1.4698,1.4735,1.4917,1.5248,1.548,1.6089,1.6401,1.6345,1.6102,1.5675,1.5573,1.5449,1.5478,1.5264,1.5294,1.5381,1.542,1.542,1.542,1.542,1.542,1.542,1.542,1.542,1.542,1.5449,1.5478,1.5449,0.4607,0.4674,0.5484,0.6239,0.685,0.6846,0.7172,0.7827,0.7994,0.7697,0.8027,0.8129,0.8188,0.8253,0.8447,0.8871,0.9492,1.0079,1.0396,1.0428,1.0428,1.0544,1.0641,1.0604,1.0612,1.0707,1.0707,1.07,1.076,1.0727,1.0834,1.0754,1.0747,1.0901,1.1022,1.1261,1.1336,1.1343,1.1823,1.1737,1.1614,1.1641,1.1915,1.1877,1.1937,1.2017,1.2171,1.2258,1.2285,1.2305,1.2305,1.2378,1.2482,1.2335,1.2305,1.2268,1.215,1.2194,1.2231,1.2305,1.2268,1.2305,1.2334,1.2448,1.2627,1.2696,1.2736,1.2747,1.279,1.2736,1.2536,1.2629,1.2703,1.2842,1.2806,1.3164,1.3882,1.4135,1.4557,1.4772,1.4728,1.4807,1.5155,1.5403,1.5482,1.5587,1.5552,1.5597,1.5687,1.5843,1.6211,1.6474,1.7,1.7038,1.6963,1.6846,1.6496,1.6143,1.5879,1.5781,1.5693,1.58,1.5839,1.5478,1.542,1.5449,1.5449,1.542,1.542,1.542,1.5439,1.5497,1.5526,1.5555,1.573,0.7335,0.7335,0.7502,0.767,0.7767,0.78,0.7929,0.7994,0.8124,0.8027,0.8156,0.8748,0.9069,0.9242,0.9888,1.0244,1.0366,1.0629,1.066,1.066,1.0673,1.0754,1.0935,1.0929,1.1035,1.1162,1.1155,1.1188,1.1182,1.1249,1.1176,1.1243,1.1229,1.1289,1.156,1.2034,1.2043,1.195,1.275,1.2934,1.2465,1.2641,1.2777,1.2551,1.2535,1.251,1.2412,1.2378,1.2305,1.2305,1.2305,1.2776,1.3236,1.2907,1.2583,1.2415,1.2342,1.2305,1.2305,1.2318,1.2311,1.2358,1.2569,1.2748,1.2927,1.3057,1.3178,1.3255,1.3163,1.3092,1.3426,1.3587,1.3949,1.4366,1.4633,1.4947,1.5683,1.5869,1.5762,1.5735,1.5594,1.5587,1.6044,1.6428,1.6541,1.6689,1.6828,1.6862,1.6964,1.7151,1.7411,1.7605,1.777,1.7607,1.7373,1.7266,1.7031,1.6699,1.6424,1.6356,1.6336,1.6463,1.6346,1.5917,1.5654,1.5615,1.5576,1.5557,1.5586,1.5723,1.5684,1.5663,1.6133,1.6578,1.6884,0.7994,0.7994,0.7994,0.8285,0.8613,0.8683,0.8941,0.932,0.9358,0.9358,0.9454,0.9786,0.9983,1.0117,1.0509,1.0848,1.1002,1.1009,1.1009,1.1009,1.1015,1.1062,1.1249,1.1249,1.1396,1.1716,1.195,1.1839,1.1457,1.1375,1.1525,1.1423,1.143,1.1496,1.1693,1.204,1.2536,1.2706,1.3507,1.3986,1.36,1.4097,1.3996,1.3901,1.3781,1.381,1.3803,1.3803,1.3803,1.3839,1.3803,1.4191,1.4436,1.4329,1.377,1.3185,1.2693,1.2355,1.2388,1.2449,1.2794,1.3308,1.3227,1.343,1.3724,1.3819,1.3775,1.4169,1.4687,1.4751,1.5128,1.5065,1.5259,1.5404,1.5588,1.6055,1.659,1.6693,1.6703,1.6705,1.6851,1.6961,1.7113,1.7398,1.7579,1.7794,1.7974,1.8008,1.8008,1.8008,1.8008,1.8008,1.7998,1.7881,1.7637,1.7519,1.7461,1.7155,1.6941,1.6872,1.6804,1.6843,1.6658,1.6317,1.6102,1.6236,1.6073,1.619,1.6102,1.6105,1.6487,1.6857,1.7254,1.7627,1.7979,0.8517,0.8511,0.8511,0.8935,0.9498,0.9562,0.9913,1.0491,1.0523,1.0491,1.06,1.0653,1.075,1.1074,1.1458,1.175,1.1758,1.1703,1.1608,1.1404,1.1669,1.1758,1.1806,1.2054,1.2415,1.2953,1.3284,1.304,1.2333,1.2394,1.2276,1.2456,1.2276,1.2284,1.2678,1.3271,1.3482,1.3766,1.4521,1.5016,1.5327,1.529,1.5248,1.5333,1.5298,1.5284,1.5299,1.5287,1.5315,1.5307,1.5388,1.5635,1.608,1.602,1.5483,1.4571,1.3645,1.3239,1.3236,1.3127,1.3767,1.4645,1.4044,1.4468,1.5041,1.5082,1.4856,1.5539,1.5998,1.6421,1.6493,1.6686,1.667,1.6757,1.6725,1.6789,1.737,1.7699,1.792,1.8005,1.8222,1.8086,1.789,1.7784,1.7828,1.7828,1.8008,1.8008,1.8008,1.8008,1.8008,1.8008,1.8008,1.8008,1.7871,1.7715,1.7666,1.7568,1.7369,1.7282,1.7174,1.7129,1.7005,1.7115,1.7388,1.7495,1.7189,1.6707,1.6492,1.6662,1.7451,1.7932,1.8143,1.8732,1.931,1.0295,1.0263,1.0269,1.0364,1.0403,1.0428,1.0498,1.0638,1.074,1.0586,1.0928,1.099,1.1556,1.23,1.3346,1.3355,1.2972,1.2762,1.2477,1.2088,1.2511,1.2944,1.3204,1.4013,1.4111,1.4383,1.473,1.4379,1.3777,1.4187,1.4516,1.4457,1.432,1.4651,1.4364,1.483,1.5677,1.5436,1.6577,1.7072,1.6508,1.5832,1.5709,1.5805,1.5942,1.6108,1.6451,1.6476,1.6436,1.6387,1.6346,1.675,1.7322,1.6781,1.6923,1.6879,1.6592,1.5891,1.5549,1.4981,1.5042,1.5817,1.5467,1.5763,1.6206,1.6742,1.6653,1.6624,1.6949,1.7312,1.7776,1.7764,1.8128,1.8405,1.8478,1.8597,1.8906,1.8406,1.8649,1.8749,1.8763,1.8447,1.8154,1.8071,1.8008,1.8008,1.8018,1.8047,1.8027,1.8047,1.8008,1.8008,1.8008,1.8008,1.7998,1.7861,1.7852,1.7842,1.7773,1.7676,1.7588,1.7595,1.8085,1.823,1.8492,1.832,1.7725,1.7229,1.687,1.7415,1.8489,1.8801,1.8881,1.9638,2.0609,1.0586,1.0586,1.0586,1.0586,1.0649,1.1069,1.1435,1.1667,1.2095,1.2448,1.2681,1.2795,1.3203,1.3783,1.4371,1.4401,1.4212,1.4159,1.401,1.3561,1.3924,1.4255,1.4444,1.4757,1.5099,1.5414,1.5685,1.5869,1.5473,1.5171,1.5199,1.5286,1.5242,1.5095,1.5486,1.5666,1.586,1.6316,1.7411,1.8184,1.805,1.7739,1.7587,1.7752,1.7725,1.7807,1.7953,1.8054,1.8017,1.8054,1.8017,1.8341,1.8807,1.8695,1.8741,1.9259,1.9058,1.8008,1.6615,1.6165,1.6633,1.7089,1.6934,1.6694,1.7216,1.7812,1.8226,1.8114,1.8686,1.9053,1.924,1.943,1.9458,1.9634,1.9648,1.9639,1.959,1.9355,1.9202,1.9251,1.9297,1.8984,1.8691,1.8555,1.8545,1.8584,1.8506,1.8418,1.8291,1.8144,1.8086,1.8008,1.8008,1.8008,1.8008,1.7959,1.7998,1.8008,1.7998,1.792,1.793,1.8094,1.8674,1.8859,1.8829,1.8527,1.8185,1.8445,1.8712,1.9146,1.9631,1.9921,2.0277,2.1218,2.2026,1.1532,1.1493,1.1206,1.1171,1.1425,1.2107,1.2608,1.2929,1.3453,1.3923,1.432,1.4545,1.4882,1.5232,1.5446,1.5678,1.5545,1.5552,1.5376,1.5305,1.5446,1.551,1.5642,1.5746,1.6,1.5869,1.6645,1.6936,1.6869,1.6598,1.6307,1.6042,1.6395,1.6342,1.6305,1.659,1.6929,1.7464,1.8292,1.8846,1.9071,1.9146,1.9197,1.9321,1.9453,1.9492,1.9627,1.9564,1.9574,1.9556,1.9501,1.9666,1.9878,1.9888,1.9947,2.0275,2.0188,1.9514,1.8237,1.7678,1.8073,1.8431,1.8626,1.828,1.8346,1.8997,1.9392,1.9346,1.9875,2.0333,2.0557,2.0479,2.0303,2.0118,2.0078,2.0078,2.0039,1.9844,1.9746,1.9824,1.9814,1.9668,1.9394,1.9124,1.9075,1.917,1.9053,1.8838,1.8643,1.8437,1.8447,1.8437,1.8457,1.8467,1.8482,1.8414,1.8355,1.8424,1.8414,1.8414,1.8582,1.8873,1.9336,1.9383,1.9454,2.0074,2.0491,2.0563,2.0611,2.0411,2.0425,2.1233,2.1882,2.2702,2.3022,1.404,1.395,1.2792,1.2701,1.333,1.3932,1.4138,1.418,1.4278,1.4443,1.4785,1.5442,1.6152,1.6517,1.6992,1.7064,1.6498,1.6498,1.6114,1.5904,1.6,1.6428,1.6689,1.7113,1.7588,1.7588,1.7724,1.7995,1.8321,1.8052,1.8116,1.8347,1.7922,1.8455,1.855,1.8296,1.8463,1.8776,1.9155,1.925,1.9397,1.9443,1.9551,1.9814,1.9902,2.0049,2.0458,2.039,2.0351,2.0351,2.0331,2.0341,2.0381,2.0449,2.0537,2.0576,2.0615,2.0198,1.9627,1.9132,1.9379,2.0032,2.0216,1.9913,1.9795,2.0167,2.045,2.0294,2.0489,2.0566,2.0615,2.0595,2.0537,2.0449,2.039,2.0361,2.0361,2.0419,2.0351,2.0381,2.0283,2.0126,2.0057,1.9775,1.9619,1.9668,1.9434,1.9219,1.9102,1.8955,1.9033,1.9062,1.9092,1.9147,1.9239,1.9249,1.9359,1.9554,1.9659,1.9535,1.9463,1.9839,2.0342,2.0781,2.1108,2.1963,2.2534,2.2194,2.1748,2.1131,2.1242,2.2162,2.2499,2.2849,2.3055,1.4607,1.4997,1.4749,1.4426,1.407,1.4733,1.5162,1.5497,1.5971,1.6368,1.6529,1.7062,1.7339,1.7541,1.7716,1.7862,1.7467,1.7467,1.7148,1.7113,1.7295,1.7432,1.7647,1.7745,1.7974,1.8096,1.8217,1.8393,1.8533,1.8906,1.9228,1.9287,1.918,1.9121,1.9265,1.9406,1.9485,1.9666,1.9709,1.9775,2.006,2.0116,2.0194,2.0321,2.0351,2.0419,2.0566,2.0595,2.0605,2.0615,2.0615,2.0615,2.0615,2.0615,2.0615,2.0615,2.0615,2.0615,2.0615,2.0196,2.0245,2.0372,2.0566,2.0615,2.0615,2.0625,2.0615,2.0566,2.0635,2.0664,2.0615,2.0615,2.0595,2.0605,2.0615,2.0615,2.0615,2.0615,2.0605,2.0488,2.0517,2.0429,2.0419,2.041,2.0244,2.0137,1.9853,1.9619,1.9558,1.9607,1.973,1.9886,1.9942,2.0199,2.0318,2.038,2.0441,2.0676,2.0945,2.0866,2.0833,2.1156,2.1663,2.2127,2.254,2.3013,2.3284,2.3284,2.2963,2.24,2.2566,2.3194,2.33,2.32,2.3249,1.5713,1.6286,1.6546,1.6102,1.5382,1.5964,1.6397,1.674,1.725,1.7715,1.8008,1.8008,1.8008,1.8008,1.8008,1.8008,1.793,1.793,1.7974,1.7896,1.7862,1.8076,1.8154,1.8242,1.834,1.8373,1.8607,1.8841,1.9085,1.9309,1.9678,1.9873,1.9844,1.9783,1.9715,1.9681,1.9826,2.0056,2.0136,2.0223,2.0556,2.0566,2.0566,2.0576,2.0566,2.0566,2.0595,2.0615,2.0615,2.0615,2.0615,2.0615,2.0615,2.0615,2.0615,2.0615,2.0615,2.0625,2.0615,2.0615,2.0615,2.0615,2.0615,2.0615,2.0625,2.0713,2.0801,2.0625,2.0703,2.0762,2.0693,2.0615,2.0615,2.0615,2.0615,2.0615,2.0615,2.0615,2.0615,2.0586,2.0586,2.0566,2.0556,2.0537,2.0498,2.041,2.0264,2.0106,2.0094,2.023,2.0552,2.0726,2.089,2.1209,2.151,2.1725,2.193,2.2035,2.2251,2.2342,2.2404,2.2694,2.2846,2.3119,2.3502,2.3869,2.4022,2.4042,2.3914,2.371,2.3898,2.4022,2.4079,2.3954,2.3848,1.7838,1.7954,1.7891,1.7634,1.7214,1.7735,1.7872,1.7784,1.7906,1.7969,1.8008,1.8008,1.8008,1.8008,1.8008,1.8008,1.8008,1.8008,1.8037,1.8096,1.8144,1.8256,1.8471,1.8627,1.875,1.915,1.9287,1.9443,1.9728,1.9863,2.0156,2.04,2.039,2.04,2.0537,2.0556,2.0566,2.0566,2.0537,2.0556,2.0586,2.0615,2.0615,2.0615,2.0615,2.0615,2.0615,2.0615,2.0644,2.0693,2.0684,2.0752,2.082,2.0801,2.0791,2.0772,2.0732,2.0693,2.0664,2.0644,2.0693,2.0635,2.0615,2.0644,2.0723,2.0879,2.1094,2.0948,2.1035,2.0977,2.0791,2.0654,2.0693,2.0615,2.0615,2.0615,2.0615,2.0615,2.0615,2.0615,2.0615,2.0605,2.0605,2.0605,2.0595,2.0576,2.0595,2.0566,2.0515,2.0627,2.0896,2.1304,2.1533,2.2342,2.272,2.3159,2.3391,2.3461,2.3625,2.3848,2.4025,2.4284,2.4352,2.4255,2.456,2.5022,2.4946,2.4806,2.4808,2.4795,2.4594,2.4637,2.47,2.4637,2.4412,1.8008,1.8008,1.8008,1.793,1.7832,1.7949,1.8008,1.8008,1.8008,1.8008,1.8008,1.8008,1.8008,1.8008,1.8008,1.8018,1.8027,1.8027,1.8076,1.8383,1.8428,1.8701,1.8945,1.9056,1.917,1.9336,1.9521,1.9746,1.9845,2.0146,2.04,2.0586,2.0615,2.0605,2.0595,2.0615,2.0605,2.0605,2.0595,2.0605,2.0615,2.0625,2.0625,2.0644,2.0674,2.0664,2.0703,2.0732,2.0781,2.0967,2.1006,2.1103,2.1329,2.1398,2.1427,2.1447,2.1456,2.1445,2.1445,2.1416,2.1163,2.0879,2.0703,2.083,2.0986,2.1113,2.125,2.1396,2.1523,2.1416,2.1133,2.1045,2.0977,2.0683,2.0615,2.0615,2.0615,2.0615,2.0615,2.0615,2.0615,2.0771,2.083,2.1375,2.1452,2.1326,2.1336,2.0916,2.0739,2.0739,2.0881,2.1546,2.2099,2.3154,2.3902,2.4416,2.4908,2.5111,2.5335,2.5611,2.5789,2.5629,2.5636,2.5411,2.5803,2.6135,2.5845,2.5624,2.5837,2.5837,2.5435,2.5222,2.5297,2.5096,2.47,1.8008,1.8008,1.8008,1.8008,1.8008,1.8008,1.8008,1.8008,1.8008,1.8008,1.8008,1.8008,1.8008,1.8008,1.8008,1.812,1.8169,1.8208,1.8467,1.8818,1.8831,1.9131,1.9375,1.9531,1.9658,1.9736,1.9941,2.0156,2.0195,2.0468,2.0586,2.0595,2.0615,2.0615,2.0615,2.0615,2.0615,2.0615,2.0615,2.0674,2.0713,2.0781,2.0781,2.0957,2.1016,2.0928,2.1026,2.1104,2.1143,2.1377,2.1504,2.1592,2.1826,2.1904,2.1894,2.1936,2.1885,2.1865,2.1836,2.1826,2.1544,2.1231,2.1075,2.1162,2.1455,2.1609,2.1719,2.1855,2.2021,2.1836,2.1562,2.1453,2.1328,2.0996,2.1016,2.1036,2.1125,2.1144,2.1214,2.1165,2.1224,2.1263,2.1527,2.1992,2.2534,2.2321,2.2156,2.1714,2.1371,2.1497,2.1814,2.2601,2.3479,2.4734,2.5469,2.5768,2.6242,2.6684,2.6725,2.6663,2.6452,2.6129,2.6349,2.6499,2.6424,2.6386,2.6424,2.6424,2.6386,2.6248,2.5959,2.5858,2.5908,2.5611,2.5247,1.8008,1.8008,1.8008,1.8008,1.8008,1.8008,1.8008,1.8008,1.8008,1.8008,1.8008,1.8008,1.8057,1.8066,1.8057,1.8291,1.8568,1.8617,1.8936,1.9199,1.9297,1.96,1.9805,1.9941,2.0078,2.04,2.0546,2.0468,2.0586,2.0595,2.0605,2.0635,2.0703,2.0732,2.0703,2.082,2.0772,2.0781,2.0889,2.1006,2.1152,2.0997,2.1172,2.1377,2.1426,2.1435,2.1553,2.1699,2.1787,2.1885,2.1914,2.1924,2.1953,2.1934,2.1934,2.1963,2.2012,2.206,2.209,2.2129,2.208,2.1924,2.1924,2.1934,2.1963,2.2119,2.2197,2.2256,2.2363,2.2187,2.2002,2.1934,2.1855,2.1748,2.175,2.1842,2.1955,2.2036,2.2149,2.22,2.2301,2.2533,2.3206,2.363,2.3782,2.3721,2.3623,2.3515,2.3194,2.3134,2.361,2.4542,2.5502,2.66,2.708,2.696,2.7044,2.7306,2.7077,2.6964,2.6738,2.6725,2.6952,2.6989,2.6688,2.6612,2.6738,2.6713,2.6612,2.6474,2.6512,2.6348,2.6361,2.6298,2.6072,1.8008,1.8008,1.8008,1.8008,1.8008,1.8008,1.8008,1.8008,1.8008,1.8008,1.8008,1.8008,1.8149,1.8403,1.8422,1.873,1.8965,1.916,1.9394,1.959,1.9736,2.0029,2.0225,2.0352,2.0507,2.0556,2.0615,2.0615,2.0605,2.0615,2.0615,2.0625,2.085,2.0967,2.1124,2.1341,2.1262,2.1202,2.1309,2.1494,2.1611,2.1525,2.1709,2.1807,2.1816,2.1855,2.1943,2.1992,2.208,2.2295,2.2324,2.2422,2.2773,2.274,2.2793,2.274,2.275,2.2793,2.274,2.273,2.2682,2.2676,2.2662,2.2516,2.249,2.2461,2.2555,2.2623,2.2705,2.2621,2.2676,2.2629,2.2677,2.2753,2.2764,2.2909,2.3104,2.334,2.3452,2.3858,2.3939,2.429,2.4897,2.5043,2.5156,2.5147,2.5163,2.5135,2.4952,2.4861,2.5084,2.6007,2.6602,2.7481,2.7749,2.7726,2.7786,2.7821,2.7557,2.7419,2.7482,2.7507,2.7595,2.7482,2.7205,2.708,2.7067,2.7077,2.7077,2.7241,2.7231,2.7014,2.6801,2.6725,2.6549,1.8008,1.8008,1.8008,1.8008,1.8008,1.8008,1.8008,1.8008,1.8008,1.8008,1.8037,1.8193,1.8364,1.8578,1.8773,1.9121,1.9502,1.9551,1.9766,2.0088,2.0146,2.0312,2.0546,2.0615,2.0595,2.0615,2.0615,2.0615,2.0625,2.0635,2.0635,2.0889,2.1112,2.1328,2.1544,2.1822,2.194,2.1826,2.1821,2.1999,2.2019,2.2021,2.206,2.2275,2.2246,2.2207,2.2334,2.2344,2.2519,2.2682,2.2764,2.2808,2.3071,2.3081,2.3081,2.3033,2.3033,2.3013,2.3003,2.3033,2.3071,2.3091,2.3135,2.2945,2.2828,2.2769,2.2877,2.2964,2.3081,2.3148,2.3292,2.343,2.3647,2.3815,2.396,2.4103,2.4379,2.4654,2.5099,2.5563,2.5893,2.6222,2.6445,2.6504,2.6813,2.7245,2.7397,2.733,2.6876,2.6285,2.6459,2.7042,2.7459,2.799,2.8201,2.8448,2.8436,2.8335,2.8021,2.7959,2.8147,2.8109,2.7984,2.7896,2.7783,2.7695,2.7607,2.7607,2.7632,2.7783,2.7858,2.7657,2.7392,2.7128,2.6901,1.8008,1.8008,1.8008,1.8008,1.8008,1.8008,1.8037,1.8057,1.8096,1.8066,1.8154,1.8422,1.8646,1.8909,1.9209,1.957,1.9863,1.998,2.0117,2.0547,2.0517,2.0566,2.0576,2.0615,2.0615,2.0615,2.0625,2.0664,2.0693,2.0732,2.0937,2.1229,2.1375,2.158,2.1975,2.234,2.2477,2.2451,2.2275,2.2285,2.2389,2.2344,2.2314,2.2828,2.2789,2.2695,2.2935,2.3062,2.3101,2.3091,2.3081,2.3071,2.3081,2.3101,2.3101,2.3266,2.3343,2.3507,2.3507,2.3507,2.342,2.3343,2.3169,2.3105,2.2994,2.3335,2.3544,2.377,2.3899,2.4404,2.4651,2.4788,2.4933,2.5117,2.5313,2.562,2.6057,2.6421,2.6966,2.7387,2.7585,2.7873,2.7978,2.8043,2.811,2.8994,2.9146,2.8997,2.8632,2.778,2.78,2.8077,2.8375,2.8661,2.8799,2.9013,2.9013,2.885,2.8561,2.8524,2.8737,2.8561,2.8285,2.836,2.8461,2.8273,2.8172,2.8172,2.8185,2.8235,2.8285,2.826,2.8021,2.772,2.7419,1.8008,1.8008,1.8008,1.8008,1.8008,1.8008,1.8203,1.8442,1.8451,1.8461,1.8481,1.8617,1.8978,1.9465,1.9668,1.999,2.0293,2.0322,2.0488,2.0576,2.0605,2.0615,2.0615,2.0615,2.0615,2.0615,2.0644,2.0811,2.1204,2.1233,2.1329,2.176,2.2079,2.2502,2.2363,2.2791,2.3044,2.29,2.2785,2.2693,2.2808,2.2877,2.2964,2.3071,2.2955,2.2935,2.3101,2.3101,2.3101,2.3091,2.3091,2.3091,2.3101,2.3091,2.3101,2.3222,2.38,2.3963,2.4039,2.4006,2.4049,2.392,2.3757,2.3299,2.3343,2.4006,2.4467,2.467,2.4925,2.542,2.5964,2.6099,2.6265,2.6483,2.6689,2.7209,2.7695,2.8211,2.8803,2.8961,2.9157,2.9263,2.9328,2.9433,2.9626,2.9653,2.9653,2.9551,2.9514,2.8994,2.8869,2.9075,2.9263,2.9464,2.9515,2.9453,2.939,2.944,2.9264,2.9264,2.9302,2.9151,2.8988,2.9114,2.9164,2.8913,2.8737,2.8737,2.875,2.8775,2.8863,2.89,2.88,2.8536,2.821,1.8008,1.8008,1.8008,1.8081,1.8237,1.8291,1.8535,1.8841,1.8926,1.9033,1.9153,1.9238,1.9482,1.9971,2.0098,2.0264,2.0586,2.0595,2.0586,2.0595,2.0615,2.0615,2.0615,2.0644,2.0615,2.0625,2.0869,2.1194,2.206,2.2271,2.2504,2.2919,2.3369,2.351,2.312,2.3355,2.3551,2.3125,2.3178,2.3135,2.3135,2.3101,2.3101,2.3101,2.3101,2.3101,2.3101,2.3101,2.3101,2.3101,2.3101,2.3594,2.3551,2.3387,2.3474,2.3671,2.3963,2.4049,2.4168,2.4329,2.4585,2.4542,2.4414,2.4049,2.5052,2.5672,2.541,2.5493,2.4925,2.5252,2.6737,2.7197,2.7747,2.8079,2.8303,2.8633,2.8831,2.9118,2.9378,2.9417,2.9534,2.9534,2.9599,2.9599,2.9741,2.9741,2.9779,2.9779,2.9779,2.9779,2.9779,2.9779,2.9779,2.9779,2.9691,2.9666,2.9679,2.9754,2.9779,2.9679,2.9553,2.9666,2.9716,2.9603,2.9515,2.944,2.9315,2.9227,2.9289,2.934,2.9465,2.9591,2.944,2.9201,2.9001,1.8047,1.8086,1.8105,1.834,1.8646,1.8685,1.8965,1.9326,1.9375,1.96,1.9932,1.9961,1.999,2.0137,2.039,2.0527,2.0615,2.0615,2.0615,2.0615,2.0615,2.0615,2.0683,2.075,2.1109,2.1553,2.1964,2.2799,2.3737,2.382,2.4,2.4465,2.4676,2.4877,2.4055,2.4049,2.4296,2.3757,2.3507,2.3309,2.3178,2.3101,2.3101,2.3101,2.3101,2.3101,2.3101,2.3101,2.3101,2.3387,2.3507,2.392,2.4125,2.3963,2.4082,2.4329,2.4787,2.4617,2.4414,2.467,2.4914,2.5073,2.5031,2.5493,2.6502,2.6625,2.6367,2.6284,2.5661,2.6119,2.7562,2.8386,2.8976,2.9326,2.9495,2.9624,2.9702,2.9753,2.9779,2.9779,2.9779,2.9779,2.9779,2.9779,2.9779,2.9779,2.9779,2.9779,2.9779,2.9779,2.9779,2.9779,2.9779,2.9779,2.9779,2.9779,2.9779,2.9779,2.9779,2.9779,2.9779,2.9779,2.9779,2.9779,2.9704,2.9641,2.9654,2.9603,2.9704,2.9716,2.9729,2.9741,2.9704,2.9566,2.9654,1.8178,1.8481,1.8481,1.8734,1.9131,1.916,1.9404,1.9746,1.9795,2.0039,2.0437,2.0507,2.0478,2.0468,2.0537,2.0683,2.0828,2.075,2.0644,2.0615,2.0972,2.0828,2.1062,2.1917,2.256,2.317,2.3866,2.4724,2.5281,2.5329,2.5164,2.4955,2.4945,2.5009,2.4798,2.4872,2.4957,2.4542,2.4339,2.4211,2.3474,2.3309,2.3135,2.3101,2.3101,2.3101,2.3101,2.3101,2.3681,2.4168,2.45,2.4713,2.483,2.483,2.4872,2.5326,2.5775,2.6149,2.6066,2.6077,2.6397,2.6726,2.6685,2.6295,2.6924,2.6964,2.7128,2.7855,2.7695,2.8239,2.9236,2.9236,2.9611,2.9611,2.9702,2.974,2.974,2.9779,2.9779,2.9779,2.9779,2.9779,2.9779,2.9779,2.9779,2.9779,2.9779,2.9779,2.9779,2.9779,2.9779,2.9779,2.9779,2.9779,2.9779,2.9779,2.9779,2.9779,2.9779,2.9779,2.9779,2.9779,2.9779,2.9779,2.9779,2.9741,2.9779,2.9779,2.9779,2.9754,2.9767,2.9779,2.9779,2.9779,2.9779]},{"header":{"parameterUnit":"m.s-1","parameterCategory":1,"la1":31.0,"la2":29.5877,"lo1":-88.7671,"lo2":-86.6584,"dy":0.0162,"dx":0.0185,"nx":115,"ny":88,"refTime":"2024-10-07T18:00:00:Z","depth":0,"parameterNumber":3,"parameterNumberName":"V-component_of_WINDS"},"data":[0.0,0.0,0.0,0.0,0.0,0.0,0.0,0.0,0.0,0.0,0.0,0.0,0.0,0.0,0.0,0.0,0.0,0.0,0.0,0.0,0.0,0.0,0.0,0.0,0.0,0.0,0.0,0.0,0.0,0.0,0.0,0.0,0.0,0.0,0.0,0.0,0.0,0.0,0.0,0.0,0.0,0.0,0.0,0.0,0.0,0.0,0.0,0.0,0.0,0.0,0.0,0.0,0.0,0.0,0.0,0.0,0.0,0.0,0.0,0.0,0.0,0.0,0.0,0.0,0.0,0.0,0.0,0.0,0.0,0.0,0.0,0.0,0.0,0.0,0.0,0.0,0.0,0.0,0.0,0.0,0.0,0.0,0.0,0.0,0.0,0.0,0.0,0.0,0.0,0.0,0.0,0.0,0.0,0.0,0.0,0.0,0.0,0.0,0.0,0.0,0.0,0.0,0.0,0.0,0.0,0.0,0.0,0.0,0.0,0.0,0.0,0.0,0.0,0.0,0.0,0.0,0.0,0.0,0.0,0.0,0.0,0.0,0.0,0.0,0.0,0.0,0.0,0.0,0.0,0.0,0.0,0.0,0.0,0.0,0.0,0.0,0.0,0.0,0.0,0.0,0.0,0.0,0.0,0.0,0.0,0.0,0.0,0.0,0.0,0.0,0.0,0.0,0.0,0.0,0.0,0.0,0.0,0.0,0.0,0.0,0.0,0.0,0.0,0.0,0.0,0.0,0.0,0.0,0.0,0.0,0.0,0.0,0.0,0.0,0.0,0.0,0.0,0.0,0.0,0.0,0.0,0.0,0.0,0.0,0.0,0.0,0.0,0.0,0.0,0.0,0.0,0.0,0.0,0.0,0.0,0.0,0.0,0.0,0.0,0.0,0.0,0.0,0.0,0.0,0.0,0.0,0.0,0.0,0.0,0.0,0.0,0.0,0.0,0.0,0.0,0.0,0.0,0.0,0.0,0.0,0.0,0.0,0.0,0.0,0.0,0.0,0.0,0.0,0.0,0.0,0.0,0.0,0.0,0.0,0.0,0.0,0.0,0.0,0.0,0.0,0.0,0.0,0.0,0.0,0.0,0.0,0.0,0.0,0.0,0.0,0.0,0.0,0.0,0.0,0.0,0.0,0.0,0.0,0.0,0.0,0.0,0.0,0.0,0.0,0.0,0.0,0.0,0.0,0.0,0.0,0.0,0.0,0.0,0.0,0.0,0.0,0.0,0.0,0.0,0.0,0.0,0.0,0.0,0.0,0.0,0.0,0.0,0.0,0.0,0.0,0.0,0.0,0.0,0.0,0.0,0.0,0.0,0.0,0.0,0.0,0.0,0.0,0.0,0.0,0.0,0.0,0.0,0.0,0.0,0.0,0.0,0.0,0.0,0.0,0.0,0.0,0.0,0.0,0.0,0.0,0.0,0.0,0.0,0.0,0.0,0.0,0.0,0.0,0.0,0.0,0.0,0.0,0.0,0.0,0.0,0.0,0.0,0.0,0.0,0.0,0.0,0.0,0.0,0.0,0.0,0.0,0.0,0.0,0.0,0.0,0.0,0.0,0.0,0.0,0.0,0.0,0.0,0.0,0.0,0.0,0.0,0.0,0.0,0.0,0.0,0.0,0.0,0.0,0.0,0.0,0.0,0.0,0.0,0.0,0.0,0.0,0.0,0.0,0.0,0.0,0.0,0.0,0.0,0.0,0.0,0.0,0.0,0.0,0.0,0.0,0.0,0.0,0.0,0.0,0.0,0.0,0.0,0.0,0.0,0.0,0.0,0.0,0.0,0.0,0.0,0.0,0.0,0.0,0.0,0.0,0.0,0.0,0.0,0.0,0.0,0.0,0.0,0.0,0.0,0.0,0.0,0.0,0.0,0.0,0.0,0.0,0.0,0.0,0.0,0.0,0.0,0.0,0.0,0.0,0.0,0.0,0.0,0.0,0.0,0.0,0.0,0.0,0.0,0.0,0.0,0.0,0.0,0.0,0.0,0.0,0.0,0.0,0.0,0.0,0.0,0.0,0.0,0.0,0.0,0.0,0.0,0.0,0.0,0.0,0.0,0.0,0.0,0.0,0.0,0.0,0.0,0.0,0.0,0.0,0.0,0.0,0.0,0.0,0.0,0.0,0.0,0.0,0.0,0.0,0.0,0.0,0.0,0.0,0.0,0.0,0.0,0.0,0.0,0.0,0.0,0.0,0.0,0.0,0.0,0.0,0.0,0.0,0.0,0.0,0.0,0.0,0.0,0.0,0.0,0.0,0.0,0.0,0.0,0.0,0.0,0.0,0.0,0.0,0.0,0.0,0.0,0.0,0.0,0.0,0.0,0.0,0.0,0.0,0.0,0.0,0.0,0.0,0.0,0.0,0.0,0.0,0.0,0.0,0.0,0.0,0.0,0.0,0.0,0.0,0.0,0.0,0.0,0.0,0.0,0.0,0.0,0.0,0.0,0.0,0.0,0.0,0.0,0.0,0.0,0.0,0.0,0.0,0.0,0.0,0.0,0.0,0.0,0.0,0.0,0.0,0.0,0.0,0.0,0.0,0.0,0.0,0.0,0.0,0.0,0.0,0.0,0.0,0.0,0.0,0.0,0.0,0.0,0.0,0.0,0.0,0.0,0.0,0.0,0.0,0.0,0.0,0.0,0.0,0.0,0.0,0.0,0.0,0.0,0.0,0.0,0.0,0.0,0.0,0.0,0.0,0.0,0.0,0.0,0.0,0.0,0.0,0.0,0.0,0.0,0.0,0.0,0.0,0.0,0.0,0.0,0.0,0.0,0.0,0.0,0.0,0.0,0.0,0.0,0.0,0.0,0.0,0.0,0.0,0.0,0.0,0.0,0.0,0.0,0.0,0.0,0.0,0.0,0.0,0.0,0.0,0.0,0.0,0.0,0.0,0.0,0.0,0.0,0.0,0.0,0.0,0.0,0.0,0.0,0.0,0.0,0.0,0.0,0.0,0.0,0.0,0.0,0.0,0.0,0.0,0.0,0.0,0.0,0.0,0.0,0.0,0.0,0.0,0.0,0.0,0.0,0.0,0.0,0.0,0.0,0.0,0.0,0.0,0.0,0.0,0.0,0.0,0.0,0.0,0.0,0.0,0.0,0.0,0.0,0.0,0.0,0.0,0.0,0.0,0.0,0.0,0.0,0.0,0.0,0.0,0.0,0.0,0.0,0.0,0.0,0.0,0.0,0.0,0.0,0.0,0.0,0.0,0.0,0.0,0.0,0.0,0.0,0.0,0.0,0.0,0.0,0.0,0.0,0.0,0.0,0.0,0.0,0.0,0.0,0.0,0.0,0.0,0.0,0.0,0.0,0.0,0.0,0.0,0.0,0.0,0.0,0.0,0.0,0.0,0.0,0.0,0.0,0.0,0.0,0.0,0.0,0.0,0.0,0.0,0.0,0.0,0.0,0.0,0.0,0.0,0.0,0.0,0.0,0.0,0.0,0.0,0.0,0.0,0.0,0.0,0.0,0.0,0.0,0.0,0.0,0.0,0.0,0.0,0.0,0.0,0.0,0.0,0.0,0.0,0.0,0.0,0.0,0.0,0.0,0.0,0.0,0.0,0.0,0.0,0.0,0.0,0.0,0.0,0.0,0.0,0.0,0.0,0.0,0.0,0.0,0.0,0.0,0.0,0.0,0.0,0.0,0.0,0.0,0.0,0.0,0.0,0.0,0.0,0.0,0.0,0.0,0.0,0.0,0.0,0.0,0.0,0.0,0.0,0.0,0.0,0.0,0.0,0.0,0.0,0.0,0.0,0.0,0.0,0.0,0.0,0.0,0.0,0.0,0.0,0.0,0.0,0.0,0.0,0.0,0.0,0.0,0.0,0.0,0.0,0.0,0.0,0.0,0.0,0.0,0.0,0.0,0.0,0.0,0.0,0.0,0.0,0.0,0.0,0.0,0.0,0.0,0.0,0.0,0.0,0.0,0.0,0.0,0.0,0.0,0.0,0.0,0.0,0.0,0.0,0.0,0.0,0.0,0.0,0.0,0.0,0.0,0.0,0.0,0.0,0.0,0.0,0.0,0.0,0.0,0.0,0.0,0.0,0.0,0.0,0.0,0.0,0.0,0.0,0.0,0.0,0.0,0.0,0.0,0.0,0.0,0.0,0.0,0.0,0.0,0.0,0.0,0.0,0.0,0.0,0.0,0.0,0.0,0.0,0.0,0.0,0.0,0.0,0.0,0.0,0.0,0.0,0.0,0.0,0.0,0.0,0.0,0.0,0.0,0.0,0.0,0.0,0.0,0.0,0.0,0.0,0.0,0.0,2.0603,0.0,0.0,0.0,0.0,0.0,0.0,0.0,0.0,0.0,0.0,0.0,0.0,0.0,0.0,0.0,0.0,0.0,0.0,0.0,0.0,0.0,0.0,0.0,0.0,0.0,0.0,0.0,0.0,0.0,0.0,0.0,0.0,0.0,0.0,0.0,0.0,0.0,0.0,0.0,0.0,0.0,0.0,0.0,0.0,0.0,0.0,0.0,0.0,0.0,0.0,0.0,0.0,0.0,0.0,0.0,0.0,0.0,0.0,0.0,0.0,0.0,0.0,0.0,0.0,0.0,0.0,0.0,0.0,0.0,0.0,0.0,0.0,0.0,0.0,0.0,0.0,0.0,0.0,0.0,0.0,0.0,0.0,0.0,0.0,0.0,0.0,0.0,0.0,0.0,0.0,0.0,0.0,0.0,0.0,0.0,0.0,0.0,0.0,0.0,0.0,0.0,0.0,0.0,0.0,0.0,0.0,0.0,0.0,0.0,0.0,2.2286,2.2401,2.2456,2.2319,2.1856,0.0,0.0,0.0,0.0,0.0,0.0,0.0,0.0,0.0,0.0,0.0,0.0,0.0,0.0,0.0,0.0,0.0,0.0,0.0,0.0,0.0,0.0,0.0,0.0,0.0,0.0,0.0,0.0,0.0,0.0,0.0,0.0,0.0,0.0,0.0,0.0,0.0,0.0,0.0,0.0,0.0,0.0,0.0,0.0,0.0,0.0,0.0,0.0,0.0,0.0,0.0,0.0,0.0,0.0,0.0,0.0,0.0,0.0,0.0,0.0,0.0,0.0,0.0,0.0,0.0,0.0,0.0,0.0,0.0,0.0,0.0,0.0,0.0,0.0,0.0,0.0,0.0,0.0,0.0,0.0,0.0,0.0,0.0,0.0,0.0,0.0,0.0,0.0,0.0,0.0,0.0,0.0,0.0,0.0,0.0,0.0,0.0,0.0,0.0,0.0,0.0,0.0,0.0,0.0,0.0,0.0,0.0,0.0,0.0,0.0,0.0,0.0,2.3268,2.301,2.2392,0.0,0.0,0.0,0.0,0.0,0.0,0.0,0.0,0.0,0.0,0.0,0.0,0.0,0.0,0.0,0.0,0.0,0.0,0.0,0.0,0.0,0.0,0.0,0.0,0.0,0.0,0.0,0.0,0.0,0.0,0.0,0.0,0.0,0.0,0.0,0.0,0.0,0.0,0.0,0.0,0.0,0.0,0.0,0.0,0.0,0.0,0.0,0.0,0.0,0.0,0.0,0.0,0.0,0.0,0.0,0.0,0.0,0.0,0.0,0.0,0.0,0.0,0.0,0.0,0.0,0.0,0.0,0.0,0.0,0.0,0.0,0.0,0.0,0.0,0.0,0.0,0.0,0.0,0.0,0.0,0.0,0.0,0.0,0.0,0.0,0.0,0.0,0.0,0.0,0.0,0.0,0.0,0.0,0.0,0.0,0.0,0.0,0.0,0.0,0.0,0.0,0.0,0.0,0.0,0.0,0.0,0.0,0.0,0.0,0.0,2.3853,2.3978,2.4006,0.0,2.1301,0.0,0.0,0.0,0.0,0.0,0.0,0.0,0.0,0.0,0.0,0.0,0.0,0.0,0.0,0.0,0.0,0.0,0.0,0.0,0.0,0.0,0.0,0.0,0.0,0.0,0.0,0.0,0.0,0.0,0.0,0.0,0.0,0.0,0.0,0.0,0.0,0.0,0.0,0.0,0.0,0.0,0.0,0.0,0.0,0.0,0.0,0.0,0.0,0.0,0.0,0.0,0.0,0.0,0.0,0.0,0.0,0.0,0.0,0.0,0.0,0.0,0.0,0.0,0.0,0.0,0.0,0.0,0.0,0.0,0.0,0.0,0.0,0.0,0.0,0.0,0.0,0.0,0.0,0.0,0.0,0.0,0.0,0.0,0.0,0.0,0.0,0.0,0.0,0.0,0.0,0.0,0.0,0.0,0.0,0.0,0.0,0.0,0.0,0.0,0.0,0.0,0.0,0.0,0.0,0.0,0.0,0.0,0.0,0.0,0.0,0.0,2.5343,2.5231,2.4014,0.0,0.0,0.0,0.0,0.0,0.0,0.0,0.0,0.0,0.0,0.0,0.0,0.0,0.0,0.0,0.0,0.0,0.0,0.0,0.0,0.0,0.0,0.0,0.0,0.0,0.0,0.0,0.0,0.0,0.0,0.0,0.0,0.0,0.0,0.0,0.0,0.0,0.0,0.0,0.0,0.0,0.0,0.0,0.0,0.0,0.0,0.0,0.0,0.0,0.0,0.0,0.0,0.0,0.0,0.0,0.0,0.0,0.0,0.0,0.0,0.0,0.0,0.0,0.0,0.0,0.0,0.0,0.0,0.0,0.0,0.0,0.0,0.0,0.0,0.0,0.0,0.0,0.0,0.0,0.0,0.0,0.0,0.0,0.0,0.0,0.0,0.0,0.0,0.0,0.0,0.0,0.0,0.0,0.0,0.0,0.0,0.0,0.0,0.0,0.0,0.0,0.0,0.0,0.0,0.0,0.0,0.0,0.0,0.0,0.0,2.55,0.0,2.5967,2.6017,2.4765,2.2132,0.0,0.0,0.0,0.0,0.0,0.0,0.0,0.0,0.0,0.0,0.0,0.0,0.0,0.0,0.0,0.0,0.0,0.0,0.0,0.0,0.0,0.0,0.0,0.0,0.0,0.0,0.0,0.0,0.0,0.0,0.0,0.0,0.0,0.0,0.0,0.0,0.0,0.0,0.0,0.0,0.0,0.0,0.0,0.0,0.0,0.0,0.0,0.0,0.0,0.0,0.0,0.0,0.0,0.0,0.0,0.0,0.0,0.0,0.0,0.0,0.0,0.0,0.0,0.0,0.0,0.0,0.0,0.0,0.0,0.0,0.0,0.0,0.0,0.0,0.0,0.0,0.0,0.0,0.0,0.0,0.0,0.0,0.0,0.0,0.0,0.0,0.0,0.0,0.0,0.0,0.0,0.0,0.0,0.0,0.0,0.0,0.0,0.0,0.0,0.0,0.0,0.0,0.0,0.0,0.0,0.0,0.0,0.0,0.0,2.536,2.5401,2.5496,2.6048,2.5116,0.0,0.0,0.0,0.0,0.0,0.0,0.0,0.0,0.0,0.0,0.0,0.0,0.0,0.0,0.0,0.0,0.0,0.0,0.0,0.0,0.0,0.0,0.0,0.0,0.0,0.0,0.0,0.0,0.0,0.0,0.0,0.0,0.0,0.0,0.0,0.0,0.0,0.0,0.0,0.0,0.0,0.0,0.0,0.0,0.0,0.0,0.0,0.0,0.0,0.0,0.0,0.0,0.0,0.0,0.0,0.0,0.0,0.0,0.0,0.0,0.0,0.0,0.0,0.0,0.0,0.0,0.0,0.0,0.0,0.0,0.0,0.0,0.0,0.0,0.0,0.0,0.0,0.0,0.0,0.0,0.0,0.0,0.0,0.0,0.0,0.0,0.0,0.0,0.0,0.0,0.0,0.0,0.0,0.0,0.0,0.0,0.0,0.0,0.0,0.0,0.0,0.0,0.0,0.0,0.0,0.0,0.0,0.0,0.0,2.5301,2.5876,2.6148,2.6183,2.6404,2.5286,0.0,0.0,0.0,0.0,0.0,0.0,0.0,0.0,0.0,0.0,0.0,0.0,0.0,0.0,0.0,0.0,0.0,0.0,0.0,0.0,0.0,0.0,0.0,0.0,0.0,0.0,0.0,0.0,0.0,0.0,0.0,0.0,0.0,0.0,0.0,0.0,0.0,0.0,0.0,0.0,0.0,0.0,0.0,0.0,0.0,0.0,0.0,0.0,0.0,0.0,0.0,0.0,0.0,0.0,0.0,0.0,0.0,0.0,0.0,0.0,0.0,0.0,0.0,0.0,0.0,0.0,0.0,0.0,0.0,0.0,0.0,0.0,0.0,0.0,0.0,0.0,0.0,0.0,0.0,0.0,0.0,0.0,0.0,0.0,0.0,0.0,0.0,0.0,0.0,0.0,0.0,0.0,0.0,0.0,0.0,0.0,0.0,0.0,0.0,0.0,0.0,0.0,0.0,0.0,0.0,0.0,0.0,0.0,0.0,2.4832,0.0,2.6285,0.0,2.6323,2.5264,0.0,0.0,0.0,0.0,0.0,0.0,0.0,0.0,0.0,0.0,0.0,0.0,0.0,0.0,0.0,0.0,0.0,0.0,0.0,0.0,0.0,0.0,0.0,0.0,0.0,0.0,0.0,0.0,0.0,0.0,0.0,0.0,0.0,0.0,0.0,0.0,0.0,0.0,0.0,0.0,0.0,0.0,0.0,0.0,0.0,0.0,0.0,0.0,0.0,0.0,0.0,0.0,0.0,0.0,0.0,0.0,0.0,0.0,0.0,0.0,0.0,0.0,0.0,0.0,0.0,0.0,0.0,0.0,0.0,0.0,0.0,0.0,0.0,0.0,0.0,0.0,0.0,0.0,0.0,0.0,0.0,0.0,0.0,0.0,0.0,0.0,0.0,0.0,0.0,0.0,0.0,0.0,0.0,0.0,0.0,0.0,0.0,0.0,0.0,0.0,0.0,0.0,0.0,0.0,0.0,0.0,0.0,0.0,2.2258,2.3777,2.5205,2.5558,2.4846,2.5687,2.5027,0.0,0.0,0.0,0.0,0.0,0.0,0.0,0.0,0.0,0.0,0.0,0.0,0.0,0.0,0.0,0.0,0.0,0.0,0.0,0.0,0.0,0.0,0.0,0.0,0.0,0.0,0.0,0.0,0.0,0.0,0.0,0.0,0.0,0.0,0.0,0.0,0.0,0.0,0.0,0.0,0.0,0.0,0.0,0.0,0.0,0.0,0.0,0.0,0.0,0.0,0.0,0.0,0.0,0.0,0.0,0.0,0.0,0.0,0.0,0.0,0.0,0.0,0.0,0.0,0.0,0.0,0.0,0.0,0.0,0.0,0.0,0.0,0.0,0.0,0.0,0.0,0.0,0.0,0.0,0.0,0.0,0.0,0.0,0.0,0.0,0.0,0.0,0.0,0.0,0.0,0.0,0.0,0.0,0.0,0.0,0.0,0.0,0.0,0.0,0.0,0.0,0.0,0.0,0.0,0.0,0.0,0.0,0.0,0.0,2.3282,2.4072,2.4383,2.4202,2.4644,2.4118,0.0,0.0,0.0,0.0,0.0,0.0,0.0,0.0,0.0,0.0,0.0,0.0,0.0,0.0,0.0,0.0,0.0,0.0,0.0,0.0,0.0,0.0,0.0,0.0,0.0,0.0,0.0,0.0,0.0,0.0,0.0,0.0,0.0,0.0,0.0,0.0,0.0,0.0,0.0,0.0,0.0,0.0,0.0,0.0,0.0,0.0,0.0,0.0,0.0,0.0,0.0,0.0,0.0,0.0,0.0,0.0,0.0,0.0,0.0,0.0,0.0,0.0,0.0,0.0,0.0,0.0,0.0,0.0,0.0,0.0,0.0,0.0,0.0,0.0,0.0,0.0,0.0,0.0,0.0,0.0,0.0,0.0,0.0,0.0,0.0,0.0,0.0,0.0,0.0,0.0,0.0,0.0,0.0,0.0,0.0,0.0,0.0,0.0,0.0,0.0,0.0,0.0,0.0,0.0,0.0,0.0,0.0,0.0,0.0,2.2348,2.3118,2.3455,2.3292,2.3792,2.34,2.2067,0.0,0.0,0.0,0.0,0.0,0.0,0.0,0.0,0.0,0.0,0.0,0.0,0.0,0.0,0.0,0.0,0.0,0.0,0.0,0.0,0.0,0.0,0.0,0.0,0.0,0.0,0.0,0.0,0.0,0.0,0.0,0.0,0.0,0.0,0.0,0.0,0.0,0.0,0.0,0.0,0.0,0.0,0.0,0.0,0.0,0.0,0.0,0.0,0.0,0.0,0.0,0.0,0.0,0.0,0.0,0.0,0.0,0.0,0.0,0.0,0.0,0.0,0.0,0.0,0.0,0.0,0.0,0.0,0.0,0.0,0.0,0.0,0.0,0.0,0.0,0.0,0.0,0.0,0.0,0.0,0.0,0.0,0.0,0.0,0.0,0.0,0.0,0.0,0.0,0.0,0.0,0.0,0.0,0.0,0.0,0.0,0.0,0.0,0.0,0.0,0.0,0.0,0.0,0.0,0.0,0.0,0.0,0.0,2.1081,2.2287,2.2702,2.2272,2.3047,2.2852,0.0,0.0,0.0,0.0,0.0,0.0,0.0,0.0,0.0,0.0,0.0,0.0,0.0,0.0,0.0,0.0,0.0,0.0,0.0,0.0,0.0,0.0,0.0,0.0,0.0,0.0,0.0,0.0,0.0,0.0,0.0,0.0,0.0,0.0,0.0,0.0,0.0,0.0,0.0,0.0,0.0,0.0,0.0,0.0,0.0,0.0,0.0,0.0,0.0,0.0,0.0,0.0,0.0,0.0,0.0,0.0,0.0,0.0,0.0,0.0,0.0,0.0,0.0,0.0,0.0,0.0,0.0,0.0,0.0,0.0,0.0,0.0,0.0,0.0,0.0,0.0,0.0,0.0,0.0,0.0,0.0,0.0,0.0,0.0,0.0,0.0,0.0,0.0,0.0,0.0,0.0,0.0,0.0,0.0,0.0,0.0,0.0,0.0,0.0,0.0,0.0,0.0,0.0,0.0,0.0,0.0,0.0,0.0,0.0,2.0558,2.0797,2.1159,2.1526,2.1694,2.1724,0.0,0.0,0.0,0.0,0.0,0.0,0.0,0.0,0.0,0.0,0.0,0.0,0.0,0.0,0.0,0.0,0.0,0.0,0.0,0.0,0.0,0.0,0.0,0.0,0.0,0.0,0.0,0.0,0.0,0.0,0.0,0.0,0.0,0.0,0.0,0.0,0.0,0.0,0.0,0.0,0.0,0.0,0.0,0.0,0.0,0.0,0.0,0.0,0.0,0.0,0.0,0.0,0.0,0.0,0.0,0.0,0.0,0.0,0.0,0.0,0.0,0.0,0.0,0.0,0.0,0.0,0.0,0.0,0.0,0.0,0.0,0.0,0.0,0.0,0.0,0.0,0.0,0.0,0.0,0.0,0.0,0.0,0.0,0.0,0.0,0.0,0.0,0.0,0.0,0.0,0.0,0.0,0.0,0.0,0.0,0.0,0.0,0.0,0.0,0.0,0.0,0.0,0.0,0.0,0.0,0.0,0.0,0.0,2.0855,2.0108,1.9763,1.9725,1.9951,2.0478,2.0889,0.0,0.0,0.0,0.0,0.0,0.0,0.0,0.0,0.0,0.0,0.0,0.0,0.0,0.0,0.0,0.0,0.0,0.0,0.0,0.0,0.0,0.0,0.0,0.0,0.0,0.0,0.0,0.0,0.0,0.0,0.0,0.0,0.0,0.0,0.0,0.0,0.0,0.0,0.0,0.0,0.0,0.0,0.0,0.0,0.0,0.0,0.0,0.0,0.0,0.0,0.0,0.0,0.0,0.0,0.0,0.0,0.0,0.0,0.0,0.0,0.0,0.0,0.0,0.0,0.0,0.0,0.0,0.0,0.0,0.0,0.0,0.0,0.0,0.0,0.0,0.0,0.0,0.0,0.0,0.0,0.0,0.0,0.0,0.0,0.0,0.0,0.0,0.0,0.0,0.0,0.0,0.0,0.0,0.0,0.0,0.0,0.0,0.0,0.0,0.0,0.0,0.0,0.0,0.0,0.0,0.0,0.0,0.0,2.0607,1.9672,1.8987,1.8426,1.8072,1.9355,2.0177,0.0,0.0,0.0,0.0,0.0,0.0,0.0,0.0,0.0,0.0,0.0,0.0,0.0,0.0,0.0,0.0,0.0,0.0,0.0,0.0,0.0,0.0,0.0,0.0,0.0,0.0,0.0,0.0,0.0,0.0,0.0,0.0,0.0,0.0,0.0,0.0,0.0,0.0,0.0,0.0,0.0,0.0,0.0,0.0,0.0,0.0,0.0,0.0,0.0,0.0,0.0,0.0,0.0,0.0,0.0,0.0,0.0,0.0,0.0,0.0,0.0,0.0,0.0,0.0,0.0,0.0,0.0,0.0,0.0,0.0,0.0,0.0,0.0,0.0,0.0,0.0,0.0,0.0,0.0,0.0,0.0,0.0,0.0,0.0,0.0,0.0,0.0,0.0,0.0,0.0,0.0,0.0,0.0,0.0,0.0,0.0,0.0,0.0,0.0,0.0,0.0,0.0,0.0,0.0,0.0,0.0,0.0,0.0,1.9253,1.8773,1.8025,1.7572,1.7483,1.8182,1.8914,0.0,0.0,0.0,0.0,0.0,0.0,0.0,0.0,0.0,0.0,0.0,0.0,0.0,0.0,0.0,0.0,0.0,0.0,0.0,0.0,0.0,0.0,0.0,0.0,0.0,0.0,0.0,0.0,0.0,0.0,0.0,0.0,0.0,0.0,0.0,0.0,0.0,0.0,0.0,0.0,0.0,0.0,0.0,0.0,0.0,0.0,0.0,0.0,2.3067,0.0,0.0,0.0,0.0,0.0,0.0,0.0,0.0,0.0,0.0,0.0,0.0,0.0,0.0,0.0,0.0,0.0,0.0,0.0,0.0,0.0,0.0,0.0,0.0,0.0,0.0,0.0,0.0,0.0,0.0,0.0,0.0,0.0,0.0,0.0,0.0,0.0,0.0,0.0,0.0,0.0,0.0,0.0,0.0,0.0,0.0,0.0,0.0,0.0,0.0,0.0,0.0,0.0,0.0,0.0,0.0,0.0,0.0,0.0,1.8987,1.8416,1.7686,1.7167,1.6951,1.7325,1.7822,0.0,0.0,0.0,0.0,0.0,0.0,0.0,0.0,0.0,0.0,0.0,0.0,0.0,0.0,0.0,0.0,0.0,0.0,0.0,0.0,0.0,0.0,0.0,0.0,0.0,0.0,0.0,0.0,0.0,0.0,0.0,0.0,0.0,0.0,0.0,0.0,0.0,0.0,0.0,0.0,0.0,0.0,0.0,0.0,0.0,0.0,0.0,0.0,0.0,0.0,0.0,0.0,0.0,0.0,0.0,0.0,0.0,0.0,0.0,0.0,0.0,0.0,0.0,0.0,0.0,0.0,0.0,0.0,0.0,0.0,0.0,0.0,0.0,0.0,0.0,0.0,0.0,0.0,0.0,0.0,0.0,0.0,0.0,0.0,0.0,0.0,0.0,0.0,0.0,0.0,0.0,0.0,0.0,0.0,0.0,0.0,0.0,0.0,0.0,0.0,0.0,0.0,0.0,0.0,0.0,0.0,0.0,1.9067,1.9008,1.8269,1.747,1.6811,1.638,1.6488,1.6566,1.6537,0.0,0.0,0.0,0.0,0.0,0.0,0.0,0.0,0.0,0.0,0.0,0.0,0.0,0.0,0.0,0.0,0.0,0.0,0.0,0.0,0.0,0.0,0.0,0.0,0.0,0.0,0.0,0.0,0.0,0.0,0.0,0.0,0.0,0.0,0.0,0.0,0.0,0.0,2.2331,2.3203,0.0,0.0,0.0,0.0,0.0,0.0,0.0,0.0,2.3685,0.0,0.0,0.0,0.0,0.0,0.0,0.0,0.0,0.0,0.0,0.0,0.0,0.0,0.0,0.0,0.0,0.0,0.0,0.0,0.0,0.0,0.0,0.0,0.0,0.0,0.0,0.0,0.0,0.0,0.0,0.0,0.0,0.0,0.0,0.0,0.0,0.0,0.0,0.0,0.0,0.0,0.0,0.0,0.0,0.0,0.0,0.0,0.0,0.0,0.0,0.0,0.0,0.0,0.0,0.0,0.0,1.816,1.8328,1.8338,1.8112,1.6655,1.5818,1.5742,1.5298,1.4449,1.3246,0.0,0.0,0.0,0.0,0.0,0.0,0.0,0.0,0.0,0.0,0.0,0.0,0.0,0.0,0.0,0.0,0.0,0.0,0.0,0.0,0.0,0.0,0.0,0.0,0.0,0.0,0.0,0.0,0.0,0.0,0.0,0.0,0.0,0.0,0.0,0.0,0.0,0.0,0.0,2.4006,2.4127,0.0,0.0,0.0,0.0,0.0,0.0,0.0,0.0,2.3959,0.0,0.0,0.0,0.0,0.0,0.0,0.0,0.0,0.0,0.0,0.0,0.0,0.0,0.0,0.0,0.0,0.0,0.0,0.0,0.0,0.0,0.0,0.0,0.0,0.0,0.0,0.0,0.0,0.0,0.0,0.0,0.0,0.0,0.0,0.0,0.0,0.0,0.0,0.0,0.0,0.0,0.0,0.0,0.0,0.0,0.0,0.0,0.0,0.0,0.0,0.0,0.0,0.0,0.0,0.0,1.7983,1.8143,1.8196,1.8072,1.6778,1.5908,1.561,1.5186,1.3972,0.0,0.0,0.0,0.0,0.0,0.0,0.0,0.0,0.0,0.0,0.0,0.0,0.0,0.0,0.0,0.0,0.0,0.0,0.0,0.0,0.0,0.0,0.0,0.0,0.0,0.0,0.0,0.0,0.0,0.0,0.0,0.0,0.0,0.0,0.0,0.0,0.0,0.0,0.0,0.0,2.4862,2.5206,2.5275,0.0,0.0,0.0,0.0,0.0,0.0,2.453,2.4362,0.0,0.0,0.0,0.0,0.0,0.0,0.0,0.0,0.0,0.0,0.0,0.0,0.0,0.0,0.0,0.0,0.0,0.0,0.0,0.0,0.0,0.0,0.0,0.0,0.0,0.0,0.0,0.0,0.0,0.0,0.0,0.0,0.0,0.0,0.0,0.0,0.0,0.0,0.0,0.0,0.0,0.0,0.0,0.0,0.0,0.0,0.0,0.0,0.0,0.0,0.0,0.0,0.0,0.0,0.0,1.7827,1.8179,1.8288,1.8052,1.6938,1.6095,1.561,1.5152,1.3704,0.0,0.0,0.0,0.0,0.0,0.0,0.0,0.0,0.0,0.0,0.0,0.0,0.0,0.0,0.0,0.0,0.0,0.0,0.0,0.0,0.0,0.0,0.0,0.0,0.0,0.0,0.0,0.0,0.0,0.0,0.0,0.0,0.0,0.0,0.0,0.0,0.0,0.0,0.0,0.0,0.0,2.6443,2.6516,2.6689,0.0,0.0,0.0,0.0,2.5075,2.5151,0.0,0.0,0.0,0.0,0.0,0.0,0.0,0.0,0.0,0.0,0.0,0.0,0.0,0.0,0.0,0.0,0.0,0.0,0.0,0.0,0.0,0.0,0.0,0.0,0.0,0.0,0.0,0.0,0.0,0.0,0.0,0.0,0.0,0.0,0.0,0.0,0.0,0.0,0.0,0.0,0.0,0.0,0.0,0.0,0.0,0.0,0.0,0.0,0.0,0.0,0.0,0.0,0.0,0.0,0.0,0.0,1.7843,1.8314,1.8407,1.8033,1.6528,1.5676,1.5576,1.4423,1.2817,0.0,0.0,0.0,0.0,0.0,0.0,0.0,0.0,0.0,0.0,0.0,0.0,0.0,0.0,0.0,0.0,0.0,0.0,0.0,0.0,0.0,0.0,0.0,0.0,0.0,0.0,0.0,0.0,0.0,0.0,0.0,0.0,0.0,0.0,0.0,0.0,0.0,0.0,0.0,0.0,0.0,2.7534,2.7607,2.8228,2.8172,0.0,0.0,2.6896,2.5554,2.6361,0.0,0.0,0.0,0.0,0.0,0.0,0.0,0.0,0.0,0.0,0.0,0.0,0.0,0.0,0.0,0.0,0.0,0.0,0.0,0.0,0.0,0.0,0.0,0.0,0.0,0.0,0.0,0.0,0.0,0.0,0.0,0.0,0.0,0.0,0.0,0.0,0.0,0.0,0.0,0.0,0.0,0.0,0.0,0.0,0.0,0.0,0.0,0.0,0.0,0.0,0.0,0.0,0.0,0.0,0.0,1.8315,1.7953,1.8737,1.8821,1.8092,1.712,1.6253,1.561,1.463,1.3024,0.0,0.0,0.0,0.0,0.0,0.0,0.0,0.0,0.0,0.0,0.0,0.0,0.0,0.0,0.0,0.0,0.0,0.0,0.0,0.0,0.0,0.0,0.0,0.0,0.0,0.0,0.0,0.0,0.0,0.0,0.0,0.0,0.0,0.0,0.0,0.0,0.0,0.0,0.0,0.0,0.0,0.0,2.8694,2.9423,0.0,0.0,0.0,2.7709,2.7029,0.0,0.0,0.0,0.0,0.0,0.0,0.0,0.0,0.0,0.0,0.0,0.0,0.0,0.0,0.0,0.0,0.0,0.0,0.0,0.0,0.0,0.0,0.0,0.0,0.0,0.0,0.0,0.0,0.0,0.0,0.0,0.0,0.0,0.0,0.0,0.0,0.0,0.0,0.0,0.0,0.0,0.0,0.0,0.0,0.0,0.0,0.0,0.0,0.0,0.0,0.0,0.0,0.0,0.0,0.0,0.0,0.0,1.8048,1.918,1.9196,1.8131,1.7565,1.6807,1.5864,1.5096,0.0,0.0,0.0,0.0,0.0,0.0,0.0,0.0,0.0,0.0,0.0,0.0,0.0,0.0,0.0,0.0,0.0,0.0,0.0,0.0,0.0,0.0,0.0,0.0,0.0,0.0,0.0,2.1253,0.0,0.0,0.0,0.0,0.0,0.0,0.0,0.0,0.0,0.0,0.0,0.0,0.0,0.0,2.9997,3.0047,3.0781,3.0889,0.0,0.0,2.8558,2.7902,2.7647,2.7228,0.0,0.0,0.0,0.0,0.0,0.0,0.0,0.0,0.0,0.0,0.0,0.0,0.0,0.0,0.0,0.0,0.0,0.0,0.0,0.0,0.0,0.0,0.0,0.0,0.0,0.0,0.0,0.0,0.0,0.0,0.0,0.0,0.0,0.0,0.0,0.0,0.0,0.0,0.0,0.0,0.0,0.0,0.0,0.0,0.0,0.0,0.0,0.0,0.0,0.0,0.0,0.0,0.0,0.0,0.0,1.8174,1.9454,1.951,1.8151,1.7598,1.7034,1.6457,1.5744,1.4293,0.0,0.0,0.0,0.0,0.0,0.0,0.0,0.0,0.0,0.0,0.0,0.0,0.0,0.0,0.0,0.0,0.0,0.0,0.0,0.0,0.0,0.0,0.0,0.0,0.0,0.0,0.0,0.0,0.0,0.0,0.0,0.0,0.0,0.0,0.0,0.0,0.0,0.0,0.0,0.0,0.0,3.1836,3.1841,3.2567,3.222,0.0,0.0,2.9799,2.7436,2.836,2.8505,2.6149,0.0,0.0,0.0,0.0,0.0,0.0,0.0,0.0,0.0,0.0,0.0,0.0,0.0,0.0,0.0,0.0,0.0,0.0,0.0,0.0,0.0,0.0,0.0,0.0,0.0,0.0,0.0,0.0,0.0,0.0,0.0,0.0,0.0,0.0,0.0,0.0,0.0,0.0,0.0,0.0,0.0,0.0,0.0,0.0,0.0,0.0,0.0,0.0,0.0,0.0,0.0,0.0,0.0,1.8835,1.8544,1.9956,2.015,1.9074,1.8216,1.7544,1.7013,1.6126,1.4904,0.0,0.0,0.0,0.0,0.0,0.0,0.0,0.0,0.0,0.0,0.0,0.0,0.0,0.0,0.0,0.0,0.0,0.0,0.0,0.0,0.0,0.0,0.0,0.0,0.0,0.0,0.0,0.0,2.4132,2.4568,2.5137,0.0,0.0,0.0,0.0,0.0,0.0,0.0,0.0,0.0,0.0,3.2075,3.2074,3.2797,0.0,0.0,3.064,3.0526,2.9551,2.9042,2.8435,2.7477,2.6638,0.0,0.0,0.0,0.0,0.0,0.0,0.0,0.0,0.0,0.0,0.0,0.0,0.0,0.0,0.0,0.0,0.0,0.0,0.0,0.0,0.0,0.0,0.0,0.0,0.0,0.0,0.0,0.0,0.0,0.0,0.0,0.0,0.0,0.0,0.0,0.0,0.0,0.0,0.0,0.0,0.0,0.0,0.0,0.0,0.0,0.0,0.0,0.0,0.0,0.0,0.0,0.0,1.9273,1.9143,2.0384,2.0566,1.9621,1.8774,1.8013,1.7299,1.6621,1.5694,0.0,0.0,0.0,0.0,0.0,0.0,0.0,0.0,0.0,0.0,0.0,0.0,0.0,0.0,0.0,0.0,0.0,0.0,0.0,0.0,0.0,0.0,0.0,0.0,0.0,0.0,0.0,0.0,2.4689,2.495,2.5593,0.0,0.0,0.0,0.0,0.0,0.0,0.0,0.0,0.0,0.0,3.2793,3.2539,3.3008,3.2812,3.1131,3.0858,3.078,3.0522,2.9469,2.8612,2.834,0.0,0.0,0.0,0.0,0.0,0.0,0.0,0.0,0.0,0.0,0.0,0.0,0.0,0.0,0.0,0.0,0.0,0.0,0.0,0.0,0.0,0.0,0.0,0.0,0.0,0.0,0.0,0.0,0.0,0.0,0.0,0.0,0.0,0.0,0.0,0.0,0.0,0.0,0.0,0.0,0.0,0.0,0.0,0.0,0.0,0.0,0.0,0.0,0.0,0.0,0.0,0.0,0.0,0.0,1.9876,2.0639,2.0567,1.9674,1.9126,1.838,1.7394,1.7291,1.6744,1.5588,0.0,0.0,0.0,0.0,0.0,0.0,0.0,0.0,0.0,0.0,0.0,0.0,0.0,0.0,0.0,0.0,0.0,0.0,0.0,0.0,0.0,0.0,0.0,0.0,0.0,0.0,2.5438,2.5527,2.5564,0.0,0.0,0.0,0.0,0.0,0.0,0.0,0.0,0.0,0.0,3.3594,3.4336,3.3474,3.3392,3.2781,3.1089,3.0813,3.0521,2.9737,2.9553,2.9288,0.0,0.0,0.0,0.0,0.0,0.0,0.0,0.0,0.0,0.0,0.0,0.0,0.0,0.0,0.0,0.0,0.0,0.0,0.0,0.0,0.0,0.0,0.0,0.0,0.0,0.0,0.0,0.0,1.6912,0.0,0.0,0.0,0.0,0.0,0.0,0.0,0.0,0.0,0.0,0.0,2.3584,2.3601,0.0,0.0,0.0,0.0,0.0,0.0,0.0,0.0,0.0,0.0,0.0,0.0,2.0267,2.0391,2.1057,2.1259,2.0911,1.9891,1.9189,1.8839,1.8163,1.7356,1.6349,0.0,0.0,0.0,0.0,0.0,0.0,0.0,0.0,0.0,0.0,0.0,0.0,0.0,0.0,0.0,0.0,0.0,0.0,0.0,0.0,0.0,0.0,0.0,0.0,0.0,2.5255,0.0,0.0,0.0,0.0,0.0,0.0,0.0,0.0,0.0,0.0,0.0,3.2245,3.367,3.4351,3.4387,3.3518,3.3355,3.2932,0.0,0.0,0.0,0.0,0.0,0.0,0.0,0.0,0.0,0.0,0.0,0.0,0.0,0.0,2.9605,2.8638,2.8869,2.9231,2.9224,0.0,0.0,0.0,0.0,0.0,0.0,0.0,0.0,0.0,0.0,0.0,0.0,0.0,0.0,0.0,0.0,1.8486,0.0,0.0,0.0,0.0,0.0,0.0,0.0,0.0,2.4102,2.456,2.4695,2.4695,2.4729,0.0,2.456,2.3765,0.0,0.0,0.0,0.0,0.0,0.0,0.0,0.0,2.0865,2.1073,2.1396,2.1597,2.1567,2.0602,1.9939,1.9588,1.8793,1.8073,1.7457,1.7396,1.7042,0.0,0.0,0.0,0.0,0.0,0.0,0.0,0.0,0.0,0.0,0.0,0.0,0.0,0.0,0.0,0.0,0.0,0.0,0.0,0.0,0.0,0.0,0.0,2.5233,0.0,0.0,0.0,0.0,0.0,0.0,0.0,0.0,0.0,3.0851,3.2085,3.3413,3.4544,3.4945,3.4695,3.3526,0.0,0.0,0.0,0.0,0.0,0.0,0.0,3.0615,3.116,3.1063,3.1111,3.168,3.1733,3.1864,3.2339,0.0,0.0,3.0643,3.0758,3.1118,3.1099,3.1488,3.1798,3.1783,3.211,3.2426,0.0,0.0,0.0,0.0,0.0,0.0,0.0,0.0,1.8351,1.8692,0.0,1.9867,0.0,0.0,0.0,0.0,0.0,0.0,0.0,0.0,2.5965,2.659,2.6385,2.6367,2.6384,2.6401,2.6244,2.5826,2.5096,2.3712,0.0,0.0,0.0,0.0,0.0,0.0,2.1783,2.1895,2.1733,2.1643,2.1612,2.1213,2.0567,1.9677,1.9233,1.8943,1.8886,1.9101,1.8992,1.8497,1.818,0.0,0.0,0.0,0.0,0.0,0.0,0.0,0.0,0.0,0.0,0.0,0.0,0.0,0.0,0.0,0.0,0.0,0.0,0.0,0.0,2.5174,0.0,0.0,0.0,0.0,0.0,0.0,0.0,0.0,0.0,0.0,3.1122,3.3153,3.4733,3.4752,0.0,0.0,0.0,0.0,3.2547,3.1045,3.0676,3.0637,3.0738,3.1482,3.2077,3.2137,0.0,0.0,3.3476,3.3472,3.3485,3.3491,3.399,3.4139,3.3134,3.2883,3.2875,3.2875,3.2924,3.2869,3.2806,3.2867,3.3013,1.8309,0.0,0.0,0.0,0.0,1.8753,1.9696,2.071,2.1207,2.1754,2.2388,2.2631,0.0,0.0,0.0,0.0,0.0,0.0,2.4857,2.5649,2.6232,2.6521,2.6607,2.6607,2.6624,2.6607,2.659,2.6606,2.6643,2.5952,2.467,2.2858,0.0,0.0,0.0,0.0,2.2096,2.2317,2.2186,2.2106,2.2106,2.1675,2.1165,2.0633,2.0467,2.04,2.0369,2.0436,2.0343,2.0059,1.9591,0.0,0.0,0.0,0.0,0.0,0.0,0.0,0.0,0.0,0.0,0.0,0.0,0.0,0.0,0.0,0.0,0.0,0.0,0.0,2.5671,2.5983,2.6425,0.0,0.0,0.0,0.0,0.0,0.0,0.0,0.0,0.0,3.3626,3.4749,3.5588,0.0,0.0,3.5394,3.4247,3.3528,3.2905,3.241,0.0,0.0,0.0,3.1724,3.2183,3.2854,3.4239,3.5253,3.5254,3.5253,3.525,3.517,3.5263,3.5197,3.4935,3.4777,3.4717,3.473,3.4735,3.4728,3.4714,3.4681,3.4661,2.1193,2.0123,1.979,1.9756,1.9947,2.044,2.1222,2.213,2.2754,2.3313,2.3783,2.4319,2.4267,2.3741,2.3538,0.0,0.0,0.0,2.5604,2.6333,2.647,2.6421,2.6285,2.6415,2.6309,2.6035,2.6176,2.6342,2.6595,2.639,2.5388,2.3673,0.0,0.0,2.2725,2.2565,2.2578,2.2772,2.2708,2.2581,2.2463,2.1909,2.1476,2.1244,2.1071,2.1071,2.1228,2.1244,2.1259,2.1337,2.0915,2.0613,0.0,0.0,0.0,0.0,0.0,0.0,0.0,0.0,0.0,0.0,0.0,2.4606,0.0,0.0,0.0,0.0,2.5155,2.5605,2.668,2.7192,0.0,0.0,0.0,0.0,0.0,0.0,0.0,3.3448,3.4511,3.5221,3.5208,3.5666,3.5953,3.5825,3.5764,3.5267,3.4056,0.0,3.2772,3.2114,3.1144,3.0648,3.1151,3.1623,3.2366,3.3651,3.503,3.5956,3.6016,3.6016,3.5996,3.5925,3.5814,3.5689,3.5661,3.5574,3.55,3.55,3.55,3.55,3.55,3.55,3.5446,2.3609,2.3022,2.1292,2.1029,2.1785,2.1874,2.2395,2.3237,2.3529,2.385,2.4286,2.5343,2.5884,2.6016,2.6251,0.0,0.0,2.6208,2.6453,2.6708,2.6708,2.6302,2.5625,2.5954,2.5722,2.5005,2.5339,2.5513,2.557,2.5681,2.533,2.4587,2.4779,2.432,2.3312,2.3165,2.3153,2.3224,2.32,2.3057,2.2733,2.2074,2.1746,2.1729,2.1367,2.1351,2.17,2.1746,2.1924,2.2332,2.213,2.1874,2.1566,0.0,0.0,0.0,0.0,0.0,0.0,0.0,0.0,0.0,0.0,0.0,0.0,0.0,0.0,0.0,2.6393,0.0,2.7987,2.8696,0.0,0.0,0.0,3.2185,3.3122,3.4044,3.4925,3.5713,0.0,0.0,0.0,0.0,3.596,3.5821,3.5672,3.5032,3.3399,3.3068,3.2332,3.0951,3.0505,3.0433,3.0598,3.1451,3.2723,3.4336,3.543,3.5976,3.6016,3.6016,3.6016,3.6016,3.5838,3.5703,3.5703,3.559,3.55,3.55,3.55,3.55,3.55,3.55,3.5486,2.3484,2.3759,2.3445,2.3123,2.2817,2.3414,2.3826,2.4121,2.5273,2.5841,2.5987,2.726,2.7814,2.7755,2.7178,2.689,2.6805,2.6669,2.6641,2.6708,2.6708,2.6319,2.5642,2.5953,2.5705,2.5037,2.5357,2.5643,2.587,2.5907,2.5671,2.5228,2.5369,2.4905,2.3771,2.3459,2.3349,2.3429,2.327,2.3153,2.3064,2.2923,2.283,2.2813,2.2724,2.2707,2.28,2.2813,2.2885,2.2977,2.2923,2.2854,2.2853,2.2236,0.0,0.0,0.0,0.0,0.0,0.0,0.0,0.0,0.0,2.6203,2.6361,0.0,2.7933,0.0,2.7859,2.8938,3.0331,3.0758,0.0,0.0,3.3314,3.3966,3.4948,3.5313,3.5616,3.5907,3.5989,3.6015,3.6015,3.5963,3.5921,3.5871,3.5748,3.5257,3.4101,3.3333,3.257,3.1569,3.0804,3.0442,3.0597,3.1918,3.3356,3.4512,3.541,3.5996,3.6016,3.6016,3.6016,3.5996,3.5839,3.572,3.5703,3.559,3.5482,3.55,3.55,3.55,3.55,3.55,3.5439,2.3766,2.4154,2.4262,2.4221,2.4163,2.4582,2.4794,2.4866,2.6014,2.668,2.6986,2.8576,2.9095,2.8712,2.8188,2.7749,2.7401,2.7097,2.6971,2.6937,2.6788,2.6295,2.5567,2.5533,2.5134,2.4441,2.4754,2.5016,2.5183,2.5212,2.5134,2.5005,2.5114,2.4871,2.4329,2.4118,2.3939,2.3816,2.37,2.3591,2.3414,2.3271,2.323,2.3253,2.3236,2.3259,2.3281,2.3294,2.3294,2.3287,2.3294,2.3362,2.349,2.3063,2.3052,0.0,0.0,0.0,0.0,0.0,0.0,0.0,0.0,0.0,0.0,0.0,2.9973,0.0,3.0552,0.0,3.2981,3.353,3.4056,3.4661,3.5091,3.5604,3.6213,3.6349,3.6447,3.6497,3.6539,3.6426,3.6074,3.5973,3.5922,3.5885,3.5485,3.4855,3.394,3.3321,3.2605,3.14,3.08,3.0516,3.0581,3.2108,3.348,3.4082,3.5176,3.6016,3.6016,3.6016,3.6016,3.5976,3.5549,3.5282,3.558,3.4898,3.4564,3.5269,3.518,3.5084,3.5423,3.5398,3.5254,2.4185,2.4436,2.4538,2.4964,2.555,2.5646,2.5618,2.5605,2.6402,2.7096,2.7744,2.9436,2.9791,2.9165,2.9014,2.8539,2.7861,2.7523,2.7396,2.7359,2.6936,2.6264,2.5503,2.5016,2.4446,2.3756,2.4074,2.4209,2.4247,2.4247,2.4321,2.4495,2.4534,2.4636,2.4797,2.4828,2.4659,2.4284,2.4247,2.4096,2.3829,2.3508,2.3385,2.3453,2.3453,2.3479,2.3541,2.3545,2.3552,2.3531,2.3534,2.3667,2.3905,2.3907,2.4332,0.0,2.5373,0.0,0.0,0.0,0.0,0.0,0.0,0.0,0.0,3.1008,3.2292,3.4033,3.3532,3.3796,3.5403,3.6102,3.6241,3.5759,3.6251,3.674,3.6977,3.7021,3.7017,3.6959,3.7065,3.6816,3.6113,3.6016,3.5955,3.5684,3.511,3.4273,3.3292,3.3025,3.238,3.0817,3.0614,3.0633,3.0817,3.2065,3.3134,3.3398,3.4492,3.5644,3.5586,3.5703,3.5781,3.5586,3.5004,3.4743,3.5298,3.3994,3.3494,3.4776,3.4468,3.4372,3.5224,3.5335,3.513,2.4616,2.5245,2.5851,2.6176,2.6336,2.693,2.6852,2.6404,2.7615,2.8396,2.8876,2.9243,2.9264,2.9016,2.8665,2.8438,2.8265,2.7925,2.7797,2.7762,2.7031,2.6281,2.5485,2.5016,2.4491,2.3975,2.4115,2.4284,2.4454,2.4454,2.4461,2.4512,2.4762,2.4858,0.0,0.0,0.0,0.0,2.4478,2.4376,2.4432,2.4247,2.4211,2.4265,2.4265,0.0,2.4382,2.4373,2.4355,2.4292,2.4301,0.0,0.0,0.0,0.0,0.0,0.0,0.0,0.0,0.0,0.0,0.0,3.1483,3.1841,3.1996,3.2904,3.3949,3.5007,3.5,3.5314,3.6344,3.5979,3.5958,3.6547,3.6162,3.6138,3.6938,3.6538,3.6168,3.6208,3.623,3.6191,3.6055,3.6016,3.5742,3.5078,3.4785,3.4041,3.2617,3.2288,3.1773,3.08,3.0657,3.0684,3.0693,3.1691,3.248,3.2559,3.3203,3.3887,3.4023,3.4551,3.4648,3.414,3.4202,3.4251,3.3813,3.3234,3.2929,3.3333,3.3276,3.3622,3.5135,3.5434,3.5297,2.53,0.0,2.6351,2.6864,0.0,2.7506,2.7476,2.743,2.8174,2.8776,2.9209,2.9137,2.8949,2.8699,2.8489,2.8319,2.8152,2.8173,2.7929,2.7531,2.6925,2.6272,2.5597,2.497,2.457,2.4402,2.4466,2.4553,2.4639,2.4665,2.4682,2.474,2.4905,2.5024,2.5056,2.5222,2.5165,2.4904,2.4846,2.4783,2.47,2.4628,2.462,2.4651,0.0,0.0,0.0,0.0,0.0,0.0,0.0,0.0,0.0,0.0,0.0,2.7271,2.8089,2.9007,2.992,3.0758,3.1684,3.2678,3.3576,3.3856,3.3349,3.4174,3.5115,3.5933,3.6022,3.6414,3.7219,3.6986,3.6828,3.6939,3.6581,3.6429,3.6483,3.6201,3.5971,3.5996,3.6016,3.6016,3.6016,3.6016,3.5644,3.4824,3.4316,3.3613,3.248,3.2119,3.1726,3.0888,3.0764,3.0793,3.0872,3.1582,3.2187,3.2285,3.2871,3.332,3.3379,3.3728,3.3842,3.3429,3.3288,3.3103,3.3122,3.2376,3.1904,3.2622,3.2583,3.266,3.3839,3.427,3.4388,2.6014,2.668,2.6654,2.731,2.8255,2.762,2.7699,2.8276,0.0,0.0,0.0,2.8937,2.8665,2.832,2.8364,2.8245,2.801,2.8198,2.7955,2.7332,2.6724,2.6197,2.5713,2.4927,2.4654,2.4821,2.4818,2.4818,2.4835,2.4828,2.4891,2.4998,2.5038,2.5137,2.5326,2.5296,2.5231,2.5105,2.5228,2.5172,2.4867,2.4854,2.4854,2.485,2.485,2.4896,2.5019,2.5107,2.5202,2.5259,2.6013,2.645,2.6495,2.7297,2.806,2.8753,2.9639,3.0574,3.1473,3.2285,3.3222,3.4379,3.5098,3.5213,3.4403,3.5198,3.5981,3.6654,3.6712,3.7014,3.773,3.7693,3.7444,3.6871,3.6843,3.6617,3.6094,3.6016,3.5996,3.6016,3.6016,3.6016,3.6016,3.6016,3.5605,3.4629,3.3867,3.3008,3.2187,3.1875,3.1641,3.1016,3.0879,3.0898,3.0996,3.1386,3.1913,3.1875,3.2402,3.2887,3.2905,3.299,3.2994,3.2697,3.2172,3.2115,3.2391,3.1451,3.0929,3.2199,3.1962,3.161,3.205,3.2576,3.2967,2.6759,2.7439,2.733,2.738,2.752,2.7306,2.7575,2.8121,2.8159,2.8291,2.8527,2.849,2.8298,2.7985,2.8276,2.8384,2.8332,2.802,2.7915,0.0,2.6507,2.588,2.5901,2.5141,2.4823,2.4955,2.4862,2.4869,2.4962,2.4955,2.4986,2.5021,2.5221,2.539,2.5454,2.5343,2.5338,2.5423,2.5341,2.5249,2.5147,2.5025,2.4987,2.5057,2.5063,2.5063,2.5086,2.5792,2.62,2.6238,2.6982,2.7427,2.7536,2.8313,2.8874,2.9075,2.9868,3.0739,3.1616,3.241,3.3601,3.5206,3.5571,3.5558,3.5354,3.6058,3.6577,3.6699,3.6675,3.678,3.6988,3.6452,3.6097,3.6085,3.6072,3.6035,3.5996,3.6016,3.6016,3.6016,3.6016,3.6016,3.5996,3.5996,3.5391,3.4023,3.332,3.2752,3.1434,3.1012,3.1016,3.0937,3.0918,3.0918,3.0898,3.0871,3.1017,3.0917,3.1026,3.1217,3.1239,3.1712,3.1855,3.1148,3.1437,3.1504,3.1109,3.0664,3.0538,3.0899,3.0714,3.0625,3.0578,3.0942,3.1411,2.7735,2.7977,2.7917,2.7844,2.779,2.7828,2.7762,2.769,2.7896,2.8148,2.838,2.82,2.8144,2.8188,2.8329,2.8609,2.8904,2.8252,2.7845,2.7528,2.6412,2.5709,2.5453,2.5075,2.4993,2.5133,2.509,2.5116,2.5202,2.5216,2.5234,2.5278,2.5402,2.5477,2.5508,2.5452,2.5452,2.5489,2.5441,2.5399,2.536,2.5294,2.5281,2.5309,2.5309,2.5284,2.5259,2.6097,2.6553,2.651,2.7742,2.8425,2.8487,2.9274,2.9772,2.9827,3.0641,3.1291,3.1722,3.3011,3.4298,3.5534,3.5678,3.5667,3.5621,3.5936,3.6168,3.6168,3.6168,3.6188,3.6252,3.5954,3.5822,3.5877,3.5921,3.5972,3.5996,3.6016,3.6016,3.6016,3.6016,3.5996,3.5948,3.5947,3.5276,3.3602,3.2602,3.156,3.0774,3.0693,3.0747,3.0742,3.0742,3.0723,3.0726,3.0691,3.0655,3.0633,3.0628,3.0609,3.06,3.0986,3.0928,3.0645,3.0877,3.0788,3.0306,3.0196,3.0143,3.003,3.0022,2.992,2.9798,2.9813,3.0251,2.8133,2.8067,2.8019,2.7964,2.795,2.82,2.795,2.7504,2.7855,2.8184,2.8428,2.8156,2.825,2.8603,2.8615,2.8831,2.9014,2.8297,2.7564,2.6923,2.6136,2.5498,2.5116,2.5077,2.5149,2.5298,2.5312,2.5354,2.5424,2.5421,2.5465,2.5524,2.5531,2.5518,2.5549,2.5549,2.5549,2.5549,2.5529,2.5537,2.5513,2.551,2.551,2.551,2.551,2.5488,2.5467,2.6442,2.6986,2.7025,2.8546,2.9438,2.9453,3.0065,3.0446,3.0504,3.1083,3.167,3.2141,3.3427,3.4678,3.5657,3.575,3.576,3.5777,3.5777,3.5744,3.5713,3.5735,3.5726,3.5794,3.5834,3.5907,3.5935,3.5953,3.5996,3.6016,3.6016,3.5996,3.5975,3.5974,3.5948,3.5861,3.5847,3.513,3.3451,3.1695,3.0678,3.0581,3.0555,3.0571,3.0558,3.0578,3.0611,3.0603,3.0587,3.0578,3.0578,3.0551,3.0548,3.0556,3.0507,3.0486,3.0487,3.0455,3.0368,3.0102,3.0006,2.9939,2.9788,2.9756,2.9652,2.9465,2.9243,2.937,2.7323,2.7269,2.7212,2.7186,2.7453,2.7792,2.7943,2.7911,2.8192,2.8516,2.8737,2.8478,2.873,2.9251,2.9283,2.9025,2.8503,2.7673,2.6938,2.628,2.5463,2.514,2.5264,2.5274,2.5317,2.5376,2.5372,2.5425,2.5479,2.5486,2.5513,2.5593,2.5597,2.5611,2.5662,2.5663,2.5683,2.5683,2.5683,2.563,2.5517,2.551,2.551,2.551,2.5513,2.5489,2.5581,2.7093,2.7962,2.8093,2.9548,3.0445,3.0445,3.0539,3.0581,3.0594,3.0675,3.1362,3.2876,3.3297,3.4144,3.5666,3.5926,3.5976,3.5957,3.5976,3.588,3.5752,3.571,3.5766,3.5869,3.5882,3.5939,3.5974,3.5976,3.6016,3.5996,3.6016,3.5975,3.5931,3.5889,3.5851,3.5755,3.5593,3.4928,3.3384,3.166,3.0551,3.0509,3.0492,3.0452,3.0457,3.0516,3.0581,3.0581,3.0533,3.0505,3.0507,3.0457,3.043,3.0414,3.0398,3.0402,3.0303,3.0354,3.0235,3.0073,2.9991,2.9901,2.9651,2.9607,2.9607,2.9424,2.9149,2.9177,2.7983,2.7914,2.8083,2.7944,2.773,2.8047,2.828,2.8462,2.883,2.9121,2.9312,2.9213,2.9321,2.9579,2.9579,2.9235,2.8598,2.777,2.7025,2.6397,2.557,2.5226,2.5354,2.5363,2.5398,2.544,2.5468,2.5486,2.5556,2.5601,2.5619,2.5605,2.5605,2.5599,2.5594,2.5612,2.5632,2.5573,2.5572,2.5566,2.5525,2.5582,2.5629,2.5629,2.5609,2.5874,2.6364,2.7505,2.8385,2.8879,2.9964,3.0606,3.0606,3.0606,3.0606,3.0606,3.0626,3.1426,3.3145,3.3323,3.4097,3.5834,3.5975,3.6016,3.6016,3.6016,3.5955,3.5902,3.5857,3.5902,3.595,3.5951,3.5973,3.5976,3.5972,3.5945,3.5925,3.5868,3.5802,3.5777,3.5772,3.5743,3.5495,3.4701,3.3843,3.2924,3.1565,3.0521,3.0446,3.0441,3.0356,3.0222,3.0213,3.0309,3.0414,3.0462,3.0422,3.043,3.0411,3.0373,3.0196,3.0157,3.0129,3.0022,3.0022,2.9939,2.968,2.9634,2.9589,2.9397,2.9293,2.927,2.9189,2.8892,2.8694,2.8371,2.8342,2.8749,2.8653,2.8188,2.8591,2.8867,2.9058,2.9358,2.9598,2.9771,2.978,2.9832,2.9853,2.9596,2.9133,2.8485,2.765,2.6912,2.6256,2.5591,2.5363,2.5421,2.5431,2.5451,2.5526,2.5535,2.5566,2.56,2.5624,2.561,2.557,2.5585,2.5531,2.5515,2.5549,2.5549,2.5513,2.551,2.551,2.5524,2.5599,2.5638,2.5657,2.589,2.6285,2.6875,2.7929,2.8766,2.9338,3.0154,3.0615,3.0622,3.0641,3.0636,3.0685,3.0732,3.1392,3.2897,3.326,3.4043,3.543,3.584,3.6016,3.5996,3.5975,3.5974,3.5954,3.5931,3.5911,3.5996,3.5975,3.5974,3.5973,3.5911,3.5843,3.5838,3.5758,3.57,3.5671,3.5663,3.5642,3.5342,3.4133,3.2974,3.2781,3.1499,3.0355,3.0311,3.0273,3.0196,2.9962,2.9924,2.9984,3.0181,3.0182,3.0208,3.0208,3.0162,3.0114,2.9966,2.9924,2.9908,2.984,2.9739,2.9634,2.9532,2.9434,2.9341,2.9112,2.8998,2.9021,2.9033,2.867,2.8458,2.7925,2.8049,2.8578,2.8824,2.8796,2.9361,2.9624,2.9614,2.9678,2.9796,2.9972,2.9999,3.0136,3.0278,2.9359,2.8536,2.7887,2.7096,2.628,2.5569,2.5453,2.5428,2.5506,2.5508,2.552,2.5581,2.5581,2.5602,2.561,2.5531,2.5517,2.5496,2.5496,2.5513,2.5501,2.5495,2.5489,2.5495,2.5495,2.5503,2.5506,2.5513,2.5517,2.5634,2.6291,2.6763,2.7055,2.8396,2.9277,2.9316,3.0154,3.0622,3.0681,3.0686,3.0735,3.084,3.0879,3.1269,3.2187,3.2968,3.3809,3.4707,3.5547,3.5996,3.5976,3.5922,3.5887,3.5905,3.5809,3.5802,3.5951,3.5902,3.5887,3.5882,3.5777,3.5736,3.573,3.5712,3.5655,3.5611,3.5596,3.5568,3.5451,3.3975,3.3051,3.2583,3.1455,3.0292,3.0075,3.0013,2.9931,2.979,2.9713,2.9722,2.9739,2.984,2.9834,2.9823,2.988,2.9765,2.9739,2.9713,2.9696,2.967,2.9607,2.9514,2.9425,2.9341,2.9235,2.91,2.901,2.8987,2.8863,2.8633,2.8355,2.8692,2.9069,2.9265,2.9362,2.941,2.9615,2.9763,2.9866,2.9893,3.0065,3.029,3.0298,3.039,3.0482,2.9577,2.8745,2.7917,2.711,2.6269,2.5529,2.5471,2.5508,2.5558,2.5563,2.5572,2.5605,2.5644,2.5644,2.5583,2.5539,2.5485,2.5421,2.5418,2.5411,2.5395,2.5379,2.5379,2.536,2.5379,2.536,2.5426,2.5379,2.563,2.6195,2.6576,2.7304,2.8376,2.8999,2.9546,3.0113,3.0447,3.0617,3.0621,3.0643,3.0652,3.0691,3.0714,3.1085,3.1964,3.2801,3.3661,3.4521,3.5338,3.5828,3.5821,3.5783,3.5789,3.5761,3.5746,3.5744,3.5766,3.5783,3.5766,3.5777,3.569,3.5639,3.5645,3.5611,3.5562,3.5534,3.554,3.5528,3.514,3.3873,3.2754,3.2548,3.1127,3.0098,2.9837,2.9823,2.9748,2.9561,2.9504,2.9445,2.9241,2.9542,2.9705,2.9713,2.9705,2.9626,2.957,2.9504,2.9494,2.9355,2.9316,2.9275,2.9149,2.9086,2.9026,2.8968,2.8905,2.8737,2.8658,2.8316,2.8002,2.9342,2.9687,2.9763,2.9815,2.9813,2.9909,3.0032,3.0171,3.0182,3.0321,3.0498,3.0533,3.0551,3.0467,2.9774,2.9121,2.8405,2.7323,2.6333,2.5576,2.552,2.5584,2.5613,2.56,2.5605,2.5605,2.558,2.5569,2.5539,2.5474,2.5424,2.5375,2.5626,2.5762,2.5765,2.5981,2.6154,2.6154,2.614,2.6159,2.6135,2.6135,2.6544,2.7276,2.7488,2.8039,2.9226,2.9497,2.9904,3.0455,3.0533,3.0548,3.0561,3.086,3.1028,3.1008,3.1011,3.14,3.2221,3.2882,3.3566,3.4442,3.524,3.5703,3.5703,3.5678,3.5679,3.5671,3.5638,3.5639,3.5639,3.5639,3.5638,3.5655,3.5606,3.5579,3.5574,3.5534,3.5448,3.5391,3.535,3.5327,3.5028,3.3552,3.2667,3.2461,3.0867,2.9771,2.9626,2.9598,2.9523,2.9312,2.9267,2.9203,2.9104,2.9283,2.9387,2.9407,2.9427,2.9395,2.9384,2.9301,2.9235,2.9067,2.8964,2.8929,2.8863,2.8809,2.8761,2.87,2.8533,2.8347,2.8201,2.795,2.7692,2.9713,2.9754,2.9924,3.0009,3.0058,3.0309,3.047,3.0483,3.0547,3.0562,3.0603,3.0586,3.0614,3.0475,2.9943,2.9525,2.9071,2.769,2.6503,2.5781,2.5625,2.5618,2.5664,2.5615,2.5586,2.5591,2.5468,2.5459,2.5543,2.5509,2.5471,2.5587,2.627,2.6616,2.6615,2.7274,2.7736,2.7678,2.7621,2.7722,2.7871,2.7698,2.803,2.8838,2.8937,2.9005,2.9187,2.9932,3.0342,3.0394,3.0414,3.0444,3.0707,3.1313,3.1868,3.1877,3.1887,3.2318,3.2992,3.3186,3.3685,3.44,3.5219,3.569,3.5671,3.563,3.5611,3.559,3.5558,3.5495,3.5509,3.5515,3.5553,3.5588,3.5546,3.5521,3.5501,3.5481,3.5391,3.519,3.5122,3.5,3.4472,3.327,3.227,3.1921,3.0725,2.9561,2.9405,2.9384,2.9278,2.9112,2.9067,2.9055,2.901,2.8998,2.901,2.9033,2.9082,2.9093,2.9127,2.9112,2.9123,2.8987,2.8987,2.894,2.8633,2.8565,2.8386,2.8295,2.812,2.801,2.7808,2.7619,2.7441,3.0169,3.0196,3.0292,3.0339,3.036,3.0494,3.0565,3.0587,3.0574,3.0633,3.0669,3.0673,3.0729,3.0733,3.0449,3.0015,2.9429,2.8231,2.7273,2.6519,2.5895,2.5593,2.5567,2.5547,2.5537,2.5517,2.5375,2.5678,2.6199,2.6212,2.6467,2.7063,2.7327,2.7486,2.7495,2.7755,2.789,2.789,2.789,2.789,2.789,2.7909,2.8294,2.8992,2.9107,2.9352,2.9962,3.0269,3.0385,3.0404,3.0404,3.0677,3.1248,3.1595,3.2027,3.2505,3.2582,3.2659,3.2987,3.3559,3.3975,3.4409,3.509,3.5485,3.5562,3.5546,3.5534,3.5528,3.5508,3.55,3.55,3.55,3.5501,3.5515,3.5495,3.5486,3.5439,3.5331,3.5187,3.5105,3.4944,3.4784,3.4382,3.3103,3.1975,3.1786,3.04,2.9214,2.9149,2.9138,2.9104,2.8998,2.8987,2.8987,2.8987,2.8975,2.8952,2.894,2.894,2.8987,2.8987,2.8899,2.8929,2.8863,2.8887,2.8749,2.8476,2.8264,2.8075,2.7964,2.7883,2.7707,2.753,2.7348,2.7162,3.0467,3.0477,3.0513,3.0541,3.0552,3.0617,3.0645,3.0648,3.0689,3.072,3.07,3.0702,3.0722,3.0746,3.0702,3.0394,2.9842,2.8946,2.8257,2.7522,2.6121,2.5563,2.5566,2.5829,2.6143,2.6334,2.6308,2.651,2.6968,2.6976,2.717,2.758,2.7918,2.8083,2.8147,2.8415,2.8587,2.8568,2.8599,2.8561,2.858,2.8568,2.8816,2.9236,2.9313,2.9606,3.0115,3.0154,3.0221,3.0432,3.0692,3.1179,3.1679,3.2262,3.2852,3.3237,3.3417,3.3513,3.3814,3.4103,3.4372,3.4699,3.5199,3.5488,3.5488,3.55,3.55,3.55,3.55,3.5453,3.5376,3.5354,3.5331,3.5187,3.527,3.5297,3.5215,3.507,3.4879,3.4755,3.4614,3.4486,3.4024,3.287,3.1707,3.1413,3.0148,2.8987,2.8987,2.8998,2.8975,2.8975,2.8987,2.8987,2.8987,2.8964,2.891,2.8905,2.8893,2.8952,2.8987,2.8773,2.867,2.8451,2.8399,2.8197,2.7932,2.7876,2.7765,2.7692,2.7547,2.7303,2.7067,2.7067,2.6939,3.0603,3.0606,3.0609,3.0592,3.06,3.07,3.07,3.0727,3.0818,3.0778,3.07,3.0677,3.0654,3.0623,3.0609,3.0538,3.0419,2.9557,2.9105,2.8407,2.6938,2.5851,2.5967,2.6467,2.6997,2.7535,2.7621,2.7655,2.7573,2.7546,2.7478,2.7651,2.8283,2.8487,2.865,2.9307,2.9549,2.9509,2.9597,2.9559,2.9578,2.9607,2.9626,2.9645,2.9662,2.9689,2.9754,2.9895,3.0079,3.0471,3.1143,3.1584,3.209,3.3359,3.4012,3.4159,3.4237,3.4567,3.5023,3.4628,3.4553,3.522,3.5362,3.5486,3.5458,3.5424,3.5391,3.535,3.5376,3.5331,3.5122,3.5079,3.4963,3.4764,3.4916,3.4963,3.4773,3.4704,3.4553,3.4327,3.4188,3.4117,3.3847,3.2507,3.1759,3.1176,3.013,2.9384,2.8964,2.8952,2.894,2.8887,2.8815,2.8688,2.8601,2.8583,2.8533,2.8507,2.8551,2.8614,2.8713,2.8502,2.8368,2.8156,2.795,2.7707,2.756,2.756,2.7363,2.7131,2.6939,2.6741,2.6741,2.6808,2.6825,3.0606,3.0611,3.0639,3.0677,3.0684,3.0792,3.0781,3.0697,3.0731,3.0707,3.0643,3.0614,3.0623,3.0597,3.0552,3.0525,3.0287,2.9583,2.9144,2.8925,2.7717,2.7145,2.719,2.7245,2.742,2.7657,2.7683,2.7646,2.8137,2.8148,2.8428,2.9036,2.9106,2.9302,2.9413,2.9547,2.9686,2.9705,2.9696,2.9687,2.9678,2.9678,2.9705,2.9705,2.9706,2.9725,2.9771,3.0281,3.0609,3.0749,3.0945,3.1841,3.3024,3.3677,3.4213,3.4698,3.4824,3.4827,3.483,3.4707,3.4779,3.5106,3.5207,3.5226,3.5207,3.5207,3.5113,3.4972,3.4917,3.4908,3.4813,3.4803,3.4653,3.4434,3.4603,3.4744,3.4634,3.4486,3.4281,3.4188,3.4031,3.3889,3.3608,3.2944,3.2045,3.1439,3.0595,2.9732,2.944,2.8877,2.8839,2.8525,2.8373,2.8242,2.8147,2.8161,2.8134,2.8079,2.8079,2.8079,2.8134,2.8075,2.8006,2.7922,2.7751,2.753,2.7424,2.7363,2.7019,2.6725,2.6708,2.6708,2.6708,2.6741,2.6741,3.0648,3.065,3.0664,3.0642,3.068,3.0747,3.0747,3.0669,3.0663,3.0608,3.0565,3.0551,3.0545,3.0516,3.0467,3.0383,3.0207,2.9716,2.9462,2.9272,2.8714,2.8329,2.8124,2.7925,2.8059,2.8412,2.8285,2.8486,2.8772,2.8811,2.9083,2.9247,2.9407,2.9388,2.9321,2.9407,2.9407,2.9397,2.9407,2.9407,2.9407,2.9425,2.9407,2.95,2.9705,3.0022,3.0423,3.087,3.1046,3.1073,3.1563,3.2496,3.3476,3.3996,3.4404,3.4916,3.4935,3.4841,3.4734,3.4694,3.4764,3.4879,3.4935,3.4935,3.4935,3.4935,3.4851,3.4744,3.4694,3.4614,3.4497,3.4398,3.4255,3.4093,3.4232,3.4318,3.4318,3.4129,3.4043,3.3999,3.3902,3.3807,3.3788,3.3096,3.2491,3.1916,3.1274,3.065,3.0186,2.9408,2.8824,2.869,2.8293,2.8131,2.8071,2.8053,2.7803,2.773,2.7562,2.7562,2.7634,2.7634,2.7545,2.75,2.7439,2.7363,2.7225,2.7083,2.6923,2.6725,2.6708,2.6708,2.6708,2.6708,2.6708,3.0708,3.0664,3.0633,3.0606,3.0614,3.0606,3.0609,3.0594,3.0591,3.0563,3.0494,3.0467,3.0388,3.0361,3.0273,3.0189,2.9984,2.9889,2.9769,2.9616,2.9397,2.9142,2.8508,2.8512,2.8823,2.9313,2.9595,2.9392,2.9235,2.9258,2.9198,2.9115,2.9055,2.901,2.9071,2.9055,2.8998,2.9055,2.9071,2.9211,2.931,2.9365,2.9462,2.9727,3.0132,3.0666,3.1139,3.1452,3.1446,3.1119,3.2539,3.3187,3.3518,3.4285,3.4578,3.4615,3.4653,3.4632,3.4572,3.4508,3.4601,3.4614,3.4634,3.4653,3.4653,3.4653,3.4593,3.4486,3.4601,3.4409,3.4195,3.3948,3.3895,3.3855,3.386,3.3802,3.3748,3.378,3.3807,3.3807,3.3807,3.3788,3.3565,3.3166,3.2577,3.1868,3.1365,3.0953,3.0423,2.9729,2.939,2.9323,2.8797,2.8114,2.8064,2.7994,2.7644,2.7373,2.7084,2.7035,2.721,2.7194,2.7035,2.6954,2.7051,2.7036,2.689,2.6775,2.6725,2.6725,2.6691,2.6708,2.6708,2.6708,2.6708,3.0611,3.0628,3.0611,3.0606,3.0606,3.0603,3.0565,3.0509,3.0509,3.0448,3.0373,3.0209,3.0112,3.0075,2.9977,2.9815,2.9754,2.9756,2.9652,2.9474,2.9464,2.9277,2.8952,2.901,2.9258,2.9415,2.9238,2.9138,2.91,2.9112,2.9055,2.901,2.8987,2.9005,2.9042,2.9097,2.9005,2.9005,2.906,2.9427,2.9867,2.9941,3.0228,3.0742,3.1017,3.1195,3.1476,3.2008,3.2292,3.2342,3.2631,3.3245,3.3855,3.418,3.4311,3.433,3.4311,3.4218,3.4062,3.4068,3.4099,3.4288,3.4311,3.4292,3.4311,3.4367,3.4232,3.4062,3.3992,3.4092,3.3928,3.3855,3.382,3.3807,3.3807,3.368,3.348,3.3606,3.3753,3.3734,3.3721,3.368,3.3394,3.3223,3.2621,3.1852,3.1418,3.1067,3.0607,3.0132,2.9894,2.9808,2.9126,2.8502,2.8347,2.8173,2.7679,2.7276,2.696,2.6708,2.6873,2.6923,2.6824,2.6775,2.6758,2.6708,2.6708,2.6708,2.6708,2.6691,2.6708,2.6708,2.6708,2.6708,2.6708,3.0544,3.0559,3.0509,3.0433,3.0327,3.0298,3.0243,3.0139,3.0113,3.0099,3.0059,2.9901,2.9861,2.9853,2.9756,2.968,2.9533,2.9435,2.9314,2.9225,2.9222,2.9145,2.9074,2.9123,2.9203,2.92,2.9078,2.9017,2.8987,2.9042,2.8998,2.8987,2.9023,2.9262,2.9519,2.9544,2.9831,3.0136,3.0136,3.0356,3.0687,3.0779,3.1146,3.1788,3.199,3.21,3.2577,3.2926,3.3128,3.3164,3.3183,3.3377,3.3863,3.4024,3.4006,3.4006,3.4024,3.3961,3.3829,3.382,3.3863,3.4012,3.4006,3.4265,3.4456,3.4567,3.4521,3.4398,3.4353,3.4266,3.388,3.3807,3.3807,3.3807,3.3807,3.3625,3.335,3.3408,3.3404,3.327,3.3133,3.3042,3.2952,3.2872,3.2755,3.2033,3.2033,3.17,3.151,3.1013,3.0415,3.0056,2.9402,2.8915,2.8744,2.8388,2.7777,2.7386,2.7029,2.681,2.6775,2.6758,2.6708,2.6708,2.6708,2.6708,2.6708,2.6708,2.6708,2.6708,2.6708,2.6708,2.6691,2.6674,2.6691,3.0375,3.0365,3.0328,3.0162,2.9969,2.995,2.9874,2.9729,2.9705,2.9763,2.9696,2.9688,2.9652,2.9634,2.9579,2.9475,2.9322,2.9167,2.9055,2.9044,2.9044,2.9168,2.9237,2.9333,2.9455,2.9317,2.9317,2.9299,2.9464,2.9372,2.9666,2.9445,2.9427,2.9849,3.0283,3.032,3.0521,3.106,3.0901,3.1185,3.1481,3.1554,3.1869,3.2632,3.2797,3.3018,3.344,3.3678,3.3752,3.3807,3.3807,3.378,3.3721,3.3775,3.3807,3.382,3.3842,3.3847,3.3834,3.3807,3.382,3.3807,3.4004,3.4316,3.4812,3.5119,3.523,3.5142,3.5023,3.4522,3.3867,3.3666,3.3638,3.3564,3.3578,3.3419,3.3105,3.2999,3.2793,3.2697,3.2695,3.2681,3.25,3.2383,3.2367,3.2316,3.2333,3.2246,3.1985,3.169,3.0975,3.0659,3.0124,2.9585,2.9381,2.9178,2.85,2.796,2.7503,2.7334,2.7182,2.7436,2.7503,2.681,2.6708,2.6759,2.6759,2.6708,2.6708,2.6708,2.6674,2.6641,2.6624,2.6607,2.6572,2.9834,2.9834,2.9813,2.979,2.9765,2.9756,2.9722,2.9705,2.967,2.9696,2.9661,2.9532,2.9435,2.9423,2.9232,2.913,2.9273,2.9304,2.9189,2.9189,2.9225,2.9445,2.9941,3.0026,3.032,3.0668,3.0442,3.0326,3.0723,3.1011,3.0705,3.0889,3.0852,3.1017,3.1022,3.0946,3.1068,3.1542,3.1165,3.1321,3.1951,3.2092,3.2333,3.3237,3.3305,3.346,3.3643,3.378,3.3807,3.3807,3.3807,3.3611,3.3495,3.3623,3.3767,3.3766,3.3793,3.3807,3.3807,3.3844,3.3825,3.3954,3.4417,3.4789,3.516,3.5632,3.5962,3.5809,3.5322,3.4556,3.3441,3.3523,3.3162,3.2941,3.2866,3.2703,3.2335,3.2179,3.2318,3.244,3.2421,3.2316,3.2092,3.1897,3.186,3.1805,3.1732,3.1714,3.1571,3.1425,3.117,3.1038,3.1012,3.0497,3.0091,2.9905,2.9499,2.8924,2.8519,2.84,2.8367,2.8587,2.8383,2.7639,2.7114,2.7046,2.6979,2.6945,2.6996,2.7232,2.6961,2.6657,2.6718,2.6789,2.625,2.9705,2.9705,2.9705,2.9625,2.9551,2.9551,2.9474,2.9336,2.9345,2.9345,2.9314,2.9246,2.92,2.9278,2.9575,2.9806,3.0124,3.0246,3.0246,3.0246,3.0265,3.0393,3.0803,3.0803,3.1311,3.1651,3.1438,3.1146,3.1372,3.136,3.1451,3.1384,3.1403,3.1586,3.1909,3.1884,3.2029,3.2256,3.2013,3.1786,3.2334,3.2228,3.2675,3.2949,3.3169,3.3136,3.3118,3.3118,3.3118,3.3103,3.3118,3.3229,3.34,3.3553,3.3659,3.3578,3.3725,3.383,3.3922,3.4087,3.4334,3.4222,3.5027,3.5681,3.5987,3.6474,3.672,3.6318,3.5457,3.4647,3.4078,3.3935,3.3677,3.3224,3.3051,3.2827,3.2472,3.2067,3.2172,3.2348,3.2029,3.1816,3.1601,3.1468,3.1389,3.1291,3.121,3.119,3.119,3.119,3.119,3.119,3.1173,3.097,3.0548,3.0345,3.0243,2.9788,2.9416,2.9297,2.9179,2.9247,2.8925,2.8333,2.796,2.777,2.791,2.8113,2.796,2.7755,2.7576,2.7374,2.7149,2.6885,2.6344,2.9579,2.9561,2.9561,2.9456,2.9341,2.932,2.9203,2.9021,2.901,2.9021,2.9023,2.917,2.9239,2.9326,2.9849,3.0511,3.1239,3.1197,3.115,3.1225,3.1106,3.1239,3.1472,3.1503,3.1719,3.2262,3.217,3.1974,3.1919,3.1769,3.1669,3.1724,3.1669,3.1896,3.2392,3.2238,3.2954,3.3133,3.3001,3.2478,3.2224,3.2328,3.2607,3.2696,3.2713,3.287,3.3186,3.3256,3.3222,3.3204,3.3188,3.3245,3.3618,3.3776,3.3682,3.3512,3.3773,3.3935,3.4146,3.4647,3.4839,3.4501,3.5654,3.6263,3.6537,3.6752,3.7118,3.6498,3.5722,3.4818,3.4481,3.4497,3.4179,3.3701,3.3454,3.34,3.3014,3.2683,3.2496,3.2315,3.1721,3.1484,3.146,3.1274,3.1271,3.1271,3.119,3.119,3.119,3.119,3.119,3.119,3.119,3.119,3.0954,3.0683,3.0598,3.0429,3.0161,3.0008,2.9822,2.9668,2.9379,2.9201,2.9154,2.9044,2.9181,2.901,2.8637,2.8358,2.827,2.7945,2.7411,2.694,2.6456,2.9071,2.9082,2.91,2.9067,2.9074,2.9044,2.904,2.903,2.9014,2.8987,2.9131,2.9691,2.9811,2.9787,2.9976,3.0441,3.084,3.1096,3.1275,3.149,3.1261,3.1444,3.178,3.1474,3.188,3.24,3.2416,3.2679,3.2556,3.2337,3.2319,3.2282,3.2257,3.243,3.2451,3.2262,3.2142,3.2453,3.193,3.169,3.1966,3.2371,3.2843,3.323,3.3424,3.3583,3.3916,3.3969,3.4075,3.4164,3.427,3.4248,3.4181,3.4407,3.4316,3.4228,3.4303,3.4569,3.4618,3.508,3.5223,3.5011,3.5891,3.6252,3.6506,3.6736,3.6862,3.606,3.5735,3.53,3.4608,3.4306,3.3916,3.3722,3.3593,3.355,3.3332,3.312,3.2961,3.2971,3.2581,3.1952,3.1602,3.1379,3.119,3.119,3.1207,3.1258,3.1224,3.1258,3.119,3.119,3.119,3.119,3.1173,3.0937,3.092,3.0903,3.0784,3.0615,3.0463,3.0323,3.0398,3.0266,3.0175,2.9822,2.9499,2.9248,2.9073,2.8841,2.8538,2.8005,2.7407,2.6967,2.6677,2.8987,2.8987,2.8987,2.8987,2.8964,2.8743,2.8936,2.9243,2.9111,2.9238,2.9605,2.996,3.0274,3.0508,3.0731,3.1148,3.1642,3.1709,3.1839,3.1948,3.1834,3.1923,3.2159,3.2103,3.2288,3.2226,3.2247,3.2091,3.2349,3.2535,3.2501,3.2503,3.2502,3.2463,3.2559,3.2299,3.2249,3.2283,3.2151,3.2304,3.2647,3.2928,3.3164,3.3475,3.3511,3.3755,3.3943,3.3955,3.3975,3.3955,3.3975,3.4134,3.4281,3.4521,3.4607,3.5014,3.5101,3.5059,3.4834,3.5368,3.5366,3.543,3.6109,3.6844,3.671,3.6621,3.6656,3.6232,3.5896,3.5459,3.5069,3.4964,3.4568,3.4266,3.4032,3.4015,3.3931,3.3525,3.3343,3.3427,3.3423,3.2882,3.2374,3.2138,3.2121,3.2188,3.2053,3.1901,3.1681,3.1427,3.1326,3.119,3.119,3.119,3.119,3.1106,3.1173,3.119,3.1173,3.1038,3.1055,3.1027,3.1002,3.0775,3.0427,3.0085,2.9676,2.9446,2.9231,2.8995,2.8764,2.8253,2.7782,2.7466,2.72,2.9275,2.927,2.9193,2.9101,2.9003,2.8873,2.9169,2.9647,2.9435,2.9604,3.0021,3.0238,3.0683,3.123,3.132,3.1532,3.2228,3.2333,3.2417,3.2451,3.2384,3.2245,3.2159,3.2195,3.2092,3.2179,3.1806,3.1852,3.2063,3.2227,3.2441,3.2442,3.244,3.2598,3.2703,3.2735,3.2693,3.2588,3.2915,3.3141,3.3283,3.333,3.3503,3.3634,3.3694,3.3761,3.3909,3.4058,3.4075,3.413,3.4207,3.4495,3.4779,3.4885,3.5077,3.5384,3.5501,3.5386,3.5315,3.5554,3.5662,3.5786,3.5972,3.6564,3.6596,3.6395,3.6186,3.61,3.5856,3.5666,3.5605,3.556,3.5255,3.4934,3.4776,3.4776,3.4709,3.437,3.4201,3.4336,3.432,3.4066,3.3592,3.3207,3.3123,3.3203,3.3,3.2628,3.229,3.1935,3.1952,3.1935,3.1968,3.1985,3.1931,3.1813,3.1712,3.1513,3.1496,3.1655,3.1783,3.1566,3.1399,3.1094,3.0611,2.9691,2.8927,2.9163,2.9368,2.915,2.8901,2.863,2.8261,2.791,2.762,3.0024,3.0001,2.9685,2.9384,2.9083,2.9708,2.9978,3.0066,3.0019,3.0027,3.023,3.0471,3.1028,3.1477,3.1378,3.1428,3.1861,3.1861,3.2057,3.2161,3.2092,3.1897,3.1805,3.1601,3.1406,3.1406,3.1487,3.1805,3.2137,3.24,3.2432,3.2346,3.2584,3.2869,3.3039,3.3091,3.3222,3.3271,3.3684,3.3765,3.3681,3.3677,3.3863,3.432,3.4472,3.4726,3.5346,3.5228,3.516,3.516,3.5126,3.5143,3.5301,3.5329,3.5481,3.5549,3.5616,3.5518,3.5591,3.5794,3.5971,3.5769,3.5732,3.5924,3.5989,3.5827,3.5689,3.5778,3.5667,3.5622,3.5616,3.5583,3.5481,3.5419,3.5228,3.5267,3.5267,3.5278,3.516,3.5301,3.5131,3.4771,3.4653,3.4252,3.3981,3.4066,3.366,3.3288,3.3085,3.2831,3.2966,3.3017,3.3068,3.3081,3.3073,3.2841,3.2299,3.2067,3.2002,3.2352,3.2714,3.2374,3.155,3.1027,3.0427,2.9279,2.852,2.9055,2.9391,2.9285,2.9036,2.8687,2.8348,2.7966,2.772,2.9948,2.9754,3.0074,2.9992,2.9664,2.9712,2.9999,3.0333,3.0196,3.0383,3.0762,3.0939,3.1121,3.1321,3.1312,3.1252,3.143,3.143,3.1582,3.1601,3.1524,3.1449,3.1351,3.1363,3.121,3.1343,3.1633,3.1938,3.2263,3.2747,3.3305,3.3406,3.322,3.3119,3.3284,3.336,3.3495,3.3977,3.4223,3.4252,3.4832,3.4754,3.489,3.5109,3.516,3.5278,3.5532,3.5583,3.56,3.5616,3.5616,3.5616,3.5616,3.5616,3.5616,3.5616,3.5616,3.5616,3.5616,3.5788,3.5783,3.5734,3.5622,3.5616,3.5616,3.5633,3.5616,3.5622,3.565,3.5701,3.5616,3.5616,3.5583,3.56,3.5616,3.5616,3.5616,3.5616,3.56,3.5487,3.5447,3.5295,3.5278,3.5261,3.5064,3.4878,3.4387,3.3981,3.3791,3.3537,3.3578,3.3508,3.352,3.3206,3.3156,3.2934,3.2713,3.2611,3.2485,3.2675,3.2859,3.2115,3.1373,3.0879,3.053,2.9855,2.947,2.947,2.9325,2.8996,2.8818,2.8642,2.8328,2.8082,2.8016,3.0266,3.0073,3.0553,3.0525,3.0107,3.0024,3.0279,3.0671,3.0566,3.0683,3.119,3.119,3.119,3.119,3.119,3.119,3.1213,3.1213,3.121,3.1232,3.1252,3.1309,3.1444,3.1596,3.1765,3.1904,3.231,3.2716,3.3139,3.3529,3.4083,3.4421,3.437,3.418,3.4061,3.3832,3.3997,3.4563,3.4788,3.4851,3.5515,3.5532,3.5532,3.5549,3.5532,3.5532,3.5583,3.5616,3.5616,3.5616,3.5616,3.5616,3.5616,3.5616,3.5616,3.5616,3.5616,3.5633,3.5616,3.5616,3.5616,3.5616,3.5616,3.5616,3.5633,3.5785,3.6028,3.5633,3.5769,3.587,3.5752,3.5616,3.5616,3.5616,3.5616,3.5616,3.5616,3.5616,3.5616,3.5566,3.5566,3.5532,3.5515,3.5481,3.5414,3.5261,3.5098,3.4737,3.4542,3.4258,3.3952,3.3822,3.3676,3.3291,3.2887,3.2979,3.3055,3.3055,3.291,3.266,3.2522,3.189,3.1516,3.1244,3.0907,3.0551,3.0132,2.9689,2.9139,2.8572,2.867,2.8948,2.8952,2.8801,2.861,3.1131,3.1176,3.1145,3.0775,3.0272,3.0874,3.1111,3.1116,3.1092,3.1123,3.119,3.119,3.119,3.119,3.119,3.119,3.119,3.119,3.1241,3.1343,3.1427,3.1701,3.2073,3.2344,3.2476,3.3169,3.3406,3.3677,3.4257,3.4404,3.4912,3.5245,3.5228,3.5245,3.5481,3.5515,3.5532,3.5532,3.5481,3.5515,3.5566,3.5616,3.5616,3.5616,3.5616,3.5616,3.5616,3.5616,3.5667,3.5842,3.5825,3.5853,3.5971,3.5938,3.5921,3.5887,3.5819,3.5752,3.5701,3.5667,3.5752,3.565,3.5616,3.5667,3.5802,3.6163,3.6535,3.6191,3.6434,3.6332,3.6011,3.5684,3.5752,3.5616,3.5616,3.5616,3.5616,3.5616,3.5616,3.5616,3.5616,3.56,3.56,3.56,3.5583,3.5549,3.5583,3.5442,3.5178,3.4931,3.452,3.4177,3.3964,3.3437,3.3135,3.3306,3.3406,3.3428,3.3121,3.2599,3.2468,3.2226,3.188,3.161,3.1225,3.0831,3.0262,2.9693,2.9564,2.9549,2.931,2.9427,2.9502,2.9427,2.9157,3.119,3.119,3.119,3.1055,3.0886,3.1089,3.119,3.119,3.119,3.119,3.119,3.119,3.119,3.119,3.119,3.1207,3.1224,3.1224,3.1309,3.1921,3.1918,3.2391,3.2814,3.3089,3.3203,3.3491,3.3812,3.4201,3.446,3.4895,3.5245,3.5566,3.5616,3.56,3.5583,3.5616,3.56,3.56,3.5583,3.56,3.5616,3.5633,3.5633,3.5667,3.5718,3.5701,3.5769,3.5819,3.5994,3.6315,3.6383,3.6552,3.685,3.6969,3.7019,3.7053,3.707,3.7144,3.7144,3.7094,3.6563,3.6073,3.5769,3.5988,3.6349,3.6569,3.6806,3.706,3.728,3.7094,3.6603,3.6451,3.6332,3.5735,3.5616,3.5616,3.5616,3.5616,3.5616,3.5616,3.5616,3.5706,3.5717,3.5485,3.5439,3.5492,3.5509,3.5508,3.5296,3.5296,3.5098,3.4648,3.4274,3.3689,3.3355,3.3223,3.2905,3.2652,3.2355,3.1911,3.1918,3.2148,3.1942,3.1521,3.1302,3.1077,3.0733,3.0537,3.0791,3.0791,3.0313,3.0058,3.0148,2.9909,2.9502,3.119,3.119,3.119,3.119,3.119,3.119,3.119,3.119,3.119,3.119,3.119,3.119,3.119,3.119,3.119,3.1464,3.1549,3.1616,3.1985,3.2594,3.2699,3.3136,3.3558,3.3829,3.4049,3.4184,3.4539,3.4912,3.4979,3.5363,3.5566,3.5583,3.5616,3.5616,3.5616,3.5616,3.5616,3.5616,3.5616,3.5808,3.5876,3.5904,3.5904,3.6208,3.6309,3.6157,3.6326,3.6462,3.662,3.7026,3.7246,3.7398,3.7804,3.7939,3.7922,3.7898,3.7905,3.7872,3.7821,3.7804,3.7222,3.6681,3.6411,3.6654,3.7161,3.7523,3.7618,3.7855,3.8142,3.7821,3.7347,3.7252,3.6941,3.6366,3.6309,3.6343,3.6314,3.6348,3.6285,3.6201,3.6121,3.6097,3.5827,3.5452,3.5202,3.5291,3.5372,3.5347,3.5305,3.5252,3.5079,3.4554,3.4082,3.3426,3.2968,3.276,3.2406,3.1942,3.178,3.1705,3.1524,3.1768,3.1611,3.1511,3.1421,3.1376,3.1421,3.1421,3.1376,3.1212,3.0868,3.0748,3.0808,3.0522,3.0088,3.119,3.119,3.119,3.119,3.119,3.119,3.119,3.119,3.119,3.119,3.119,3.119,3.1275,3.1292,3.1275,3.1681,3.2242,3.2327,3.2797,3.3254,3.3423,3.3947,3.4303,3.4539,3.4776,3.5245,3.5498,3.5363,3.5566,3.5583,3.56,3.565,3.5769,3.5819,3.5859,3.5881,3.5887,3.5904,3.609,3.6383,3.6637,3.6276,3.6671,3.7026,3.711,3.7127,3.733,3.7584,3.7736,3.7905,3.7956,3.7973,3.8024,3.799,3.799,3.8041,3.8125,3.821,3.8261,3.8328,3.8244,3.7973,3.7973,3.799,3.8041,3.8311,3.8447,3.8548,3.8734,3.843,3.8108,3.799,3.7855,3.7669,3.7577,3.7547,3.7458,3.741,3.7321,3.7222,3.7116,3.6861,3.6164,3.5701,3.5176,3.5334,3.5354,3.5026,3.4959,3.4787,3.4514,3.3857,3.3386,3.2996,3.2705,3.2778,3.2734,3.2542,3.2198,3.2064,3.1795,3.178,3.2049,3.2093,3.1735,3.1645,3.1795,3.1765,3.1645,3.1481,3.1525,3.1331,3.1346,3.1271,3.1002,3.119,3.119,3.119,3.119,3.119,3.119,3.119,3.119,3.119,3.119,3.119,3.119,3.1515,3.1955,3.1989,3.2442,3.2848,3.3186,3.3592,3.3931,3.4184,3.4692,3.503,3.525,3.543,3.5515,3.5616,3.5616,3.56,3.5616,3.5616,3.5633,3.6113,3.6315,3.6495,3.6595,3.6551,3.6631,3.6907,3.7229,3.7432,3.7188,3.7601,3.777,3.7787,3.7855,3.8007,3.8091,3.8244,3.8616,3.8667,3.8836,3.9445,3.9486,3.9478,3.9486,3.9503,3.9478,3.9486,3.9469,3.9385,3.9276,3.9351,3.9097,3.8954,3.8903,3.9165,3.9283,3.9326,3.9082,3.8688,3.8512,3.8211,3.7961,3.7886,3.7753,3.7611,3.7442,3.7349,3.7091,3.7039,3.6786,3.6141,3.5683,3.5268,3.5418,3.5359,3.4995,3.4741,3.4614,3.4211,3.3589,3.3594,3.3412,3.3291,3.3336,3.3261,3.3155,3.2841,3.2677,3.2751,3.2781,3.2886,3.2751,3.2422,3.2273,3.2258,3.2198,3.2198,3.2392,3.2452,3.2123,3.1869,3.178,3.157,3.119,3.119,3.119,3.119,3.119,3.119,3.119,3.119,3.119,3.119,3.1241,3.1512,3.1887,3.2259,3.2598,3.3119,3.3778,3.3863,3.4235,3.4793,3.4895,3.5182,3.5498,3.5616,3.5583,3.5616,3.5616,3.5616,3.5633,3.565,3.565,3.618,3.666,3.6941,3.7222,3.7513,3.7715,3.7804,3.7987,3.82,3.8234,3.8142,3.821,3.8582,3.8531,3.8464,3.8684,3.87,3.9005,3.9385,3.9428,3.9605,4.0062,4.0079,4.0079,3.9994,3.9994,3.996,3.9943,3.9994,4.0062,4.0096,4.007,3.9842,3.9639,3.9537,3.9723,3.9876,3.9876,3.9792,3.9345,3.8898,3.84,3.7928,3.7791,3.7653,3.7451,3.7248,3.6949,3.6678,3.6469,3.6258,3.5902,3.5493,3.526,3.5347,3.5304,3.5059,3.4868,3.4802,3.4326,3.3693,3.3984,3.4182,3.4059,3.3903,3.3888,3.3769,3.3395,3.332,3.3544,3.3499,3.335,3.3245,3.311,3.3006,3.2901,3.2901,3.2931,3.311,3.32,3.2961,3.2572,3.2258,3.1989,3.119,3.119,3.119,3.119,3.119,3.119,3.1241,3.1275,3.1343,3.1292,3.1444,3.1989,3.2378,3.2835,3.3271,3.3897,3.4404,3.4607,3.4844,3.5588,3.5447,3.5532,3.5549,3.5616,3.5616,3.5616,3.5633,3.5701,3.5752,3.591,3.6265,3.6863,3.7117,3.7472,3.7966,3.85,3.8736,3.8886,3.8875,3.8892,3.8877,3.87,3.865,3.9639,3.9571,3.9309,3.9825,4.0045,4.0113,4.0096,4.0079,4.0062,4.0079,4.0113,4.0113,3.9995,3.9927,3.9808,3.9808,3.9808,3.9859,3.9927,4.0028,4.002,3.9926,3.9615,3.9672,3.956,3.9482,3.9149,3.8694,3.8537,3.821,3.7948,3.7794,3.754,3.7214,3.6956,3.6609,3.6344,3.6194,3.5998,3.5891,3.5493,3.534,3.5329,3.5279,3.5098,3.5044,3.5003,3.4638,3.406,3.4422,3.4768,3.4704,3.4577,3.4577,3.4382,3.4038,3.3993,3.4247,3.4038,3.3709,3.3799,3.3918,3.3694,3.3574,3.3574,3.3589,3.3649,3.3709,3.3679,3.3395,3.3036,3.2677,3.119,3.119,3.119,3.119,3.119,3.119,3.1529,3.2022,3.2039,3.2056,3.209,3.2327,3.2953,3.38,3.4066,3.4624,3.5148,3.5199,3.5397,3.5549,3.56,3.5616,3.5616,3.5616,3.5616,3.5616,3.5667,3.5955,3.6268,3.65,3.685,3.7594,3.786,3.8201,3.8734,3.9277,3.9514,3.9665,3.9664,3.9604,3.9605,3.9723,3.9876,4.0062,3.9859,3.9825,4.0113,4.0113,4.0113,4.0096,4.0096,4.0096,4.0113,4.0096,4.0113,4.002,3.961,3.9489,3.942,3.9463,3.9437,3.9516,3.9636,3.9952,3.9927,3.9463,3.9156,3.9005,3.8843,3.8497,3.8133,3.8064,3.795,3.7822,3.7677,3.7279,3.6919,3.66,3.6211,3.6085,3.5926,3.5816,3.5737,3.5625,3.5464,3.5417,3.5417,3.5374,3.5329,3.5329,3.5255,3.4881,3.503,3.5269,3.5175,3.51,3.5026,3.5085,3.4876,3.4876,3.4921,3.4741,3.4547,3.4696,3.4756,3.4457,3.4247,3.4247,3.4262,3.4292,3.4397,3.4442,3.4322,3.4008,3.3619,3.119,3.119,3.119,3.1396,3.1667,3.1681,3.2104,3.2716,3.278,3.2966,3.3258,3.3322,3.3744,3.459,3.481,3.5098,3.5566,3.5583,3.5566,3.5583,3.5616,3.5616,3.5616,3.5577,3.5616,3.5633,3.6056,3.6432,3.6714,3.6792,3.7085,3.777,3.8228,3.8553,3.9152,3.9648,3.9782,4.0054,4.0045,4.007,4.007,4.0113,4.0113,4.0113,4.0113,4.0113,4.0113,4.0113,4.0113,4.0113,4.0113,3.9756,3.9782,3.9901,3.985,3.9688,3.9489,3.9437,3.9342,3.9219,3.9059,3.9086,3.9166,3.9437,3.8761,3.833,3.8481,3.8425,3.8843,3.8608,3.7571,3.7263,3.6905,3.6677,3.6554,3.6321,3.6164,3.5958,3.5797,3.5765,3.5668,3.5668,3.5589,3.5589,3.5444,3.5444,3.5489,3.5489,3.5489,3.5489,3.5489,3.5489,3.5489,3.5489,3.5385,3.5355,3.537,3.5459,3.5489,3.537,3.522,3.5355,3.5415,3.528,3.5175,3.5085,3.4936,3.4831,3.4906,3.4966,3.5115,3.5265,3.5085,3.4878,3.4562,3.1258,3.1326,3.136,3.1765,3.2378,3.2446,3.2848,3.3474,3.3558,3.3947,3.4523,3.4573,3.4624,3.4878,3.5228,3.5464,3.5616,3.5616,3.5616,3.5616,3.5616,3.5616,3.5554,3.5492,3.5394,3.5606,3.6019,3.6398,3.6727,3.6767,3.7046,3.7582,3.7817,3.7943,3.9159,3.9437,3.9262,3.9636,3.9808,3.9969,4.0045,4.0113,4.0113,4.0113,4.0113,4.0113,4.0113,4.0113,4.0113,3.9901,3.9808,3.9516,3.9368,3.9489,3.9394,3.9219,3.8908,3.9016,3.9166,3.9005,3.8827,3.8701,3.8728,3.8425,3.7761,3.7674,3.7831,3.7889,3.8314,3.8003,3.6994,3.6415,3.6023,3.5814,3.5701,3.5619,3.5554,3.5537,3.5489,3.5489,3.5489,3.5489,3.5489,3.5489,3.5489,3.5489,3.5489,3.5489,3.5489,3.5489,3.5489,3.5489,3.5489,3.5489,3.5489,3.5489,3.5489,3.5489,3.5489,3.5489,3.5489,3.5489,3.5489,3.5489,3.54,3.5325,3.534,3.528,3.54,3.5415,3.5429,3.5444,3.54,3.5235,3.534,3.1565,3.209,3.209,3.253,3.3136,3.3186,3.3609,3.4201,3.4286,3.4709,3.5132,3.5341,3.538,3.5363,3.5481,3.5554,3.5447,3.5492,3.5577,3.5616,3.5339,3.5447,3.549,3.5245,3.4906,3.5255,3.5802,3.6142,3.6612,3.6768,3.7307,3.8335,3.8412,3.851,3.8739,3.8854,3.8799,3.9086,3.9236,3.9315,3.985,3.9969,4.007,4.0113,4.0113,4.0113,4.0113,4.0113,3.9705,3.9342,3.9113,3.8978,3.8881,3.8881,3.8854,3.8536,3.8213,3.7958,3.8015,3.8032,3.7787,3.7555,3.7584,3.7905,3.7485,3.7456,3.7338,3.6798,3.6919,3.6554,3.5863,3.5863,3.5604,3.5604,3.5554,3.5522,3.5522,3.5489,3.5489,3.5489,3.5489,3.5489,3.5489,3.5489,3.5489,3.5489,3.5489,3.5489,3.5489,3.5489,3.5489,3.5489,3.5489,3.5489,3.5489,3.5489,3.5489,3.5489,3.5489,3.5489,3.5489,3.5489,3.5489,3.5489,3.5489,3.5444,3.5489,3.5489,3.5489,3.5459,3.5474,3.5489,3.5489,3.5489,3.5489]}]]